[[{"header":{"parameterUnit":"m.s-1","parameterCategory":1,"la1":30.6,"la2":28.766,"lo1":-90.7593,"lo2":-88.6598,"dy":0.0162,"dx":0.0183,"nx":116,"ny":114,"refTime":"2024-02-22T06:00:00:Z","depth":0,"parameterNumber":2,"parameterNumberName":"U-component_of_WINDS"},"data":[0.0,0.0,0.0,0.0,0.0,0.0,0.0,0.0,0.0,0.0,0.0,0.0,0.0,0.0,0.0,0.0,0.0,0.0,0.0,0.0,0.0,0.0,0.0,0.0,0.0,0.0,0.0,0.0,0.0,0.0,0.0,0.0,0.0,0.0,0.0,0.0,0.0,0.0,0.0,0.0,0.0,0.0,0.0,0.0,0.0,0.0,0.0,0.0,0.0,0.0,0.0,0.0,0.0,0.0,0.0,0.0,0.0,0.0,0.0,0.0,0.0,0.0,0.0,0.0,0.0,0.0,0.0,0.0,0.0,0.0,0.0,0.0,0.0,0.0,0.0,0.0,0.0,0.0,0.0,0.0,0.0,0.0,0.0,0.0,0.0,0.0,0.0,0.0,0.0,0.0,0.0,0.0,0.0,0.0,0.0,0.0,0.0,0.0,0.0,0.0,0.0,0.0,0.0,0.0,0.0,0.0,0.0,0.0,0.0,0.0,0.0,0.0,0.0,0.0,0.0,0.0,0.0,0.0,0.0,0.0,0.0,0.0,0.0,0.0,0.0,0.0,0.0,0.0,0.0,0.0,0.0,0.0,0.0,0.0,0.0,0.0,0.0,0.0,0.0,0.0,0.0,0.0,0.0,0.0,0.0,0.0,0.0,0.0,0.0,0.0,0.0,0.0,0.0,0.0,0.0,0.0,0.0,0.0,0.0,0.0,0.0,0.0,0.0,0.0,0.0,0.0,0.0,0.0,0.0,0.0,0.0,0.0,0.0,0.0,0.0,0.0,0.0,0.0,0.0,0.0,0.0,0.0,0.0,0.0,0.0,0.0,0.0,0.0,0.0,0.0,0.0,0.0,0.0,0.0,0.0,0.0,0.0,0.0,0.0,0.0,0.0,0.0,0.0,0.0,0.0,0.0,0.0,0.0,0.0,0.0,0.0,0.0,0.0,0.0,0.0,0.0,0.0,0.0,0.0,0.0,0.0,0.0,0.0,0.0,0.0,0.0,0.0,0.0,0.0,0.0,0.0,0.0,0.0,0.0,0.0,0.0,0.0,0.0,0.0,0.0,0.0,0.0,0.0,0.0,0.0,0.0,0.0,0.0,0.0,0.0,0.0,0.0,0.0,0.0,0.0,0.0,0.0,0.0,0.0,0.0,0.0,0.0,0.0,0.0,0.0,0.0,0.0,0.0,0.0,0.0,0.0,0.0,0.0,0.0,0.0,0.0,0.0,0.0,0.0,0.0,0.0,0.0,0.0,0.0,0.0,0.0,0.0,0.0,0.0,0.0,0.0,0.0,0.0,0.0,0.0,0.0,0.0,0.0,0.0,0.0,0.0,0.0,0.0,0.0,0.0,0.0,0.0,0.0,0.0,0.0,0.0,0.0,0.0,0.0,0.0,0.0,0.0,0.0,0.0,0.0,0.0,0.0,0.0,0.0,0.0,0.0,0.0,0.0,0.0,0.0,0.0,0.0,0.0,0.0,0.0,0.0,0.0,0.0,0.0,0.0,0.0,0.0,0.0,0.0,0.0,0.0,0.0,0.0,0.0,0.0,0.0,0.0,0.0,0.0,0.0,0.0,0.0,0.0,0.0,0.0,0.0,0.0,0.0,0.0,0.0,0.0,0.0,0.0,0.0,0.0,0.0,0.0,0.0,0.0,0.0,0.0,0.0,0.0,0.0,0.0,0.0,0.0,0.0,0.0,0.0,0.0,0.0,0.0,0.0,0.0,0.0,0.0,0.0,0.0,0.0,0.0,0.0,0.0,0.0,0.0,0.0,0.0,0.0,0.0,0.0,0.0,0.0,0.0,0.0,0.0,0.0,0.0,0.0,0.0,0.0,0.0,0.0,0.0,0.0,0.0,0.0,0.0,0.0,0.0,0.0,0.0,0.0,0.0,0.0,0.0,0.0,0.0,0.0,0.0,0.0,0.0,0.0,0.0,0.0,0.0,0.0,0.0,0.0,0.0,0.0,0.0,0.0,0.0,0.0,0.0,0.0,0.0,0.0,0.0,0.0,0.0,0.0,0.0,0.0,0.0,0.0,0.0,0.0,0.0,0.0,0.0,0.0,0.0,0.0,0.0,0.0,0.0,0.0,0.0,0.0,0.0,0.0,0.0,0.0,0.0,0.0,0.0,0.0,0.0,0.0,0.0,0.0,0.0,0.0,0.0,0.0,0.0,0.0,0.0,0.0,0.0,0.0,0.0,0.0,0.0,0.0,0.0,0.0,0.0,0.0,0.0,0.0,0.0,0.0,0.0,0.0,0.0,0.0,0.0,0.0,0.0,0.0,0.0,0.0,0.0,0.0,0.0,0.0,0.0,0.0,0.0,0.0,0.0,0.0,0.0,0.0,0.0,0.0,0.0,0.0,0.0,0.0,0.0,0.0,0.0,0.0,0.0,0.0,0.0,0.0,0.0,0.0,0.0,0.0,0.0,0.0,0.0,0.0,0.0,0.0,0.0,0.0,0.0,0.0,0.0,0.0,0.0,0.0,0.0,0.0,0.0,0.0,0.0,0.0,0.0,0.0,0.0,0.0,0.0,0.0,0.0,0.0,0.0,0.0,0.0,0.0,0.0,0.0,0.0,0.0,0.0,0.0,0.0,0.0,0.0,0.0,0.0,0.0,0.0,0.0,0.0,0.0,0.0,0.0,0.0,0.0,0.0,0.0,0.0,0.0,0.0,0.0,0.0,0.0,0.0,0.0,0.0,0.0,0.0,0.0,0.0,0.0,0.0,0.0,0.0,0.0,0.0,0.0,0.0,0.0,0.0,0.0,0.0,0.0,0.0,0.0,0.0,0.0,0.0,0.0,0.0,0.0,0.0,0.0,0.0,0.0,0.0,0.0,0.0,0.0,0.0,0.0,0.0,0.0,0.0,0.0,0.0,0.0,0.0,0.0,0.0,0.0,0.0,0.0,0.0,0.0,0.0,0.0,0.0,0.0,0.0,0.0,0.0,0.0,0.0,0.0,0.0,0.0,0.0,0.0,0.0,0.0,0.0,0.0,0.0,0.0,0.0,0.0,0.0,0.0,0.0,0.0,0.0,0.0,0.0,0.0,0.0,0.0,0.0,0.0,0.0,0.0,0.0,0.0,0.0,0.0,0.0,0.0,0.0,0.0,0.0,0.0,0.0,0.0,0.0,0.0,0.0,0.0,0.0,0.0,0.0,0.0,0.0,0.0,0.0,0.0,0.0,0.0,0.0,0.0,0.0,0.0,0.0,0.0,0.0,0.0,0.0,0.0,0.0,0.0,0.0,0.0,0.0,0.0,0.0,0.0,0.0,0.0,0.0,0.0,0.0,0.0,0.0,0.0,0.0,0.0,0.0,0.0,0.0,0.0,0.0,0.0,0.0,0.0,0.0,0.0,0.0,0.0,0.0,0.0,0.0,0.0,0.0,0.0,0.0,0.0,0.0,0.0,0.0,0.0,0.0,0.0,0.0,0.0,0.0,0.0,0.0,0.0,0.0,0.0,0.0,0.0,0.0,0.0,0.0,0.0,0.0,0.0,0.0,0.0,0.0,0.0,0.0,0.0,0.0,0.0,0.0,0.0,0.0,0.0,0.0,0.0,0.0,0.0,0.0,0.0,0.0,0.0,0.0,0.0,0.0,0.0,0.0,0.0,0.0,0.0,0.0,0.0,0.0,0.0,0.0,0.0,0.0,0.0,0.0,0.0,0.0,0.0,0.0,0.0,0.0,0.0,0.0,0.0,0.0,0.0,0.0,0.0,0.0,0.0,0.0,0.0,0.0,0.0,0.0,0.0,0.0,0.0,0.0,0.0,0.0,0.0,0.0,0.0,0.0,0.0,0.0,0.0,0.0,0.0,0.0,0.0,0.0,0.0,0.0,0.0,0.0,0.0,0.0,0.0,0.0,0.0,0.0,0.0,0.0,0.0,0.0,0.0,0.0,0.0,0.0,0.0,0.0,0.0,0.0,0.0,0.0,0.0,0.0,0.0,0.0,0.0,0.0,0.0,0.0,0.0,0.0,0.0,0.0,0.0,0.0,0.0,0.0,0.0,0.0,0.0,0.0,0.0,0.0,0.0,0.0,0.0,0.0,0.0,0.0,0.0,0.0,0.0,0.0,0.0,0.0,0.0,0.0,0.0,0.0,0.0,0.0,0.0,0.0,0.0,0.0,0.0,0.0,0.0,0.0,0.0,0.0,0.0,0.0,0.0,0.0,0.0,0.0,0.0,0.0,0.0,0.0,0.0,0.0,0.0,0.0,0.0,0.0,0.0,0.0,0.0,0.0,0.0,0.0,0.0,0.0,0.0,0.0,0.0,0.0,0.0,0.0,0.0,0.0,0.0,0.0,0.0,0.0,0.0,0.0,0.0,0.0,0.0,0.0,0.0,0.0,0.0,0.0,0.0,0.0,0.0,0.0,0.0,0.0,0.0,0.0,0.0,0.0,0.0,0.0,0.0,0.0,0.0,0.0,0.0,0.0,0.0,0.0,0.0,0.0,0.0,0.0,0.0,0.0,0.0,0.0,0.0,0.0,0.0,0.0,0.0,0.0,0.0,0.0,0.0,0.0,0.0,0.0,0.0,0.0,0.0,0.0,0.0,0.0,0.0,0.0,0.0,0.0,0.0,0.0,0.0,0.0,0.0,0.0,0.0,0.0,0.0,0.0,0.0,0.0,0.0,0.0,0.0,0.0,0.0,0.0,0.0,0.0,0.0,0.0,0.0,0.0,0.0,0.0,0.0,0.0,0.0,0.0,0.0,0.0,0.0,0.0,0.0,0.0,0.0,0.0,0.0,0.0,0.0,0.0,0.0,0.0,0.0,0.0,0.0,0.0,0.0,0.0,0.0,0.0,0.0,0.0,0.0,0.0,0.0,0.0,0.0,0.0,0.0,0.0,0.0,0.0,0.0,0.0,0.0,0.0,0.0,0.0,0.0,0.0,0.0,0.0,0.0,0.0,0.0,0.0,0.0,0.0,0.0,0.0,0.0,0.0,0.0,0.0,0.0,0.0,0.0,0.0,0.0,0.0,0.0,0.0,0.0,0.0,0.0,0.0,0.0,0.0,0.0,0.0,0.0,0.0,0.0,0.0,0.0,0.0,0.0,0.0,0.0,0.0,0.0,0.0,0.0,0.0,0.0,0.0,0.0,0.0,0.0,0.0,0.0,0.0,0.0,0.0,0.0,0.0,0.0,0.0,0.0,0.0,0.0,0.0,0.0,0.0,0.0,0.0,0.0,0.0,0.0,0.0,0.0,0.0,0.0,0.0,0.0,0.0,0.0,0.0,0.0,0.0,0.0,0.0,0.0,0.0,0.0,0.0,0.0,0.0,0.0,0.0,0.0,0.0,0.0,0.0,0.0,0.0,0.0,0.0,0.0,0.0,0.0,0.0,0.0,0.0,0.0,0.0,0.0,0.0,0.0,0.0,0.0,0.0,0.0,0.0,0.0,0.0,0.0,0.0,0.0,0.0,0.0,0.0,0.0,0.0,0.0,0.0,0.0,0.0,0.0,0.0,0.0,0.0,0.0,0.0,0.0,0.0,0.0,0.0,0.0,0.0,0.0,0.0,0.0,0.0,0.0,0.0,0.0,0.0,0.0,0.0,0.0,0.0,0.0,0.0,0.0,0.0,0.0,0.0,0.0,0.0,0.0,0.0,0.0,0.0,0.0,0.0,0.0,0.0,0.0,0.0,0.0,0.0,0.0,0.0,0.0,0.0,0.0,0.0,0.0,0.0,0.0,0.0,0.0,0.0,0.0,0.0,0.0,0.0,0.0,0.0,0.0,0.0,0.0,0.0,0.0,0.0,0.0,0.0,0.0,0.0,0.0,0.0,0.0,0.0,0.0,0.0,0.0,0.0,0.0,0.0,0.0,0.0,0.0,0.0,0.0,0.0,0.0,0.0,0.0,0.0,0.0,0.0,0.0,0.0,0.0,0.0,0.0,0.0,0.0,0.0,0.0,0.0,0.0,0.0,0.0,0.0,0.0,0.0,0.0,0.0,0.0,0.0,0.0,0.0,0.0,0.0,0.0,0.0,0.0,0.0,0.0,0.0,0.0,0.0,0.0,0.0,0.0,0.0,0.0,0.0,0.0,0.0,0.0,0.0,0.0,0.0,0.0,0.0,0.0,0.0,2.2605,0.0,0.0,0.0,0.0,0.0,0.0,0.0,0.0,0.0,0.0,0.0,0.0,0.0,0.0,0.0,0.0,0.0,0.0,0.0,0.0,0.0,0.0,0.0,0.0,0.0,0.0,0.0,1.9325,1.9501,1.9288,1.9624,1.9874,1.9945,2.0151,2.0353,2.0511,2.0376,2.0273,2.0273,2.0152,2.0226,2.0499,2.0004,1.9335,1.8571,0.0,0.0,0.0,0.0,0.0,0.0,0.0,0.0,0.0,0.0,0.0,0.0,0.0,0.0,0.0,0.0,0.0,0.0,0.0,0.0,0.0,0.0,0.0,0.0,0.0,0.0,0.0,0.0,0.0,0.0,0.0,0.0,0.0,0.0,0.0,0.0,0.0,0.0,0.0,0.0,0.0,0.0,0.0,0.0,0.0,0.0,0.0,0.0,0.0,0.0,0.0,0.0,0.0,0.0,0.0,0.0,0.0,0.0,0.0,0.0,0.0,0.0,0.0,0.0,0.0,0.0,0.0,0.0,0.0,0.0,0.0,2.3608,0.0,0.0,0.0,0.0,0.0,0.0,0.0,0.0,0.0,0.0,0.0,0.0,0.0,0.0,0.0,0.0,0.0,0.0,0.0,0.0,0.0,0.0,0.0,0.0,1.8027,1.8503,1.8848,1.9002,1.8863,1.9117,1.9265,1.9366,1.9397,1.9468,1.9531,1.926,1.9179,1.9309,1.9783,2.0079,2.0167,1.9863,1.9397,0.0,0.0,0.0,0.0,0.0,0.0,0.0,0.0,0.0,0.0,0.0,0.0,0.0,0.0,0.0,0.0,0.0,0.0,0.0,0.0,0.0,0.0,0.0,0.0,0.0,0.0,0.0,0.0,0.0,0.0,0.0,0.0,0.0,0.0,0.0,0.0,0.0,0.0,0.0,0.0,0.0,0.0,0.0,0.0,0.0,0.0,0.0,0.0,0.0,0.0,0.0,0.0,0.0,0.0,0.0,0.0,0.0,0.0,0.0,0.0,0.0,0.0,0.0,0.0,0.0,2.5734,2.5831,2.5416,2.5954,2.6566,2.705,2.5696,2.5024,2.477,2.4184,0.0,0.0,0.0,0.0,0.0,0.0,0.0,0.0,0.0,0.0,0.0,0.0,0.0,0.0,0.0,0.0,0.0,0.0,0.0,0.0,0.0,1.6597,1.7009,1.709,1.6886,1.6831,1.7112,1.7106,1.7383,1.8017,1.8251,1.8563,1.8926,1.889,1.9115,1.9624,2.0788,2.1045,2.0452,2.1525,0.0,0.0,0.0,0.0,0.0,0.0,0.0,0.0,0.0,0.0,0.0,0.0,0.0,0.0,0.0,0.0,0.0,0.0,0.0,0.0,0.0,0.0,0.0,0.0,0.0,0.0,0.0,0.0,0.0,0.0,0.0,0.0,0.0,0.0,0.0,0.0,0.0,0.0,0.0,0.0,0.0,0.0,0.0,0.0,0.0,0.0,1.6553,1.7344,0.0,0.0,0.0,0.0,0.0,0.0,0.0,0.0,0.0,0.0,0.0,0.0,0.0,2.2632,2.3907,2.5049,2.5914,2.6619,2.7551,2.8286,2.881,2.8717,2.8677,2.8709,2.7886,0.0,2.6054,2.5791,0.0,0.0,0.0,0.0,0.0,0.0,0.0,0.0,0.0,0.0,0.0,0.0,0.0,0.0,0.0,0.0,0.0,0.0,0.0,0.0,0.0,1.5721,1.61,1.5915,1.6695,1.7022,1.6552,1.7499,1.7921,1.7702,1.7799,1.7973,1.813,1.7943,1.8594,2.0137,2.1075,2.2017,2.2981,0.0,0.0,0.0,0.0,0.0,0.0,0.0,0.0,0.0,0.0,0.0,0.0,0.0,0.0,0.0,0.0,0.0,0.0,0.0,0.0,0.0,0.0,0.0,0.0,0.0,0.0,0.0,0.0,0.0,0.0,0.0,0.0,0.0,0.0,0.0,0.0,0.0,0.0,0.0,0.0,0.0,0.0,0.0,0.0,0.0,0.0,1.6439,1.7011,1.7679,1.752,1.7416,0.0,0.0,0.0,0.0,0.0,0.0,0.0,0.0,0.0,2.3559,2.3325,2.3987,2.5606,2.6167,2.7071,2.8311,2.9139,2.9643,2.9847,3.0085,3.0006,2.9596,2.8763,2.7884,2.704,2.6325,2.586,2.5687,0.0,0.0,0.0,0.0,2.5552,2.5967,0.0,0.0,0.0,0.0,0.0,0.0,0.0,0.0,0.0,0.0,0.0,0.0,1.422,1.5163,1.5587,1.5217,1.6466,1.6856,1.5917,1.7151,1.7653,1.712,1.7115,1.7173,1.7352,1.7604,1.8594,2.041,2.1698,2.3303,0.0,0.0,0.0,0.0,0.0,0.0,0.0,0.0,0.0,0.0,0.0,0.0,0.0,0.0,0.0,0.0,0.0,0.0,0.0,0.0,0.0,0.0,0.0,0.0,0.0,0.0,0.0,0.0,0.0,0.0,0.0,0.0,0.0,0.0,0.0,0.0,0.0,0.0,0.0,0.0,0.0,0.0,0.0,0.0,0.0,0.0,0.0,1.6924,1.7708,1.8346,1.8252,1.8281,0.0,0.0,0.0,0.0,0.0,0.0,2.3082,2.3178,2.3726,2.4867,2.4702,2.5435,2.721,2.739,2.8162,2.9571,3.0112,3.0279,3.0141,3.0541,3.0342,2.9642,2.8903,2.831,2.7798,2.6792,2.6282,2.6178,2.602,2.6146,2.6367,2.5863,2.6293,2.6929,0.0,0.0,0.0,0.0,0.0,0.0,0.0,0.0,0.0,0.0,0.0,1.3477,1.3893,1.5096,1.571,1.5153,1.5404,1.5314,1.4651,1.4624,1.4963,1.5764,1.5798,1.6099,1.6756,1.8548,1.9708,2.0127,0.0,0.0,0.0,0.0,0.0,0.0,0.0,0.0,0.0,0.0,0.0,0.0,0.0,0.0,0.0,0.0,0.0,0.0,0.0,0.0,0.0,0.0,0.0,0.0,0.0,0.0,0.0,0.0,0.0,0.0,0.0,0.0,0.0,0.0,0.0,0.0,0.0,0.0,0.0,0.0,0.0,0.0,0.0,0.0,0.0,0.0,0.0,0.0,0.0,0.0,0.0,1.8985,1.9969,0.0,0.0,0.0,0.0,2.0959,2.2091,2.3397,2.4723,2.4028,2.471,2.7241,2.6562,2.6823,2.8083,2.8618,2.9274,2.998,3.0235,3.0292,3.0081,2.9879,2.9316,2.8491,2.8411,2.8381,2.8288,2.7627,2.704,2.6798,2.8046,2.8139,2.7609,2.7578,2.7472,2.7288,0.0,0.0,0.0,0.0,0.0,0.0,0.0,0.0,0.9791,1.0665,1.147,1.2315,1.3062,1.3983,1.4643,1.4831,1.5478,1.5458,1.4362,1.5148,1.5593,1.5434,1.5618,1.634,1.7646,1.9551,2.1374,2.3194,0.0,0.0,0.0,0.0,0.0,0.0,0.0,0.0,0.0,0.0,0.0,0.0,0.0,0.0,0.0,0.0,0.0,0.0,0.0,0.0,0.0,0.0,0.0,0.0,0.0,0.0,0.0,0.0,0.0,0.0,0.0,0.0,0.0,0.0,0.0,0.0,0.0,0.0,0.0,0.0,0.0,0.0,0.0,0.0,0.0,0.0,0.0,0.0,0.0,0.0,0.0,1.9953,2.0769,0.0,2.1628,2.2386,2.2912,2.3177,2.4382,2.5472,2.6332,2.6107,2.6512,2.7882,2.7654,2.7912,2.8649,2.8826,2.9347,3.019,3.0249,3.0426,3.0648,3.0175,2.9684,2.9213,2.9264,2.9175,2.9058,2.9273,2.8737,2.7829,2.8292,2.8601,2.8724,2.834,2.8192,2.8202,0.0,0.0,0.0,0.0,0.0,0.0,0.0,0.0,0.9237,1.0113,1.0903,1.1765,1.2745,1.3997,1.4942,1.5352,1.5957,1.5871,1.4718,1.5176,1.5362,1.5123,1.5747,1.6888,1.8559,2.0624,2.2838,0.0,0.0,0.0,0.0,0.0,0.0,0.0,0.0,0.0,0.0,0.0,0.0,0.0,0.0,0.0,2.0086,0.0,0.0,0.0,0.0,0.0,0.0,0.0,0.0,0.0,0.0,0.0,0.0,0.0,0.0,0.0,0.0,0.0,0.0,0.0,0.0,0.0,0.0,0.0,0.0,0.0,0.0,0.0,0.0,0.0,0.0,0.0,0.0,0.0,0.0,0.0,2.0356,2.114,2.2363,2.3217,2.3435,2.4156,2.4787,2.5346,2.6315,2.717,2.7797,2.7997,2.8395,2.908,2.9021,2.9128,2.9431,2.9431,2.9752,3.0397,3.0625,3.0729,3.0718,3.028,2.9923,2.948,2.9642,2.9562,2.9303,3.0317,3.0124,2.9144,2.9346,2.9673,3.0012,2.9378,2.9346,2.9403,0.0,0.0,0.0,0.0,0.0,0.0,0.0,0.8357,0.9086,0.9962,1.0913,1.1988,1.3077,1.5251,1.6677,1.6733,1.6762,1.6353,1.547,1.4459,1.4118,1.4708,1.6177,1.7754,1.9445,0.0,0.0,0.0,0.0,0.0,0.0,0.0,0.0,0.0,0.0,0.0,0.0,0.0,0.0,0.0,0.0,0.0,2.3221,0.0,0.0,0.0,0.0,0.0,0.0,0.0,0.0,0.0,0.0,0.0,0.0,0.0,0.0,0.0,0.0,0.0,0.0,0.0,0.0,0.0,0.0,0.0,0.0,0.0,0.0,0.0,0.0,0.0,0.0,0.0,0.0,0.0,1.9774,2.1367,2.2562,2.2666,2.4731,2.5926,2.5408,2.6351,2.7116,2.7257,2.7883,2.8568,2.9137,2.9582,3.0142,3.08,3.0608,3.0544,3.0544,3.0544,3.0544,3.0572,3.119,3.1019,3.0262,3.0205,2.9753,2.9046,2.951,2.9456,2.9156,3.0745,3.1073,3.0578,3.1182,3.1428,3.1374,3.0885,3.0885,3.0691,0.0,0.0,0.0,0.0,0.0,0.0,0.0,0.8034,0.851,0.8947,1.001,1.1424,1.3141,1.4197,1.5189,1.6054,1.5888,1.5139,1.3785,1.3586,1.4038,1.5138,1.705,0.0,2.1383,0.0,0.0,0.0,0.0,0.0,0.0,0.0,0.0,0.0,0.0,0.0,0.0,0.0,0.0,0.0,0.0,0.0,2.4061,0.0,0.0,0.0,0.0,0.0,0.0,0.0,0.0,0.0,0.0,0.0,0.0,0.0,0.0,0.0,0.0,0.0,0.0,0.0,0.0,0.0,0.0,0.0,0.0,0.0,0.0,0.0,0.0,0.0,0.0,0.0,0.0,2.1457,2.153,2.2743,2.4154,2.548,2.661,2.7257,2.7117,2.7764,2.8412,2.8923,2.9543,3.0164,3.0813,3.0946,3.1115,3.1284,3.1218,3.1218,3.1218,3.1218,3.1218,3.1218,3.1415,3.1368,3.1132,3.0199,2.9822,2.9898,2.961,2.9578,2.9835,3.0998,3.1381,3.1267,3.1805,3.1916,3.1749,3.1153,3.0192,2.894,0.0,0.0,0.0,0.0,0.0,0.0,0.0,0.7641,0.8012,0.8669,0.9772,1.1255,1.3154,1.383,1.4591,1.5815,1.5074,1.4164,1.3298,1.3564,1.4421,0.0,0.0,0.0,0.0,0.0,0.0,0.0,0.0,0.0,0.0,0.0,0.0,0.0,0.0,0.0,0.0,0.0,0.0,0.0,0.0,0.0,2.6929,2.5102,2.404,2.3437,2.2464,2.1892,2.1529,2.094,0.0,0.0,0.0,0.0,0.0,0.0,0.0,0.0,0.0,0.0,0.0,0.0,0.0,0.0,0.0,0.0,0.0,0.0,0.0,0.0,0.0,0.0,0.0,0.0,2.1983,2.3912,2.4446,2.5374,2.6301,2.7116,2.824,2.883,2.8577,2.9111,2.9729,3.0347,3.074,3.1106,3.1471,3.1724,3.1864,3.1864,3.1864,3.1864,3.1864,3.1864,3.1752,3.1499,3.1752,3.1724,3.1471,3.0459,3.0045,3.0114,2.9736,2.9511,2.948,3.0483,3.0689,0.0,0.0,0.0,0.0,0.0,2.9736,2.8512,0.0,0.0,0.0,0.0,0.0,0.0,0.0,0.7182,0.753,0.8621,0.9769,1.112,1.2822,1.347,1.4274,1.5553,1.4245,1.3432,1.3573,0.0,0.0,0.0,0.0,0.0,0.0,0.0,0.0,0.0,0.0,0.0,0.0,0.0,0.0,0.0,0.0,0.0,0.0,0.0,0.0,0.0,0.0,0.0,3.0613,2.8071,2.729,2.7309,2.4832,2.357,2.3007,2.22,0.0,0.0,0.0,0.0,0.0,0.0,0.0,0.0,0.0,0.0,0.0,0.0,0.0,0.0,0.0,0.0,0.0,0.0,0.0,0.0,0.0,0.0,0.0,0.0,2.3442,2.6385,2.7579,2.8479,2.8797,2.8155,2.9588,3.0375,2.9757,3.0263,3.0909,3.1555,3.1583,3.1612,3.1696,0.0,0.0,0.0,0.0,3.2511,3.2511,3.2511,3.223,3.1629,3.2162,3.2162,3.1534,3.089,3.0415,3.0097,2.9911,2.947,2.8855,2.9757,2.9757,2.9342,3.0447,3.0778,3.06,2.9936,2.9345,2.8812,0.0,0.0,0.0,0.0,0.0,0.0,0.0,0.624,0.678,0.7168,0.8357,0.9674,1.0895,1.1637,1.238,1.3276,1.288,1.2902,0.0,0.0,0.0,0.0,0.0,0.0,0.0,0.0,0.0,0.0,0.0,0.0,0.0,0.0,0.0,0.0,0.0,0.0,0.0,0.0,0.0,0.0,0.0,0.0,3.149,2.9911,2.8983,2.8349,2.6982,2.6759,2.6788,2.4603,2.3826,2.3402,2.1068,0.0,0.0,0.0,0.0,0.0,0.0,0.0,0.0,0.0,0.0,0.0,0.0,0.0,0.0,0.0,0.0,0.0,0.0,0.0,0.0,2.1484,2.4412,2.6816,2.7442,2.9346,3.0486,3.0059,3.0769,3.105,3.0403,3.0937,3.1555,3.2174,3.223,3.2455,3.2932,3.3073,3.3157,3.3157,3.3157,3.3157,3.3157,3.3157,3.2933,3.2443,0.0,0.0,3.199,3.1389,3.1046,3.0949,3.0419,3.0147,3.0011,3.0482,3.0416,3.0065,2.9862,2.9442,2.8967,2.8776,2.8352,2.7762,0.0,0.0,0.0,0.0,0.0,0.0,0.0,0.5524,0.5958,0.6521,0.7362,0.8408,0.9757,1.035,1.0963,1.1656,1.1815,0.0,0.0,0.0,0.0,0.0,0.0,0.0,0.0,0.0,0.0,0.0,0.0,0.0,0.0,0.0,0.0,0.0,0.0,0.0,0.0,0.0,0.0,0.0,0.0,0.0,3.265,3.1633,3.1013,3.0397,2.8961,2.8389,2.8193,2.624,2.527,2.4683,2.3235,2.1652,1.9981,0.0,0.0,0.0,0.0,0.0,0.0,0.0,0.0,0.0,0.0,0.0,0.0,0.0,0.0,1.8259,1.8078,0.0,2.1745,2.2695,2.5205,2.7181,2.7557,2.9418,3.0421,2.9575,3.0556,3.1103,3.0433,3.098,3.1626,3.2234,3.2262,3.24,3.2704,3.2731,3.2731,3.2731,3.2731,3.2731,3.2731,3.2731,3.2423,3.1979,3.1979,3.1837,3.1595,3.0999,3.0821,3.0949,3.0288,2.995,2.9811,2.995,2.995,2.9757,2.9457,2.9174,2.8932,2.8932,2.8475,2.7968,0.0,0.0,0.0,0.0,0.0,0.0,0.0,0.484,0.5169,0.6123,0.6594,0.7383,0.8731,0.9322,0.9899,1.0598,0.0,0.0,0.0,0.0,0.0,0.0,0.0,0.0,0.0,0.0,0.0,0.0,0.0,0.0,0.0,0.0,0.0,0.0,0.0,0.0,0.0,0.0,0.0,0.0,0.0,0.0,3.3479,3.297,3.2647,3.2145,3.0291,2.9055,2.8127,2.6891,2.5711,2.4812,2.4812,2.3322,2.14,2.0007,1.8742,0.0,0.0,0.0,0.0,0.0,0.0,0.0,0.0,0.0,1.7596,1.7639,1.8959,2.0019,1.9698,2.1613,2.3364,2.375,2.582,2.7364,2.7573,2.8771,2.92,2.8024,2.9699,3.0842,3.0375,3.0842,3.1469,3.2028,3.2128,3.2128,3.2128,3.2128,3.2128,3.2128,3.2128,3.2128,3.2128,3.2128,3.1812,3.128,3.128,3.1209,3.111,3.0653,3.0539,3.0751,3.0228,2.9874,2.9614,2.9614,2.9614,2.9614,2.9614,2.9542,2.9516,2.9282,2.8917,2.8499,0.0,0.0,0.0,0.0,0.0,0.0,0.0,0.0,0.4692,0.5474,0.6016,0.6602,0.7351,0.8433,0.9344,0.9926,0.0,0.0,0.0,0.0,0.0,0.0,0.0,0.0,0.0,0.0,0.0,0.0,0.0,0.0,0.0,0.0,0.0,0.0,0.0,0.0,0.0,0.0,0.0,0.0,0.0,0.0,3.3326,3.3241,3.2876,3.2145,3.0291,2.8493,2.6835,2.5598,2.4727,2.4216,2.4216,2.3575,2.2536,2.0793,0.0,1.8012,1.6179,1.5597,1.5449,1.525,1.5567,1.6315,0.0,0.0,1.9197,2.0114,2.1328,2.2061,2.1386,2.2805,2.4222,2.4587,2.5802,2.6796,2.7172,2.7203,2.692,2.6107,2.8648,3.0384,3.0355,3.0871,3.1436,3.2055,3.2128,3.2128,3.2128,3.2128,3.2128,3.2128,3.2128,3.2128,3.2128,3.2128,3.1882,3.1536,3.1536,3.1389,3.1018,3.0966,3.0966,3.097,3.0891,3.0865,3.079,3.079,3.079,3.079,3.0566,3.0517,3.0387,2.9378,2.8964,2.8912,0.0,0.0,0.0,0.0,0.0,0.0,0.0,0.0,0.0,0.5129,0.5494,0.598,0.6822,0.7873,0.8723,0.0,0.0,0.0,0.0,0.0,0.0,0.0,0.0,0.0,0.0,0.0,0.0,0.0,0.0,0.0,0.0,0.0,0.0,0.0,0.0,0.0,0.0,0.0,0.0,0.0,0.0,0.0,3.2423,3.1031,2.9957,2.9073,2.8697,2.734,0.0,0.0,2.3463,2.309,2.3378,2.2592,2.1299,2.0175,1.8967,0.0,1.6674,1.6027,0.0,0.0,1.713,1.7689,1.8877,1.9951,2.0818,2.1092,2.1918,2.2452,2.2166,2.3501,2.4632,0.0,2.6028,2.6698,2.6,2.6036,2.5601,2.4135,2.5609,2.7115,2.8052,2.8747,2.9451,3.0266,3.0367,3.0367,3.0367,3.0696,3.0872,3.0872,3.1246,3.1495,3.1495,3.1495,3.1421,3.1272,3.1272,3.1123,3.0973,3.0973,3.0973,3.0973,3.0924,3.0849,3.0849,3.0672,3.0672,3.0672,3.052,3.0546,3.0469,3.0005,2.9619,2.9263,0.0,0.0,0.0,0.0,0.0,0.0,0.0,0.0,0.0,0.0,0.5091,0.5653,0.6787,0.753,0.0,0.0,0.0,0.0,0.0,0.0,0.0,0.0,0.0,0.0,0.0,0.0,0.0,0.0,0.0,0.0,0.0,0.0,0.0,0.0,0.0,0.0,0.0,0.0,0.0,0.0,0.0,0.0,3.0868,2.8849,2.7103,2.5868,2.6348,2.5268,0.0,0.0,2.1664,2.1271,2.1889,2.1187,2.0007,1.9319,1.8142,1.6968,1.6661,0.0,0.0,1.7738,1.8455,1.908,2.028,2.1248,2.1983,2.2003,2.248,2.2865,2.2605,2.3733,2.4731,2.4872,2.5854,2.6244,2.5279,2.4981,2.4292,2.2662,2.2868,2.3746,2.518,2.6407,2.7581,2.859,2.8786,2.8909,2.9081,2.9471,2.9804,2.9955,3.0599,3.1059,3.1215,3.1394,3.1392,3.1235,3.1235,3.113,3.0924,3.0823,3.0823,3.0823,3.0698,3.0622,3.0622,3.0444,3.0368,3.0368,3.0368,3.0292,3.0292,3.0216,2.9961,2.9604,0.0,0.0,0.0,0.0,0.0,0.0,0.0,0.0,0.0,0.0,0.0,0.0,0.0,0.0,0.0,0.0,0.0,0.0,0.0,0.0,0.0,0.0,0.0,0.0,0.0,0.0,0.0,0.0,0.0,0.0,0.0,0.0,0.0,0.0,0.0,0.0,0.0,0.0,0.0,0.0,0.0,0.0,2.8486,2.7367,2.5448,2.3414,2.3414,0.0,0.0,0.0,1.9095,1.8742,1.9319,1.946,0.0,1.8675,1.7116,0.0,0.0,0.0,1.6837,1.7843,1.8924,2.0205,2.193,2.2322,2.2551,2.3204,2.3695,2.3756,2.2886,2.3506,2.4309,2.4807,2.4935,2.5142,2.5624,2.4016,2.257,2.2019,2.1101,2.0917,0.0,2.4378,2.6431,2.7582,2.81,2.8516,2.9057,2.9081,2.9352,2.9893,3.0532,3.1182,3.1686,3.2329,3.2359,3.181,3.181,3.1369,3.0698,3.052,3.0444,3.0444,3.0444,3.0444,3.0444,3.0368,3.0368,3.0368,3.0216,3.0088,3.0088,2.9856,2.9934,3.0062,0.0,0.0,0.0,0.0,0.0,0.0,0.0,0.0,0.0,0.0,0.0,0.0,0.0,0.0,0.0,0.0,0.0,0.0,0.0,0.0,0.0,0.0,0.0,0.0,0.0,0.0,0.0,0.0,0.0,0.0,0.0,0.0,0.0,0.0,0.0,0.0,0.0,0.0,0.0,0.0,0.0,0.0,2.5832,2.2841,2.1158,2.0267,0.0,0.0,0.0,0.0,0.0,0.0,1.804,0.0,0.0,1.6371,1.6273,1.6386,1.6784,0.0,1.7957,1.9453,2.0707,2.1771,2.2757,2.3295,2.341,2.2949,2.2412,2.1865,2.1296,2.1729,2.232,2.2868,2.4039,2.4636,2.381,2.4269,2.3764,2.1215,2.1514,0.0,0.0,0.0,0.0,2.5695,2.6564,2.7152,2.7396,2.8354,2.9051,2.9244,3.0155,3.0498,3.0082,3.0301,2.9948,2.9144,2.9745,3.0137,3.052,3.0444,3.0368,3.0368,3.0292,3.0216,3.0216,3.0088,3.0011,3.0011,2.9934,2.9856,2.9856,2.9779,2.9856,2.9856,0.0,0.0,0.0,0.0,0.0,0.0,0.0,0.0,0.0,0.0,0.0,0.0,0.0,0.0,0.0,0.0,0.0,0.0,0.0,0.0,0.0,0.0,0.0,0.0,0.0,0.0,0.0,0.0,0.0,0.0,0.0,0.0,0.0,0.0,0.0,0.0,0.0,0.0,0.0,0.0,0.0,0.0,2.282,1.9843,1.8558,0.0,0.0,0.0,0.0,0.0,0.0,0.0,0.0,1.634,1.5387,1.5407,1.6,1.6837,1.7583,1.8395,1.9425,2.1205,2.2005,2.2557,2.3221,2.3295,2.2923,2.1655,2.0747,2.0098,1.9817,1.976,2.0248,2.1675,2.2846,2.3418,2.3026,2.3944,2.3784,2.1547,2.2136,2.2363,0.0,0.0,0.0,2.4141,2.5256,2.6018,2.63,2.7424,2.818,2.8341,2.9423,2.9772,2.9188,2.9439,2.9154,2.8304,2.8626,2.9034,2.9588,2.9312,2.9394,2.9729,2.9574,2.9677,3.0011,2.9856,2.9804,2.9804,2.9804,2.9804,2.9804,2.9804,2.9804,2.9804,0.0,0.0,0.0,0.0,0.0,0.0,0.0,0.0,0.0,0.0,0.0,0.0,0.0,0.0,0.0,0.0,0.0,0.0,0.0,0.0,0.0,0.0,0.0,0.0,0.0,0.0,0.0,0.0,0.0,0.0,0.0,0.0,0.0,0.0,0.0,0.0,0.0,0.0,0.0,0.0,0.0,0.0,1.9528,1.8422,0.0,0.0,0.0,0.0,0.0,0.0,0.0,0.0,0.0,0.0,1.5256,1.5905,1.6347,1.6948,1.8118,1.9547,2.1142,2.2858,2.2833,2.2614,2.3314,2.2502,2.1171,1.9592,1.8904,1.8558,0.0,0.0,1.8248,2.1238,2.1491,2.1706,2.3162,2.3115,2.2844,0.0,0.0,0.0,0.0,0.0,0.0,2.2867,0.0,2.5258,2.5841,2.6387,2.6867,2.7326,2.8388,2.8969,2.8969,2.9584,2.9652,2.9183,2.8333,2.7995,2.8078,2.7346,2.7568,2.845,2.845,2.8973,2.9702,2.9779,2.9804,2.9804,2.9804,2.9804,2.9804,2.9804,2.9804,2.9804,0.0,0.0,0.0,0.0,0.0,0.0,0.0,0.0,0.0,0.0,0.0,0.0,0.0,0.0,0.0,0.0,0.0,0.0,0.0,0.0,0.0,0.0,0.0,0.0,0.0,0.0,0.0,0.0,0.0,0.0,0.0,0.0,0.0,0.0,0.0,0.0,0.0,0.0,0.0,0.0,0.0,0.0,1.782,0.0,0.0,0.0,0.0,0.0,0.0,0.0,0.0,0.0,0.0,0.0,1.5638,1.6851,1.7523,1.8288,1.9751,2.0783,2.1771,2.2983,2.2921,2.2603,2.2882,2.178,2.0395,1.9226,1.7967,1.7171,0.0,0.0,0.0,1.9479,2.0729,0.0,2.1985,2.3797,0.0,0.0,0.0,2.3709,2.3114,2.3392,0.0,0.0,2.4124,2.4916,2.5735,2.6671,2.737,2.785,2.847,2.8444,2.7731,2.6928,2.6693,2.7231,2.6657,2.6745,2.7323,2.7208,2.7221,2.7487,2.8211,2.8633,2.887,2.9546,2.9804,2.9804,2.9804,2.9804,2.9804,2.9804,2.9804,2.9804,0.0,0.0,0.0,0.0,0.0,0.0,0.0,0.0,0.0,0.0,0.0,0.0,0.0,0.0,0.0,0.0,0.0,0.0,0.0,0.0,0.0,0.0,0.0,0.0,0.0,0.0,0.0,0.0,0.0,0.0,0.0,0.0,0.0,0.0,0.0,0.0,0.0,0.0,0.0,0.0,0.0,0.0,0.0,0.0,0.0,0.0,0.0,0.0,0.0,0.0,0.0,1.6515,1.6517,1.6485,1.6671,1.8015,0.0,1.974,2.0926,2.2049,2.2975,2.3875,2.3125,2.2139,2.1834,2.033,1.8602,1.7075,1.6102,0.0,0.0,0.0,0.0,0.0,0.0,0.0,2.1754,2.3807,2.4849,0.0,2.4588,0.0,2.4255,2.427,2.4373,0.0,2.4695,2.5078,2.585,2.6598,2.711,2.7387,2.7836,2.7657,2.6725,2.5951,2.5664,2.5978,2.5615,2.5829,2.6253,2.6253,2.6373,2.6588,0.0,2.8022,2.8244,2.897,2.9108,2.8996,2.9316,2.9554,2.9554,2.9475,2.9622,2.9843,0.0,0.0,0.0,0.0,0.0,0.0,0.0,0.0,0.0,0.0,0.0,0.0,0.0,0.0,0.0,0.0,0.0,0.0,0.0,0.0,0.0,0.0,0.0,0.0,0.0,0.0,0.0,0.0,0.0,0.0,0.0,0.0,0.0,0.0,0.0,0.0,0.0,0.0,0.0,0.0,0.0,0.0,0.0,0.0,0.0,0.0,0.0,0.0,0.0,0.0,1.6892,1.7821,1.7824,1.78,1.8013,1.9294,2.0246,2.1056,2.1892,2.3049,2.4166,2.4661,2.3266,2.1493,2.0593,1.8691,1.6551,1.4547,0.0,1.4601,1.5334,0.0,1.5714,1.8533,0.0,2.0049,2.1988,2.3452,2.4519,2.502,2.5507,2.5719,2.5825,2.5466,2.5423,2.5953,2.5548,2.5501,2.5937,2.6351,2.6599,2.6662,2.6993,2.6786,2.5978,2.5854,2.5627,2.5316,2.5254,2.5233,2.5233,2.5295,2.5441,2.5717,2.678,2.7347,2.769,2.8254,2.8294,2.8012,2.874,2.9094,2.9176,2.907,2.938,2.9701,0.0,0.0,0.0,0.0,0.0,0.0,0.0,0.0,0.0,0.0,0.0,0.0,0.0,0.0,0.0,0.0,0.0,0.0,0.0,0.0,0.0,0.0,0.0,0.0,0.0,0.0,0.0,0.0,0.0,0.0,0.0,0.0,0.0,0.0,0.0,0.0,0.0,0.0,0.0,0.0,0.0,0.0,0.0,0.0,0.0,0.0,0.0,0.0,0.0,0.0,1.6574,1.7135,1.7821,1.8325,1.8973,2.0442,2.1012,2.1406,2.2754,2.3305,2.3536,2.3605,2.2474,2.1019,2.0085,1.7901,0.0,0.0,0.0,1.4628,1.5285,1.5488,0.0,1.8072,0.0,0.0,0.0,0.0,2.4534,0.0,0.0,0.0,0.0,0.0,0.0,0.0,0.0,2.6381,2.6434,2.6517,2.6744,2.7138,2.6848,2.662,2.6455,2.5709,2.5482,2.5751,2.5399,2.5233,2.5254,2.5606,2.5404,2.4828,2.6519,0.0,2.6841,2.7996,2.8414,2.8431,2.8579,2.8579,2.8688,2.8579,2.8648,2.8717,0.0,0.0,0.0,0.0,0.0,0.0,0.0,0.0,0.0,0.0,0.3921,0.0,0.0,0.0,0.0,0.0,0.0,0.0,0.0,0.0,0.0,0.0,0.0,0.0,0.0,0.0,0.0,0.0,0.0,0.0,0.0,0.0,0.0,0.0,0.0,0.0,0.0,0.0,0.0,0.0,0.0,0.0,0.0,0.0,0.0,0.0,0.0,0.0,0.0,0.0,1.5613,1.6657,1.8047,1.869,1.9195,2.0772,2.1601,2.218,2.3167,2.3738,2.4085,2.3509,2.2088,2.0366,1.8827,0.0,0.0,0.0,0.0,1.4812,1.5657,1.5858,0.0,0.0,0.0,0.0,0.0,0.0,0.0,0.0,0.0,0.0,0.0,0.0,0.0,0.0,0.0,2.6682,2.691,2.6931,2.6931,2.691,2.6682,2.6455,2.6206,2.5792,2.544,2.5192,2.5213,2.5233,2.5233,2.544,2.542,2.5275,2.6388,2.6737,2.6636,2.7558,2.7692,2.7542,2.7988,2.8254,2.8254,2.8166,2.8322,2.8544,0.0,0.0,0.0,0.0,0.0,0.0,0.0,0.0,0.4029,0.4063,0.412,0.4093,0.3873,0.407,0.0,0.0,0.0,0.0,0.0,0.0,0.0,0.0,0.0,0.0,0.0,0.0,0.0,0.0,0.0,0.0,0.0,0.0,0.0,0.0,0.0,0.0,0.0,0.0,0.0,0.0,0.0,0.0,0.0,0.0,0.0,0.0,0.0,0.0,0.0,0.0,1.4724,1.6009,1.7594,1.8391,1.9011,2.0435,2.1629,2.2662,2.3282,2.4085,2.4499,2.3397,2.1835,1.9998,1.7863,1.6371,0.0,0.0,0.0,1.5207,1.5886,0.0,0.0,0.0,0.0,0.0,0.0,0.0,0.0,0.0,0.0,0.0,0.0,0.0,0.0,0.0,0.0,0.0,2.6951,2.7055,2.6951,2.6579,2.6579,2.6392,2.602,2.5834,2.5482,2.4985,2.5233,2.542,2.5523,2.5627,2.5751,2.5916,2.6475,2.6662,2.6599,2.7076,2.7055,2.6817,2.7537,2.7791,2.7882,2.7791,2.8028,2.8258,0.0,0.0,0.0,0.0,0.0,0.0,0.0,0.0,0.407,0.416,0.4187,0.4133,0.4016,0.3907,0.0,0.0,0.0,0.0,0.0,0.0,0.0,0.0,0.0,0.0,0.0,0.0,0.0,0.0,0.0,0.0,0.0,0.0,0.0,0.0,0.0,0.0,0.0,0.0,0.0,0.0,0.0,0.0,0.0,0.0,0.0,0.0,0.0,0.0,0.0,0.0,0.0,1.4908,1.5337,1.6715,1.8359,1.9516,0.0,0.0,2.3097,2.3833,2.3902,2.2432,2.1583,2.0496,1.7955,0.0,0.0,0.0,1.5392,1.5908,1.5485,0.0,0.0,0.0,0.0,0.0,0.0,0.0,0.0,0.0,0.0,0.0,0.0,0.0,0.0,0.0,0.0,0.0,2.5999,2.6413,2.662,2.6579,2.6579,2.6558,2.6517,2.5689,2.5668,2.6372,2.5999,2.6041,2.6455,2.6889,2.6641,2.5937,2.6806,2.6951,0.0,2.7076,2.7241,2.72,2.7295,2.7389,2.7389,2.7389,2.741,2.7452,0.0,0.0,0.0,0.0,0.0,0.0,0.0,0.3482,0.4026,0.4174,0.4321,0.4287,0.405,0.3968,0.0,0.0,0.0,0.0,0.0,0.0,0.0,0.0,0.0,0.0,0.0,0.0,0.0,0.0,0.0,0.0,0.0,0.0,0.0,0.0,0.0,0.0,0.0,0.0,0.0,0.0,0.0,0.0,0.0,0.0,0.0,0.0,0.0,0.0,0.0,0.0,0.0,0.0,1.2843,1.3718,0.0,0.0,1.9838,2.1307,2.2639,2.3787,2.42,2.2386,2.1307,2.0136,1.7886,0.0,0.0,1.5729,1.6025,1.6339,1.619,0.0,0.0,0.0,0.0,0.0,0.0,0.0,0.0,0.0,0.0,0.0,0.0,0.0,0.0,0.0,0.0,0.0,2.5068,2.602,2.633,2.5771,2.6558,2.6724,2.6165,2.6082,2.6082,2.6144,2.5958,2.6123,2.6558,2.6475,2.6537,2.6724,2.6806,2.6889,0.0,2.7179,2.7262,2.7262,2.7262,2.7262,2.7262,2.7092,2.7256,2.7385,0.0,0.0,0.0,0.0,0.0,0.0,0.2494,0.3241,0.3855,0.4113,0.4307,0.43,0.405,0.3982,0.401,0.4153,0.0,0.0,0.0,0.0,0.0,0.0,0.0,0.0,0.0,0.0,0.0,0.0,0.0,0.0,0.0,0.0,0.0,0.0,0.0,0.0,0.0,0.0,0.0,0.0,0.0,0.0,0.0,0.0,0.0,0.0,0.0,0.0,0.0,0.0,0.0,0.0,0.0,0.0,0.0,0.0,1.7968,1.9659,2.1358,2.2593,2.3082,2.1551,2.0475,1.932,0.0,0.0,0.0,1.5951,1.6192,1.6437,1.6518,1.6374,1.6202,0.0,0.0,1.6333,0.0,0.0,0.0,0.0,0.0,0.0,0.0,0.0,0.0,0.0,0.0,0.0,2.455,2.5585,2.5875,2.5254,2.6413,2.6744,2.6082,2.6413,2.6475,2.6289,2.6144,2.633,2.6765,2.6434,2.6641,2.7241,2.691,2.6951,0.0,2.7262,2.7262,2.7262,2.7262,2.7262,2.7262,2.6996,2.7186,2.7455,0.0,0.0,0.0,0.0,0.0,0.0,0.0,0.2898,0.3468,0.3923,0.4107,0.414,0.4036,0.3887,0.3792,0.3792,0.0,0.0,0.0,0.0,0.0,0.0,0.0,0.0,0.0,0.0,0.0,0.741,0.7631,0.0,0.0,0.0,0.0,0.0,0.0,0.0,0.0,0.0,0.0,0.0,0.0,0.0,0.0,0.0,0.0,0.0,0.0,0.0,0.0,0.0,0.0,0.0,0.0,0.0,0.0,0.0,1.5157,1.7113,1.919,1.9832,1.986,1.9595,1.8997,1.7926,0.0,0.0,0.0,1.529,1.5777,1.6197,1.5989,1.5778,1.574,1.574,1.5254,0.0,1.6789,0.0,0.0,0.0,0.0,0.0,0.0,0.0,0.0,0.0,0.0,0.0,2.455,2.4985,2.5254,2.5233,2.6103,2.6579,2.6558,2.6579,2.6786,2.7241,2.6786,2.6806,2.7262,2.7241,2.7262,2.7262,2.7262,2.7262,0.0,2.7262,2.7262,2.7262,2.7262,2.7262,2.7262,2.6996,2.7186,2.7455,0.0,0.0,0.0,0.0,0.0,0.0,0.0,0.0,0.3234,0.3798,0.3907,0.3955,0.4016,0.388,0.3792,0.3792,0.0,0.0,0.0,0.0,0.0,0.0,0.0,0.0,0.0,0.0,0.0,0.7118,0.7517,0.7946,0.8414,0.0,0.0,0.0,0.0,0.0,0.0,0.0,0.0,0.0,0.0,0.0,0.0,0.0,0.0,0.0,0.0,0.0,0.0,0.0,0.0,0.0,0.0,0.0,0.0,1.1166,0.0,0.0,1.6732,1.7884,1.8469,1.7717,1.7793,1.7613,1.6036,0.0,0.0,0.0,0.0,1.5931,1.5526,1.541,1.5294,1.5196,1.5001,1.5269,0.0,0.0,0.0,0.0,0.0,0.0,0.0,0.0,0.0,0.0,0.0,0.0,2.3105,2.3242,2.3759,2.4671,2.5391,2.5671,2.5257,2.5257,2.5732,2.6476,2.627,2.6517,2.7262,2.7262,2.7262,2.7262,2.7262,2.7262,2.7262,2.7262,2.7262,2.7262,2.7071,2.6996,2.6976,2.6496,2.6763,2.7362,0.0,0.0,0.0,0.0,0.0,0.0,0.0,0.0,0.2792,0.337,0.3619,0.3771,0.3921,0.3799,0.3731,0.3785,0.0,0.0,0.0,0.0,0.0,0.0,0.0,0.0,0.0,0.0,0.6349,0.6774,0.7224,0.7682,0.8152,0.8578,0.8724,0.0,0.0,0.0,0.0,0.0,0.0,0.0,0.0,0.0,1.004,0.0,0.0,0.0,0.0,0.0,0.0,0.0,0.0,0.0,0.0,0.0,0.0,0.0,1.161,1.3077,0.0,1.5608,1.6229,1.5827,1.6131,0.0,0.0,0.0,0.0,0.0,0.0,0.0,1.5059,1.4883,1.4765,1.4666,1.4469,1.4621,1.5422,0.0,0.0,0.0,0.0,0.0,0.0,0.0,0.0,0.0,0.0,0.0,2.2403,2.2403,2.2843,2.3647,2.4244,2.4434,2.4069,2.4224,2.4839,2.5833,2.5465,2.5865,2.688,2.6572,2.636,2.636,2.636,2.636,0.0,2.636,2.636,2.638,2.64,2.64,2.64,2.6207,2.6646,2.734,0.0,0.0,0.0,0.0,0.0,0.0,0.0,0.0,0.0,0.0,0.0,0.3629,0.3765,0.3656,0.0,0.0,0.0,0.0,0.0,0.0,0.0,0.0,0.0,0.0,0.0,0.5653,0.5922,0.6373,0.6774,0.7224,0.7682,0.8152,0.8496,0.8643,0.8683,0.0,0.0,0.0,0.0,0.0,0.8967,0.9208,0.0,0.0,0.0,0.0,0.0,0.0,0.0,0.0,0.0,0.0,0.0,0.0,0.0,0.0,0.0,0.0,0.0,1.3027,1.331,1.3926,1.4259,1.4323,0.0,0.0,0.0,0.0,0.0,0.0,0.0,1.4369,1.4189,1.413,1.3787,1.3726,0.0,0.0,0.0,0.0,0.0,0.0,0.0,0.0,0.0,0.0,0.0,0.0,2.2227,2.2227,2.2227,2.2227,2.2692,2.29,2.3028,2.3426,2.4217,2.5322,2.4621,2.4852,2.5954,2.5178,2.4865,0.0,2.4884,2.4884,2.4884,2.4884,2.4884,2.4884,2.5392,2.5586,2.5606,2.582,2.6349,2.6976,0.0,0.0,0.0,0.0,0.0,0.0,0.0,0.0,0.0,0.0,0.0,0.3595,0.3629,0.3602,0.0,0.0,0.0,0.0,0.0,0.0,0.0,0.0,0.0,0.0,0.0,0.5351,0.5739,0.5879,0.6634,0.707,0.7182,0.8028,0.8316,0.8177,0.8357,0.0,0.0,0.0,0.0,0.0,0.8862,0.9047,0.0,0.0,0.0,0.0,1.0157,1.0488,0.0,0.0,0.0,0.0,0.0,0.0,0.0,0.0,1.0901,1.0909,1.0946,0.0,1.1877,1.1734,1.2661,1.3479,0.0,0.0,0.0,0.0,0.0,0.0,0.0,0.0,1.383,1.3692,1.3829,1.4143,1.4682,0.0,0.0,0.0,0.0,0.0,0.0,0.0,0.0,0.0,0.0,2.1356,2.0817,2.0817,2.0817,2.0817,2.0905,2.1372,2.2117,2.2318,2.2813,2.3703,2.3768,2.4127,2.4737,2.4849,2.4714,2.4449,2.4752,2.4884,2.4884,2.4884,2.4884,2.4884,2.4393,2.4196,2.4134,2.3824,2.3852,2.4235,0.0,0.0,0.0,0.0,0.0,0.0,0.0,0.0,0.0,0.0,0.0,0.0,0.0,0.0,0.0,0.0,0.0,0.0,0.0,0.0,0.0,0.0,0.0,0.0,0.0,0.4797,0.5265,0.5696,0.6167,0.6592,0.7027,0.753,0.7863,0.8013,0.8152,0.8044,0.7712,0.7961,0.8085,0.8085,0.8332,0.0,0.0,0.0,0.0,0.0,0.9686,1.0113,0.0,1.109,1.1022,1.0985,0.0,0.0,0.0,0.0,1.1139,1.1,1.0648,1.1177,1.1663,1.1288,1.2232,1.3241,0.0,0.0,0.0,0.0,0.0,0.0,0.0,0.0,0.0,1.3511,1.3836,0.0,0.0,0.0,0.0,0.0,0.0,0.0,0.0,0.0,0.0,0.0,0.0,2.0727,2.0292,2.0292,2.0292,2.0292,2.0292,2.0559,2.1133,2.1133,2.171,2.2677,2.2478,2.2866,2.3818,2.3651,2.3528,2.351,2.3727,2.3818,2.3818,2.3818,2.3719,2.3402,2.3203,2.3003,2.282,2.2825,2.3014,2.3375,0.0,0.0,0.0,0.0,0.0,0.0,0.0,0.0,0.0,0.0,0.0,0.0,0.0,0.0,0.0,0.0,0.0,0.0,0.0,0.0,0.0,0.0,0.0,0.0,0.4184,0.4272,0.4709,0.561,0.5728,0.6217,0.6967,0.7092,0.7405,0.7904,0.7946,0.7821,0.767,0.767,0.7712,0.7712,0.7712,0.0,0.0,0.0,0.0,0.0,0.0,0.0,0.0,1.0397,1.0391,1.0538,1.1562,0.0,0.0,0.0,0.0,0.0,1.0828,1.1298,1.185,1.1447,1.2255,1.3131,0.0,0.0,0.0,0.0,0.0,0.0,0.0,0.0,0.0,0.0,0.0,0.0,0.0,0.0,0.0,0.0,0.0,0.0,0.0,0.0,0.0,0.0,0.0,2.0292,2.0292,2.0292,2.0292,2.0292,2.0292,2.0292,2.0292,2.0292,2.0828,2.1841,2.1229,2.1613,2.2955,2.2247,2.2175,2.2466,0.0,0.0,2.2653,2.2653,2.2333,2.1827,2.2131,2.2013,2.1591,2.1945,2.2465,2.2917,0.0,0.0,0.0,0.0,0.0,0.0,0.0,0.0,0.0,0.0,0.0,0.0,0.0,0.0,0.0,0.0,0.0,0.0,0.0,0.0,0.0,0.0,0.0,0.3626,0.3714,0.4104,0.4578,0.5091,0.597,0.6544,0.6834,0.7413,0.763,0.7489,0.767,0.7628,0.7461,0.7628,0.7712,0.7712,0.7712,0.0,0.0,0.0,0.0,0.0,0.0,0.0,0.0,1.0034,1.0097,1.0314,1.0785,0.0,0.0,0.0,0.0,0.0,1.0238,1.0545,1.1091,1.0727,1.1474,1.219,0.0,0.0,0.0,0.0,0.0,0.0,0.0,0.0,0.0,0.0,0.0,0.0,0.0,0.0,0.0,0.0,0.0,0.0,0.0,0.0,0.0,0.0,0.0,2.0292,2.0292,2.0292,2.0292,2.0292,2.0292,2.0292,2.0292,2.0292,2.0572,2.106,2.0967,2.1191,2.17,2.1948,2.2021,2.209,0.0,2.2653,2.2653,2.2653,2.2552,2.2333,2.1522,2.113,2.0956,2.0406,2.0272,2.0347,0.0,0.0,0.0,0.0,0.0,0.0,0.0,0.0,0.0,0.0,0.0,0.0,0.0,0.0,0.0,0.0,0.0,0.0,0.0,0.0,0.0,0.0,0.3581,0.3581,0.3581,0.3961,0.4369,0.4836,0.5867,0.643,0.6639,0.727,0.7339,0.6943,0.7461,0.7545,0.7293,0.7587,0.7712,0.7712,0.0,0.0,0.0,0.0,0.0,0.0,0.0,0.0,0.0,0.0,0.9469,0.9565,1.0426,0.0,0.0,0.0,0.0,0.0,0.9911,1.0027,1.0272,1.0477,1.1149,0.0,0.0,0.0,0.0,0.0,0.0,0.0,0.0,0.0,0.0,0.0,0.0,0.0,0.0,0.0,0.0,0.0,0.0,0.0,0.0,0.0,0.0,0.0,0.0,2.0292,2.0292,2.0292,2.0292,2.0292,2.0292,2.0292,2.0292,2.0292,2.0377,2.0566,2.0566,2.0754,2.1131,2.1319,2.161,2.2004,0.0,2.2364,2.2653,2.2653,2.2249,2.164,2.113,2.0514,2.0043,1.9849,1.9652,1.952,0.0,0.0,0.0,0.0,0.0,0.0,0.0,0.0,0.0,0.0,0.0,0.0,0.0,0.0,0.0,0.0,0.0,0.0,0.0,0.0,0.3581,0.3581,0.3581,0.3595,0.3629,0.3887,0.4228,0.4765,0.565,0.626,0.6565,0.7097,0.702,0.6477,0.7125,0.7293,0.7041,0.7335,0.7503,0.7587,0.0,0.0,0.0,0.0,0.0,0.0,0.0,0.0,0.0,0.0,0.0,0.0,0.0,0.0,0.0,0.9572,0.9576,0.9607,0.9557,0.9475,0.952,0.0,0.0,0.0,0.0,0.0,0.0,0.0,0.0,0.0,0.0,0.0,0.0,0.0,0.0,0.0,0.0,0.0,0.0,0.0,0.0,0.0,0.0,0.0,0.0,0.0,2.0292,2.0292,2.0292,2.0292,2.0292,2.0292,2.0292,2.0292,2.0292,2.0201,2.0201,2.0292,2.0292,2.0497,2.0874,2.0874,2.1285,2.2004,2.2004,2.221,2.2653,2.2653,2.203,2.1113,2.0925,2.0205,1.9316,1.9638,1.955,1.933,0.0,0.0,0.0,0.0,0.0,0.0,0.0,0.0,0.0,0.0,0.0,0.0,0.0,0.0,0.0,0.0,0.0,0.0,0.0,0.0,0.3581,0.3581,0.3581,0.3643,0.3771,0.3934,0.4285,0.4896,0.5456,0.6064,0.6678,0.706,0.6948,0.6416,0.6532,0.6562,0.6562,0.6732,0.6943,0.7209,0.7209,0.0,0.0,0.0,0.0,0.0,0.0,0.0,0.0,0.0,0.0,0.0,0.0,0.0,0.951,0.904,0.9197,0.951,0.8988,0.8844,0.8871,0.0,0.0,0.0,0.0,0.0,0.0,0.0,0.0,0.0,0.0,0.0,0.0,0.0,0.0,0.0,0.0,0.0,0.0,0.0,0.0,0.0,0.0,0.0,0.0,2.0292,2.0292,2.0292,2.0292,2.0292,2.0292,2.0292,2.0292,2.0292,2.0292,1.9837,1.982,2.0292,2.0292,2.0497,2.0874,2.0874,2.1285,2.2004,2.2004,2.221,2.2653,2.2653,2.2232,2.1623,2.1113,2.0205,1.9316,1.9638,1.955,1.933,0.0,0.0,0.0,0.0,0.0,0.0,0.0,0.0,0.0,0.0,0.0,0.0,0.0,0.0,0.0,0.0,0.0,0.0,0.0,0.0,0.3581,0.3581,0.3581,0.3649,0.3785,0.4124,0.4476,0.4797,0.5528,0.6171,0.6729,0.6871,0.6711,0.6276,0.6435,0.6489,0.6447,0.6605,0.6774,0.6914,0.7358,0.7683,0.0,0.0,0.0,0.0,0.0,0.0,0.0,0.0,0.8465,0.8301,0.0,0.8976,0.9054,0.8857,0.8962,0.9054,0.8857,0.8938,0.907,0.0,0.0,0.0,0.0,0.0,0.0,0.0,0.0,0.0,0.0,0.0,0.0,0.0,0.0,0.0,0.0,0.0,0.0,0.0,0.0,0.0,0.0,0.0,2.0292,2.0292,2.0019,1.982,1.982,1.9563,1.9379,1.9379,1.9379,1.9379,1.9379,1.9196,1.9196,1.9379,1.9379,1.9445,1.9592,1.9962,2.0456,2.1256,2.1548,2.1987,2.2653,2.2653,2.2046,2.113,2.0205,1.9687,1.9286,1.9418,1.9389,1.9286,0.0,0.0,0.0,0.0,0.0,0.0,0.0,0.0,0.0,0.0,0.0,0.0,0.0,0.0,0.0,0.0,0.0,0.0,0.0,0.0,0.3581,0.3581,0.3581,0.367,0.386,0.4165,0.4395,0.4551,0.5475,0.6025,0.6256,0.6602,0.6663,0.6395,0.6439,0.6439,0.6407,0.6522,0.663,0.6668,0.7212,0.7655,0.0,0.0,0.0,0.0,0.0,0.0,0.0,0.0,0.8594,0.0,0.0,0.0,0.0,0.8804,0.8804,0.8804,0.8752,0.891,0.9118,0.0,0.0,0.0,0.0,0.0,0.0,0.0,0.0,0.0,0.0,0.0,0.0,0.0,0.0,0.0,0.0,0.0,0.0,0.0,0.0,0.0,0.0,1.9355,1.9429,1.9274,1.9092,1.8959,1.878,1.8535,1.8442,1.8442,1.8442,1.8442,1.8442,1.8071,1.7978,1.8164,1.8071,1.8257,1.8827,1.9363,1.9893,2.0295,2.1066,2.1684,2.218,2.2501,2.1945,2.0822,1.9687,1.9272,1.9272,1.9272,1.9272,1.9272,0.0,0.0,0.0,0.0,0.0,0.0,0.0,0.0,0.0,0.0,0.0,0.0,0.0,0.0,0.0,0.0,0.0,0.0,0.0,0.3581,0.3581,0.3581,0.3581,0.3717,0.4009,0.4016,0.404,0.4194,0.5284,0.5589,0.5236,0.6304,0.6805,0.6805,0.6532,0.6396,0.6407,0.6384,0.6435,0.6532,0.6812,0.756,0.85,0.0,0.0,0.0,0.0,0.0,0.0,0.0,0.8366,0.0,0.0,0.0,0.0,0.8804,0.8804,0.8752,0.8633,0.8802,0.0,0.0,0.0,0.0,0.0,0.0,0.0,0.0,0.0,0.0,0.0,0.0,0.0,0.0,0.0,0.0,0.0,0.0,0.0,0.0,0.0,0.0,1.6904,1.7409,1.7523,1.698,1.7447,1.7493,1.6879,1.739,1.7684,1.7684,1.7684,1.7684,1.7684,1.6452,1.617,1.6842,1.6372,1.7124,1.8827,1.9363,1.9467,1.9447,2.0774,2.1337,2.1329,2.2197,2.1928,2.0822,1.9687,1.9272,1.9272,1.9272,1.9272,1.9272,0.0,0.0,0.0,0.0,0.0,0.0,0.0,0.0,0.0,0.0,0.0,0.0,0.0,0.0,0.0,0.0,0.0,0.0,0.0,0.3581,0.3581,0.3581,0.3581,0.3622,0.371,0.371,0.3887,0.4194,0.4743,0.5101,0.5236,0.5973,0.6487,0.6817,0.0,0.6694,0.6658,0.6508,0.6401,0.649,0.7031,0.7635,0.8163,0.0,0.0,0.0,0.0,0.0,0.0,0.0,0.0,0.0,0.0,0.0,0.0,0.8804,0.8951,0.9057,0.8893,0.0,0.0,0.0,0.0,0.0,0.0,0.0,0.0,0.0,0.0,0.0,0.0,0.0,0.0,0.0,0.0,0.0,0.0,0.0,0.0,0.0,0.0,1.658,1.658,1.6757,1.6727,1.6388,1.6411,1.6204,1.5841,1.5873,1.59,1.59,1.59,1.59,1.59,1.552,1.5425,1.5615,1.552,1.5994,1.6951,1.7498,1.7604,1.7626,1.9279,1.985,1.9493,1.9391,1.9124,1.8826,1.8513,1.8003,1.7582,1.8199,1.8408,1.845,0.0,0.0,0.0,0.0,0.0,0.0,0.0,0.0,0.0,0.0,0.353,0.3537,0.0,0.0,0.0,0.0,0.0,0.0,0.0,0.0,0.3581,0.3581,0.3581,0.3581,0.3581,0.3636,0.3771,0.3982,0.4379,0.4794,0.5115,0.0,0.6439,0.6975,0.0,0.6921,0.6921,0.6773,0.6611,0.6546,0.7092,0.7494,0.7908,0.0,0.0,0.0,0.0,0.0,0.0,0.0,0.0,0.0,0.0,0.0,0.0,0.8752,0.8897,0.9079,0.8912,0.0,0.0,0.0,0.0,0.0,0.0,0.0,0.0,0.0,0.0,0.0,0.0,0.0,0.0,0.0,0.0,0.0,0.0,0.0,0.0,0.0,0.0,1.5014,1.4838,1.5081,1.514,1.4736,1.4821,1.4747,1.4347,1.4427,1.4564,1.4663,1.458,1.458,1.458,1.4292,1.4292,1.458,1.458,1.4854,1.533,1.6089,1.6279,1.6143,1.7836,1.864,1.8729,1.8248,1.7989,1.7989,1.7569,1.7147,1.6736,1.7252,1.7463,1.7503,0.0,0.0,0.2915,0.3049,0.0,0.0,0.0,0.0,0.0,0.0,0.3398,0.3442,0.0,0.0,0.0,0.0,0.0,0.0,0.0,0.0,0.3581,0.3581,0.3581,0.3581,0.3581,0.3704,0.371,0.3581,0.4153,0.4659,0.0,0.0,0.659,0.7206,0.0,0.7184,0.7206,0.7158,0.6966,0.6732,0.6999,0.7354,0.7729,0.8156,0.0,0.0,0.0,0.0,0.0,0.0,0.0,0.0,0.0,0.0,0.8752,0.8633,0.8788,0.8981,0.0,0.0,0.0,0.0,0.0,0.0,0.0,0.0,0.0,0.0,0.0,0.0,0.0,0.0,0.0,0.0,0.0,0.0,0.0,0.0,0.0,0.0,1.285,1.2622,1.238,1.2905,1.3028,1.2357,1.2909,1.3135,1.2703,1.3205,1.352,1.3765,1.3776,1.3788,1.3811,1.3147,1.3147,1.3811,1.3811,1.3811,1.3811,1.5045,1.5439,1.5217,1.6348,1.7566,1.8571,1.7956,1.7779,1.7674,1.6935,1.6524,1.6524,1.6524,1.663,1.6668,0.0,0.0,0.2732,0.2915,0.0,0.0,0.0,0.0,0.0,0.0,0.0,0.0,0.0,0.0,0.0,0.0,0.0,0.0,0.0,0.0,0.3581,0.3581,0.3581,0.3581,0.3581,0.3609,0.3609,0.3581,0.3941,0.0,0.0,0.0,0.0,0.7271,0.0,0.7393,0.7298,0.7171,0.7052,0.7009,0.7063,0.7354,0.7729,0.7836,0.8103,0.0,0.0,0.0,0.0,0.0,0.0,0.0,0.8804,0.8804,0.8752,0.8633,0.8788,0.8963,0.0,0.0,0.0,0.0,0.0,0.0,0.0,0.0,0.0,0.0,0.0,0.0,0.0,0.0,0.0,0.0,0.0,0.0,0.0,0.0,0.0,1.2533,1.2225,1.1985,1.2106,1.2047,1.2001,1.1847,1.2124,1.2182,1.1934,1.221,1.251,1.2764,1.2669,1.2863,1.305,1.2856,1.2856,1.305,1.305,1.305,1.305,1.3908,1.4678,1.5193,1.5161,1.5944,1.7128,1.6082,1.5672,1.5672,1.5779,1.5351,1.4826,1.5458,1.5767,1.5839,0.0,0.0,0.0,0.0,0.0,0.0,0.0,0.0,0.0,0.0,0.0,0.0,0.0,0.0,0.0,0.0,0.0,0.0,0.3398,0.3398,0.3442,0.3486,0.3486,0.353,0.3581,0.3581,0.3714,0.3928,0.0,0.0,0.0,0.0,0.0,0.7302,0.0,0.7365,0.7311,0.7139,0.7085,0.7085,0.7085,0.7246,0.7461,0.761,0.7676,0.761,0.7771,0.0,0.0,0.0,0.0,0.0,0.0,0.0,0.8315,0.8474,0.845,0.8446,0.0,0.0,0.0,0.0,0.0,0.0,0.0,0.0,0.0,0.0,0.0,0.0,0.0,0.0,0.0,0.0,0.0,0.0,0.0,0.0,0.0,1.1755,1.1475,1.1415,1.1494,1.1394,1.1427,1.151,1.1641,1.1673,1.1693,1.1811,1.1995,1.2231,1.235,1.2414,1.2414,1.2651,1.2705,1.2597,1.2716,1.2759,1.2759,1.3244,1.3785,1.4424,1.4456,1.5088,1.5934,1.5305,1.5041,1.5041,1.4934,1.4611,1.4299,1.4719,1.4922,1.5098,0.0,0.0,0.0,0.0,0.0,0.0,0.0,0.0,0.0,0.0,0.0,0.0,0.0,0.0,0.0,0.0,0.0,0.0,0.3214,0.3214,0.3258,0.3353,0.3353,0.3486,0.3663,0.3663,0.3928,0.0,0.0,0.0,0.0,0.0,0.0,0.7321,0.0,0.7257,0.7257,0.7139,0.7085,0.7085,0.7085,0.7085,0.7085,0.7396,0.7106,0.6656,0.7171,0.7052,0.6699,0.7374,0.0,0.0,0.0,0.0,0.7676,0.7996,0.7816,0.7644,0.0,0.0,0.0,0.0,0.0,0.0,0.0,0.0,0.0,0.0,0.0,0.0,0.0,0.0,0.0,0.0,0.0,0.0,0.0,0.0,1.1203,1.1042,1.0928,1.0913,1.0896,1.0885,1.0982,1.1262,1.1284,1.1392,1.1628,1.1639,1.1747,1.1984,1.2188,1.2117,1.1865,1.2436,1.247,1.2131,1.2555,1.2759,1.2759,1.2759,1.305,1.3374,1.4013,1.4523,1.4874,1.4931,1.4938,1.4866,1.4341,1.4159,1.4191,1.4191,1.4407,1.4678,0.0,0.0,0.0,0.0,0.0,0.0,0.0,0.0,0.0,0.0,0.2948,0.2993,0.0,0.0,0.317,0.3031,0.3126,0.3214,0.3214,0.0,0.0,0.3214,0.3214,0.348,0.4008,0.4052,0.4308,0.0,0.0,0.0,0.0,0.0,0.0,0.732,0.0,0.0,0.7139,0.7085,0.7085,0.7085,0.7085,0.6977,0.6761,0.6815,0.6531,0.6087,0.6054,0.6212,0.6431,0.6411,0.675,0.0,0.0,0.0,0.7139,0.6912,0.6771,0.0,0.0,0.0,0.0,0.0,0.0,0.0,0.0,0.0,0.0,0.0,0.0,0.0,0.0,0.0,0.0,0.0,0.0,0.0,0.0,0.0,1.1042,1.0961,1.0625,1.0433,1.0659,1.0498,1.0562,1.1004,1.1036,1.1144,1.1381,1.1316,1.151,1.1736,1.1779,1.1504,1.0823,1.1733,1.1859,1.1172,1.2255,1.2759,1.2759,1.2759,1.2856,1.2975,1.3633,1.3956,1.4079,1.4265,1.4516,1.4616,1.4079,1.4008,1.4191,1.4191,1.4407,1.4678,0.0,0.0,0.0,0.0,0.0,0.0,0.0,0.0,0.0,0.0,0.0,0.2954,0.0,0.0,0.2998,0.2954,0.2998,0.3126,0.3391,0.3462,0.3611,0.3884,0.3877,0.4052,0.4351,0.4395,0.0,0.0,0.0,0.0,0.0,0.6922,0.7203,0.0,0.0,0.0,0.0,0.0,0.7085,0.7074,0.6839,0.6701,0.6686,0.6405,0.612,0.5891,0.5819,0.5783,0.5828,0.6126,0.6372,0.6642,0.6912,0.0,0.0,0.0,0.6199,0.0,0.0,0.0,0.0,0.0,0.0,0.0,0.0,0.0,0.0,0.0,0.0,0.0,0.0,0.0,0.0,0.0,0.0,0.0,0.0,0.0,0.9839,1.0317,0.9436,0.8999,0.9687,0.9817,0.9715,0.9527,1.0084,1.0449,1.0472,1.0028,0.9989,1.07,1.0365,0.9876,0.94,1.0159,1.066,1.0972,1.1547,1.1849,1.196,1.2565,1.2856,1.2964,1.3501,1.3891,1.4329,1.4129,1.4412,1.4752,1.4079,1.3976,1.4191,1.4407,1.4504,1.4656,0.0,0.0,0.0,0.0,0.0,0.0,0.0,0.0,0.0,0.0,0.0,0.0,0.0,0.0,0.0,0.0,0.3135,0.3409,0.3904,0.4019,0.4174,0.4554,0.441,0.4431,0.4648,0.4515,0.0,0.0,0.0,0.0,0.6396,0.6817,0.6933,0.0,0.7031,0.0,0.0,0.0,0.0,0.0,0.647,0.6405,0.6416,0.611,0.5792,0.5621,0.5664,0.5492,0.5341,0.5819,0.5937,0.5991,0.6317,0.6046,0.0,0.0,0.0,0.0,0.0,0.0,0.0,0.0,0.0,0.0,0.0,0.0,0.0,0.0,0.0,0.0,0.0,0.0,0.0,0.0,0.0,0.0,0.0,0.8922,0.8618,0.9226,0.8228,0.7829,0.8599,0.8871,0.8746,0.8354,0.906,0.9452,0.9506,0.8894,0.8807,0.9506,0.9021,0.8585,0.8105,0.8619,0.9418,1.0518,1.0619,1.0738,1.0779,1.158,1.2262,1.2662,1.3139,1.3857,1.4488,1.3914,1.4185,1.4718,1.3937,1.3825,1.4094,1.4415,1.4556,1.4633,0.0,0.0,0.0,0.0,0.0,0.0,0.0,0.0,0.0,0.0,0.0,0.0,0.0,0.3008,0.3058,0.3152,0.3692,0.4284,0.4882,0.4939,0.4939,0.498,0.4432,0.0,0.0,0.0,0.0,0.0,0.0,0.0,0.5751,0.6125,0.5937,0.5445,0.6588,0.6977,0.6707,0.0,0.0,0.0,0.6199,0.6046,0.5845,0.5837,0.5507,0.5169,0.5295,0.5247,0.5125,0.5295,0.5242,0.5179,0.5179,0.5069,0.4897,0.0,0.0,0.0,0.0,0.0,0.0,0.0,0.0,0.0,0.0,0.0,0.0,0.0,0.0,0.0,0.0,0.0,0.0,0.0,0.0,0.0,0.0,0.8084,0.754,0.7617,0.754,0.754,0.7557,0.7642,0.7821,0.7992,0.8178,0.8357,0.8536,0.8544,0.8544,0.8544,0.8552,0.8113,0.7136,0.7618,0.8239,0.9189,0.9526,0.9698,0.9706,0.9706,1.0288,1.1365,1.2565,1.34,1.391,1.3378,1.3568,1.4287,1.3434,1.3427,1.3836,1.4162,1.4412,1.4752,0.0,0.0,0.0,0.0,0.0,0.0,0.0,0.0,0.0,0.0,0.0,0.0,0.0,0.2873,0.2873,0.2923,0.364,0.4111,0.4165,0.5065,0.5485,0.5349,0.5496,0.0,0.0,0.0,0.0,0.0,0.0,0.6097,0.6106,0.6395,0.6317,0.5882,0.6534,0.6598,0.6154,0.6317,0.0,0.0,0.5854,0.5784,0.5782,0.0,0.0,0.0,0.0,0.0,0.0,0.5289,0.5274,0.5061,0.5011,0.4882,0.4739,0.4629,0.0,0.0,0.0,0.0,0.0,0.0,0.0,0.0,0.0,0.0,0.0,0.0,0.0,0.0,0.0,0.0,0.0,0.0,0.0,0.0,0.0,0.7234,0.685,0.7464,0.6549,0.6086,0.6626,0.6936,0.6873,0.635,0.7083,0.7512,0.7577,0.7054,0.6966,0.7577,0.7054,0.6567,0.6292,0.6471,0.7163,0.8292,0.8401,0.8517,0.8619,0.9312,0.941,0.9205,1.0386,1.1697,1.2993,1.2954,1.3039,1.3243,1.3373,1.3545,1.3836,1.4316,1.4534,1.4719,0.0,0.0,0.0,0.0,0.0,0.1887,0.0,0.0,0.0,0.0,0.0,0.0,0.0,0.0,0.339,0.3597,0.4141,0.4523,0.4525,0.5457,0.5944,0.5742,0.5904,0.0,0.0,0.0,0.0,0.0,0.0,0.0,0.0,0.0,0.5991,0.5664,0.6164,0.6164,0.0,0.0,0.0,0.5873,0.0,0.5462,0.5572,0.0,0.0,0.0,0.0,0.0,0.0,0.0,0.0,0.0,0.0,0.0,0.0,0.0,0.0,0.0,0.0,0.0,0.0,0.0,0.0,0.0,0.0,0.0,0.0,0.0,0.0,0.0,0.0,0.0,0.0,0.0,0.0,0.0,0.0,0.6318,0.6009,0.6626,0.5705,0.5263,0.5846,0.614,0.605,0.551,0.6138,0.0,0.6612,0.5997,0.5997,0.6612,0.6037,0.5828,0.5899,0.5986,0.6478,0.7318,0.7362,0.7334,0.7528,0.8223,0.8322,0.8024,0.8718,1.0103,1.1873,1.1865,1.2183,1.2618,1.276,1.3222,1.3728,1.4301,1.4574,1.4708,0.0,0.072,0.0773,0.104,0.1229,0.138,0.0,0.0,0.0,0.0,0.0,0.0,0.0,0.0,0.0,0.5226,0.5281,0.5555,0.61,0.6154,0.6209,0.6154,0.5609,0.0,0.0,0.0,0.0,0.0,0.0,0.0,0.0,0.0,0.5007,0.0,0.5407,0.5791,0.5791,0.0,0.5572,0.5297,0.0,0.5195,0.5266,0.0,0.0,0.0,0.5412,0.5411,0.0,0.5419,0.0,0.0,0.0,0.0,0.0,0.0,0.0,0.0,0.0,0.0,0.0,0.0,0.0,0.0,0.0,0.0,0.0,0.0,0.0,0.0,0.0,0.0,0.0,0.0,0.0,0.0,0.0,0.5479,0.5018,0.5018,0.5018,0.5067,0.5175,0.5301,0.5426,0.5454,0.5665,0.5735,0.5735,0.5735,0.5735,0.5735,0.5844,0.5904,0.5909,0.6149,0.6268,0.6274,0.6382,0.6437,0.6437,0.6437,0.693,0.7925,0.7925,0.8999,1.065,1.0169,1.0906,1.2274,1.1776,1.2363,1.348,1.4095,1.441,1.4708,0.072,0.072,0.0729,0.0853,0.1132,0.1482,0.0,0.0,0.0,0.0,0.0,0.0,0.0,0.0,0.0,0.4353,0.4849,0.5062,0.478,0.5655,0.5991,0.5555,0.5828,0.0,0.0,0.0,0.0,0.0,0.0,0.0,0.0,0.0,0.0,0.0,0.5069,0.5124,0.5179,0.5234,0.0,0.0,0.5088,0.514,0.0,0.0,0.0,0.0,0.0,0.5325,0.5213,0.0,0.513,0.4697,0.0,0.0,0.0,0.0,0.0,0.0,0.4076,0.0,0.0,0.0,0.0,0.0,0.3896,0.3892,0.3903,0.0,0.0,0.0,0.0,0.0,0.0,0.0,0.0,0.0,0.0,0.5168,0.5018,0.5018,0.5089,0.5154,0.5181,0.5377,0.5513,0.0,0.5665,0.5735,0.5735,0.5735,0.5735,0.5735,0.5844,0.5947,0.6034,0.6192,0.6312,0.6388,0.642,0.6437,0.6437,0.6437,0.6537,0.683,0.683,0.7347,0.8279,0.9327,0.9739,0.9904,1.1336,1.2016,1.2565,1.3952,1.4702,1.4934,0.072,0.072,0.0732,0.0774,0.1208,0.1679,0.0,0.0,0.0,0.0,0.0,0.0,0.0,0.0,0.0,0.4596,0.4876,0.4975,0.4704,0.5306,0.5534,0.5218,0.5487,0.0,0.0,0.0,0.0,0.0,0.0,0.0,0.0,0.0,0.0,0.0,0.0,0.0,0.0,0.0,0.0,0.0,0.4925,0.0,0.0,0.5157,0.51,0.0,0.0,0.0,0.4984,0.5134,0.4945,0.0,0.0,0.0,0.0,0.0,0.0,0.0,0.0,0.0,0.0,0.0,0.0,0.0,0.3738,0.3776,0.3865,0.0,0.0,0.0,0.0,0.0,0.0,0.0,0.0,0.0,0.0,0.0,0.5018,0.5018,0.5072,0.5154,0.5252,0.5393,0.5518,0.5621,0.5692,0.5735,0.5735,0.5735,0.5757,0.5801,0.592,0.604,0.6159,0.6279,0.6372,0.6437,0.6437,0.6437,0.6437,0.6437,0.6437,0.6437,0.6437,0.6637,0.7141,0.8031,0.8564,0.9045,1.0255,1.0949,1.1431,1.3062,1.3976,1.4385,0.0,0.0775,0.0887,0.0952,0.1566,0.0,0.0,0.0,0.0,0.0,0.0,0.0,0.0,0.0,0.0,0.0,0.5262,0.5181,0.5396,0.5121,0.0,0.0,0.0,0.0,0.0,0.0,0.0,0.0,0.0,0.0,0.0,0.0,0.0,0.0,0.4842,0.4739,0.0,0.0,0.0,0.4991,0.4798,0.4834,0.0,0.0,0.4904,0.4875,0.5003,0.496,0.4761,0.4749,0.4671,0.0,0.0,0.0,0.0,0.0,0.3989,0.0,0.0,0.0,0.0,0.0,0.3831,0.0,0.3648,0.3749,0.3848,0.3909,0.0,0.0,0.0,0.0,0.0,0.0,0.0,0.0,0.0,0.0,0.5018,0.5018,0.504,0.5137,0.5349,0.5393,0.5502,0.5719,0.5735,0.5735,0.5735,0.5746,0.5801,0.5899,0.6034,0.6159,0.6268,0.6382,0.6437,0.6437,0.6437,0.6437,0.6437,0.6437,0.6437,0.6437,0.6437,0.6537,0.6848,0.6859,0.7636,0.8772,0.8991,0.9495,1.0305,1.1921,1.2909,1.3511,0.0395,0.1134,0.1799,0.1986,0.0,0.0,0.0,0.0,0.0,0.0,0.0,0.0,0.0,0.0,0.0,0.0,0.0,0.5366,0.5404,0.0,0.0,0.0,0.0,0.0,0.0,0.0,0.0,0.0,0.0,0.0,0.0,0.0,0.0,0.0,0.0,0.0,0.0,0.0,0.0,0.4556,0.4597,0.0,0.4942,0.4829,0.482,0.4826,0.4875,0.4827,0.4749,0.4576,0.4528,0.4558,0.0,0.0,0.0,0.408,0.0,0.0,0.0,0.0,0.0,0.0,0.3898,0.0,0.3871,0.3806,0.3848,0.0,0.0,0.0,0.0,0.0,0.0,0.0,0.0,0.0,0.0,0.0,0.5018,0.5018,0.5186,0.5317,0.5366,0.5545,0.5681,0.573,0.5735,0.5735,0.5735,0.5817,0.5882,0.5904,0.6116,0.6246,0.6268,0.6382,0.6437,0.6437,0.6437,0.6437,0.6437,0.6437,0.6437,0.6437,0.6437,0.6537,0.6853,0.716,0.7425,0.7455,0.8598,0.8962,0.9348,1.1864,1.3038,1.3532,0.0155,0.1191,0.2216,0.2777,0.0,0.0,0.0,0.0,0.0,0.0,0.0,0.0,0.0,0.0,0.0,0.0,0.0,0.0,0.0,0.0,0.0,0.0,0.0,0.0,0.0,0.0,0.0,0.0,0.0,0.0,0.0,0.0,0.0,0.0,0.0,0.0,0.0,0.0,0.4241,0.4412,0.4411,0.0,0.4772,0.4779,0.4725,0.4552,0.4681,0.4722,0.4648,0.4517,0.4467,0.0,0.4246,0.4164,0.4115,0.0,0.4072,0.4028,0.0,0.0,0.0,0.3914,0.3898,0.0,0.0,0.3711,0.3761,0.3753,0.0,0.0,0.0,0.0,0.0,0.0,0.0,0.0,0.0,0.0,0.0,0.4701,0.4929,0.5141,0.5277,0.5448,0.5665,0.573,0.5735,0.5735,0.5735,0.5839,0.5931,0.5991,0.617,0.6295,0.635,0.641,0.6437,0.6437,0.6437,0.6437,0.6437,0.6437,0.6437,0.6437,0.6437,0.6437,0.6648,0.7082,0.7176,0.7142,0.8111,0.8246,0.8272,1.0858,1.2156,1.2918,0.081,0.1529,0.2464,0.3569,0.0,0.0,0.0,0.0,0.0,0.0,0.0,0.0,0.0,0.0,0.0,0.0,0.0,0.0,0.0,0.0,0.0,0.0,0.0,0.4882,0.0,0.0,0.0,0.0,0.0,0.0,0.0,0.0,0.0,0.0,0.0,0.0,0.0,0.0,0.0,0.4403,0.0,0.4368,0.4616,0.4683,0.4604,0.435,0.4637,0.4647,0.4507,0.4507,0.4518,0.4518,0.4404,0.4233,0.0,0.0,0.0,0.0,0.0,0.0,0.0,0.0,0.0,0.3929,0.0,0.0,0.0,0.0,0.0,0.0,0.0,0.0,0.0,0.0,0.0,0.0,0.0,0.0,0.0,0.4351,0.4609,0.489,0.5017,0.5326,0.5539,0.5725,0.5735,0.5741,0.5763,0.5877,0.5996,0.6116,0.6236,0.6344,0.6437,0.6437,0.6437,0.6437,0.6437,0.6437,0.6437,0.6437,0.6437,0.6437,0.6437,0.6448,0.648,0.6913,0.7044,0.7157,0.7582,0.7483,0.7598,0.9904,1.1219,1.2163,0.3798,0.2918,0.2631,0.425,0.0,0.0,0.0,0.0,0.0,0.0,0.0,0.0,0.0,0.0,0.0,0.0,0.0,0.0,0.5274,0.0,0.0,0.0,0.0,0.0,0.4785,0.0,0.0,0.0,0.0,0.0,0.0,0.0,0.0,0.0,0.423,0.0,0.0,0.0,0.4273,0.0,0.4461,0.4546,0.0,0.454,0.4511,0.4516,0.4654,0.4704,0.4704,0.0,0.4703,0.4694,0.0,0.4385,0.4283,0.3978,0.0,0.0,0.0,0.0,0.0,0.0,0.3808,0.3779,0.3613,0.0,0.357,0.3423,0.0,0.0,0.0,0.0,0.0,0.0,0.0,0.0,0.3334,0.0,0.0,0.4242,0.4419,0.4559,0.4768,0.514,0.5447,0.5641,0.5735,0.5779,0.5877,0.5996,0.6121,0.6241,0.6355,0.6426,0.6437,0.6437,0.6437,0.6437,0.6437,0.6437,0.6437,0.6437,0.6437,0.6437,0.6437,0.6497,0.6611,0.7044,0.7063,0.7072,0.73,0.7494,0.7826,0.9904,1.1109,1.1966,0.3162,0.3224,0.3639,0.4534,0.0,0.0,0.0,0.0,0.0,0.0,0.0,0.0,0.0,0.0,0.0,0.0,0.0,0.5084,0.0,0.0,0.0,0.0,0.0,0.0,0.0,0.0,0.0,0.0,0.4552,0.0,0.0,0.0,0.0,0.0,0.4277,0.0,0.423,0.0,0.4344,0.0,0.0,0.0,0.0,0.461,0.4681,0.4686,0.4588,0.4604,0.454,0.0,0.4473,0.0,0.0,0.0,0.0,0.4004,0.0,0.0,0.0,0.0,0.0,0.0,0.0,0.0,0.363,0.3604,0.3659,0.3483,0.0,0.0,0.0,0.0,0.0,0.0,0.3324,0.0,0.0,0.0,0.3526,0.0,0.0,0.0,0.4935,0.516,0.5287,0.5534,0.5692,0.5757,0.5801,0.6051,0.6214,0.6268,0.6377,0.6437,0.6437,0.6437,0.6437,0.6437,0.6437,0.6437,0.6437,0.6437,0.6437,0.6442,0.6513,0.6573,0.6632,0.6934,0.7152,0.7203,0.7276,0.7332,0.7598,0.914,1.0516,1.2003,0.2818,0.0,0.0,0.0,0.0,0.0,0.0,0.0,0.0,0.0,0.0,0.0,0.5235,0.5211,0.0,0.0,0.52,0.5152,0.0,0.0,0.4992,0.0,0.0,0.0,0.0,0.0,0.0,0.0,0.0,0.0,0.0,0.0,0.0,0.0,0.0,0.4204,0.4267,0.0,0.0,0.4292,0.4303,0.4262,0.4277,0.4556,0.4629,0.4654,0.4498,0.4498,0.4432,0.4438,0.4337,0.0,0.4283,0.4157,0.3989,0.0,0.0,0.0,0.3898,0.0,0.0,0.0,0.0,0.0,0.3618,0.3605,0.367,0.3503,0.352,0.0,0.0,0.0,0.0,0.0,0.0,0.3393,0.0,0.0,0.0,0.0,0.0,0.0,0.0,0.4994,0.5162,0.5454,0.56,0.5676,0.5773,0.6029,0.6214,0.6312,0.6393,0.6437,0.6437,0.6437,0.6437,0.6437,0.6437,0.6437,0.6437,0.6437,0.6453,0.6491,0.6584,0.666,0.6736,0.691,0.7111,0.7362,0.7232,0.7154,0.7376,0.8478,0.989,1.1659,0.4051,0.4208,0.0,0.0,0.0,0.0,0.0,0.0,0.0,0.0,0.0,0.0,0.0,0.0,0.0,0.0,0.0,0.4952,0.53,0.0,0.472,0.0,0.0,0.4715,0.0,0.0,0.0,0.0,0.0,0.0,0.0,0.0,0.0,0.0,0.0,0.3944,0.4138,0.4143,0.4259,0.4365,0.437,0.437,0.4361,0.0,0.4294,0.438,0.438,0.0,0.0,0.4384,0.438,0.0,0.0,0.0,0.0,0.0,0.0,0.0,0.0,0.0,0.0,0.3736,0.0,0.3524,0.3605,0.3622,0.3597,0.3516,0.3565,0.3597,0.3516,0.0,0.0,0.0,0.0,0.0,0.0,0.0,0.0,0.0,0.0,0.0,0.0,0.4703,0.4915,0.5454,0.5442,0.5534,0.5877,0.5909,0.6072,0.642,0.6437,0.6437,0.6437,0.6437,0.6437,0.6437,0.6437,0.6437,0.6437,0.6437,0.6502,0.6616,0.6616,0.6752,0.6975,0.698,0.7051,0.726,0.7154,0.7154,0.7376,0.8478,0.9335,1.0401,0.424,0.0,0.0,0.0,0.0,0.0,0.0,0.461,0.0,0.0,0.0,0.0,0.0,0.5355,0.5361,0.0,0.0,0.517,0.5206,0.5057,0.0,0.0,0.0,0.4692,0.0,0.0,0.0,0.0,0.0,0.0,0.0,0.0,0.0,0.0,0.0,0.4008,0.0,0.0,0.0,0.0,0.0,0.4015,0.399,0.0,0.4356,0.4384,0.4233,0.4233,0.0,0.4068,0.409,0.4103,0.4005,0.3984,0.3934,0.3854,0.381,0.3789,0.0,0.0,0.392,0.401,0.3944,0.3863,0.3891,0.385,0.3797,0.3769,0.3785,0.3781,0.3691,0.0,0.0,0.0,0.0,0.0,0.0,0.0,0.0,0.0,0.0,0.0,0.0,0.0,0.4859,0.5301,0.5344,0.5491,0.5773,0.5937,0.6149,0.6426,0.6437,0.6437,0.6437,0.6437,0.6437,0.6437,0.6437,0.6437,0.6437,0.6518,0.6578,0.6627,0.679,0.691,0.6991,0.7067,0.7122,0.7154,0.7154,0.7265,0.7504,0.8027,0.885,1.0316,0.4355,0.436,0.0,0.0,0.0,0.0,0.0,0.0,0.0,0.0,0.5219,0.0,0.5426,0.0,0.5496,0.0,0.5458,0.5398,0.5322,0.5208,0.0,0.5143,0.4953,0.4876,0.0,0.0,0.0,0.0,0.0,0.4297,0.0,0.0,0.0,0.0,0.0,0.0,0.3921,0.0,0.4137,0.0,0.0,0.3839,0.0,0.0,0.4182,0.4155,0.0,0.4051,0.3989,0.3916,0.3948,0.3965,0.4055,0.4046,0.4001,0.4034,0.3997,0.3981,0.4095,0.4108,0.4108,0.4193,0.4128,0.4042,0.4075,0.4038,0.3989,0.3957,0.3948,0.392,0.383,0.0,0.0,0.0,0.0,0.0,0.0,0.3675,0.0,0.0,0.0,0.0,0.0,0.4688,0.4826,0.5175,0.5224,0.5388,0.0,0.5877,0.6105,0.6426,0.6437,0.6437,0.6437,0.6437,0.6437,0.6437,0.6437,0.6437,0.6442,0.6562,0.6643,0.6698,0.6899,0.7008,0.7051,0.7127,0.7154,0.7154,0.7154,0.7404,0.7679,0.7647,0.9036,1.1221,0.4447,0.4474,0.0,0.0,0.4414,0.0,0.0,0.0,0.5061,0.0,0.5404,0.5464,0.5475,0.567,0.5741,0.5735,0.5627,0.547,0.5464,0.5442,0.0,0.0,0.5257,0.5197,0.5203,0.0,0.0,0.0,0.0,0.0,0.0,0.0,0.0,0.0,0.3507,0.0,0.3634,0.3724,0.3818,0.3908,0.3908,0.3908,0.3912,0.3908,0.385,0.3789,0.3875,0.3908,0.392,0.401,0.4042,0.4059,0.4153,0.4181,0.4193,0.4275,0.43,0.43,0.43,0.4238,0.4197,0.4283,0.4177,0.4075,0.4169,0.4189,0.4161,0.4075,0.4055,0.4026,0.3932,0.3838,0.0,0.0,0.0,0.0,0.0,0.0,0.3929,0.0,0.0,0.0,0.0,0.4767,0.482,0.517,0.5078,0.0,0.0,0.573,0.5947,0.6415,0.6431,0.6437,0.6437,0.6437,0.6437,0.6437,0.6437,0.6437,0.6448,0.6573,0.6698,0.6817,0.6942,0.7056,0.7154,0.7265,0.7265,0.7265,0.7271,0.7578,0.792,0.7578,0.9687,1.2795,0.4447,0.4615,0.4665,0.0,0.4659,0.4751,0.0,0.0,0.0,0.0,0.5453,0.5497,0.5676,0.579,0.5822,0.5741,0.5703,0.0,0.0,0.0,0.0,0.5371,0.5339,0.5366,0.5453,0.5219,0.5058,0.4981,0.0,0.0,0.4079,0.0,0.0,0.0,0.0,0.0,0.3634,0.3724,0.3854,0.4001,0.4001,0.4042,0.4095,0.0,0.3985,0.3969,0.3993,0.4001,0.4014,0.4108,0.4136,0.4153,0.4238,0.4267,0.4271,0.4291,0.43,0.43,0.43,0.4283,0.4287,0.4377,0.4316,0.4275,0.4434,0.4418,0.4361,0.4336,0.4332,0.4287,0.4132,0.4026,0.0,0.0,0.0,0.0,0.0,0.0,0.0,0.4531,0.0,0.4728,0.4752,0.4878,0.4951,0.5056,0.5034,0.0,0.0,0.0,0.5909,0.6301,0.6393,0.6437,0.6437,0.6437,0.6437,0.6437,0.6437,0.6486,0.6578,0.6698,0.6823,0.6942,0.7062,0.7127,0.7265,0.7382,0.7493,0.7504,0.7933,0.8787,0.993,1.0054,1.1476,1.3589,0.4594,0.473,0.0,0.4811,0.0,0.0,0.4915,0.5061,0.0,0.5426,0.5643,0.0,0.5806,0.5915,0.5958,0.5893,0.5795,0.0,0.5703,0.0,0.0,0.5534,0.5529,0.5534,0.5464,0.5277,0.0,0.5043,0.0,0.0,0.4077,0.0,0.0,0.0,0.0,0.3687,0.0,0.3826,0.394,0.4038,0.4079,0.4128,0.0,0.4116,0.412,0.4148,0.4148,0.4128,0.4108,0.4197,0.4226,0.4234,0.4283,0.43,0.43,0.43,0.43,0.43,0.43,0.4328,0.4373,0.4422,0.4426,0.4447,0.4549,0.4532,0.4496,0.4496,0.4463,0.4406,0.4308,0.4181,0.4067,0.0,0.0,0.0,0.4112,0.4285,0.455,0.0,0.4976,0.4997,0.5015,0.4999,0.5018,0.5018,0.5018,0.0,0.0,0.0,0.5844,0.6257,0.6377,0.6388,0.6285,0.6437,0.6464,0.6366,0.6469,0.6556,0.6833,0.6907,0.7028,0.7208,0.7326,0.7382,0.7382,0.7715,0.7826,0.7844,0.8375,0.9155,1.0066,1.0971,1.226,1.3665,0.479,0.0,0.0,0.0,0.0,0.0,0.0,0.5257,0.0,0.5578,0.0,0.6045,0.5937,0.6034,0.6105,0.6089,0.0,0.5795,0.5893,0.5795,0.5735,0.5735,0.5746,0.5714,0.5621,0.5315,0.5116,0.0,0.0,0.0,0.0,0.0,0.0,0.0,0.0,0.0,0.0,0.3965,0.4042,0.4063,0.4153,0.4189,0.4189,0.4189,0.4234,0.43,0.43,0.4251,0.4202,0.4275,0.43,0.43,0.43,0.43,0.43,0.43,0.43,0.43,0.4312,0.4373,0.4438,0.4463,0.4532,0.4594,0.4606,0.4606,0.4606,0.4606,0.4545,0.4483,0.4471,0.4316,0.4247,0.0,0.0,0.4453,0.4466,0.4648,0.491,0.5078,0.5157,0.0,0.5393,0.5192,0.5061,0.5061,0.5061,0.0,0.0,0.0,0.5773,0.6208,0.6344,0.6323,0.6132,0.6437,0.6502,0.6317,0.6524,0.6838,0.7073,0.7096,0.7208,0.7442,0.7558,0.7604,0.7715,0.7937,0.8066,0.8233,0.8724,0.9268,0.9758,1.1214,1.2363,1.3583,0.0,0.0,0.0,0.0,0.0,0.5257,0.5561,0.5474,0.5485,0.5801,0.5986,0.6078,0.6056,0.6165,0.6198,0.6094,0.5953,0.0,0.0,0.0,0.0,0.5735,0.5822,0.5909,0.5991,0.5689,0.539,0.0,0.0,0.0,0.0,0.0,0.0,0.0,0.0,0.0,0.3883,0.3989,0.0,0.4157,0.4242,0.4275,0.4275,0.4275,0.4287,0.43,0.43,0.4287,0.4279,0.4295,0.43,0.43,0.43,0.43,0.43,0.43,0.43,0.4316,0.4389,0.4422,0.4471,0.4622,0.4671,0.4704,0.4773,0.479,0.479,0.479,0.4777,0.4745,0.4675,0.4635,0.4603,0.4415,0.4507,0.4648,0.4822,0.5082,0.5313,0.5313,0.5489,0.5539,0.5529,0.5393,0.5306,0.5306,0.0,0.0,0.0,0.0,0.5784,0.0,0.6181,0.6323,0.0,0.0,0.6497,0.6556,0.6913,0.6987,0.6879,0.7451,0.7689,0.7575,0.7814,0.7937,0.7937,0.8263,0.8739,0.9205,0.9379,1.0249,1.135,1.1623,1.2691,1.4163,0.0,0.0,0.0,0.0,0.0,0.0,0.0,0.5773,0.5801,0.5975,0.6105,0.6181,0.6181,0.6236,0.6246,0.6187,0.6007,0.5904,0.5904,0.5795,0.5735,0.5735,0.5844,0.5931,0.5991,0.5791,0.5494,0.5195,0.0,0.0,0.0,0.0,0.0,0.0,0.0,0.3859,0.0,0.0,0.0,0.4181,0.4267,0.43,0.43,0.43,0.43,0.43,0.43,0.4328,0.4361,0.4316,0.43,0.4308,0.4353,0.4369,0.4377,0.4426,0.4442,0.4451,0.4496,0.454,0.4598,0.4687,0.4741,0.4785,0.4826,0.4834,0.4834,0.4834,0.4834,0.4806,0.4916,0.4884,0.4948,0.4936,0.5107,0.523,0.5285,0.5515,0.5636,0.5636,0.5732,0.5801,0.5741,0.5627,0.0,0.0,0.0,0.0,0.0,0.0,0.5746,0.0,0.0,0.0,0.6159,0.0,0.6704,0.6637,0.7141,0.7416,0.7541,0.7889,0.7981,0.8048,0.8152,0.8263,0.8269,0.8673,0.9111,0.951,0.9585,1.0412,1.176,1.1857,1.3283,1.5186,0.0,0.5241,0.0,0.0,0.5447,0.0,0.5893,0.6045,0.6132,0.6159,0.6246,0.6306,0.6306,0.6306,0.6295,0.6268,0.6067,0.5931,0.5904,0.5795,0.5735,0.5735,0.5844,0.5904,0.5904,0.5721,0.5546,0.0,0.0,0.0,0.0,0.0,0.0,0.0,0.0,0.0,0.0,0.0,0.4185,0.4206,0.4271,0.43,0.43,0.43,0.4312,0.4328,0.4328,0.4385,0.4455,0.4381,0.4357,0.4369,0.4442,0.4463,0.4479,0.4553,0.4573,0.4577,0.4598,0.4655,0.4712,0.4732,0.4785,0.4834,0.4834,0.4834,0.4834,0.4834,0.4834,0.4914,0.5138,0.5205,0.5354,0.5441,0.5614,0.5624,0.5603,0.5818,0.5931,0.5904,0.5926,0.5931,0.5904,0.0,0.0,0.0,0.0,0.0,0.5757,0.0,0.0,0.0,0.0,0.6216,0.6073,0.0,0.6995,0.6877,0.7498,0.793,0.8177,0.8207,0.8263,0.8484,0.8595,0.8615,0.8654,0.9024,0.9361,0.9612,0.9646,1.0441,1.1776,1.2314,1.3996,1.6122,0.0,0.0,0.0,0.0,0.0,0.0,0.6029,0.617,0.629,0.6388,0.6415,0.642,0.642,0.642,0.6377,0.6279,0.6149,0.6024,0.5909,0.5795,0.5735,0.5735,0.5844,0.5904,0.5904,0.5904,0.5802,0.0,0.0,0.4864,0.0,0.0,0.0,0.0,0.0,0.0,0.0,0.4165,0.4218,0.4287,0.4295,0.43,0.43,0.43,0.4349,0.4422,0.4422,0.4483,0.4557,0.4549,0.4549,0.4549,0.4557,0.4561,0.4561,0.4569,0.4573,0.4589,0.4671,0.4704,0.4728,0.4806,0.4826,0.4834,0.4834,0.4834,0.4834,0.4834,0.5039,0.5135,0.5227,0.5546,0.5838,0.5731,0.58,0.5866,0.5673,0.5931,0.6029,0.5915,0.6002,0.6024,0.5915,0.5801,0.0,0.0,0.5697,0.0,0.0,0.0,0.0,0.5915,0.6213,0.6409,0.6611,0.6863,0.7153,0.7491,0.7836,0.803,0.7954,0.8536,0.8712,0.8484,0.8712,0.9008,0.9144,0.93,0.9456,0.9618,0.9747,1.0536,1.1889,1.3405,1.4951,1.6516,0.0,0.0,0.0,0.0,0.0,0.0,0.0,0.6295,0.6388,0.6431,0.6377,0.6361,0.6431,0.6312,0.6208,0.6165,0.6045,0.5926,0.5806,0.5757,0.5735,0.5735,0.5779,0.5833,0.5899,0.5904,0.578,0.0,0.0,0.0,0.0,0.0,0.0,0.0,0.0,0.4104,0.4181,0.4283,0.4349,0.4385,0.4442,0.4463,0.4463,0.4463,0.4487,0.4516,0.4516,0.4577,0.4655,0.4655,0.4618,0.4581,0.4638,0.4655,0.4663,0.4716,0.4728,0.4736,0.4773,0.4785,0.4794,0.4826,0.4834,0.4834,0.4834,0.4834,0.4834,0.4834,0.5039,0.524,0.5436,0.5703,0.594,0.6026,0.6059,0.6056,0.586,0.6045,0.6121,0.5926,0.6013,0.6067,0.6018,0.5844,0.0,0.0,0.0,0.0,0.0,0.0,0.0,0.6287,0.0,0.6756,0.6937,0.7136,0.7403,0.7833,0.8125,0.8395,0.8517,0.8796,0.883,0.8719,0.9028,0.915,0.93,0.9456,0.9605,0.9868,1.0745,1.2028,1.3405,1.5092,1.6534,1.7917,0.598,0.0,0.5996,0.0,0.6138,0.617,0.6257,0.6366,0.6437,0.6437,0.6339,0.6301,0.6377,0.6241,0.6111,0.604,0.5953,0.5855,0.5741,0.5735,0.5735,0.5735,0.5735,0.0,0.585,0.5855,0.5828,0.5784,0.5752,0.0,0.0,0.0,0.0,0.0,0.4428,0.4314,0.4351,0.441,0.4475,0.4483,0.4545,0.4573,0.4573,0.4573,0.4589,0.4614,0.4614,0.4671,0.4745,0.4745,0.4704,0.4659,0.4724,0.4745,0.4757,0.4818,0.4834,0.4834,0.4834,0.4834,0.4834,0.4834,0.4834,0.4834,0.4834,0.4834,0.4834,0.4935,0.524,0.5541,0.5636,0.5937,0.6205,0.629,0.6268,0.6181,0.5937,0.6116,0.6176,0.5931,0.6013,0.6083,0.6083,0.5904,0.0,0.0,0.0,0.0,0.0,0.0,0.0,0.0,0.0,0.0,0.7164,0.7369,0.7648,0.8117,0.8327,0.8642,0.894,0.894,0.894,0.8947,0.9089,0.9467,0.9968,0.9662,1.0165,1.1042,1.1824,1.311,1.4881,1.6212,1.7668,1.8722,0.6219,0.6165,0.6121,0.6246,0.6268,0.6268,0.6268,0.6366,0.6437,0.6437,0.6339,0.6268,0.6268,0.6268,0.617,0.5926,0.5904,0.5855,0.5741,0.5735,0.5735,0.0,0.0,0.5735,0.5735,0.5735,0.579,0.5899,0.0,0.0,0.5364,0.0,0.4761,0.4865,0.4793,0.4714,0.4811,0.4626,0.4569,0.4573,0.4573,0.4573,0.4573,0.4573,0.4626,0.4708,0.4708,0.4761,0.4834,0.4834,0.483,0.483,0.483,0.4834,0.4834,0.4834,0.4834,0.4834,0.4834,0.4834,0.4834,0.4834,0.4834,0.4834,0.4834,0.4834,0.4834,0.514,0.5641,0.5942,0.6042,0.6237,0.6399,0.6285,0.6268,0.6181,0.5937,0.6116,0.6176,0.5931,0.6013,0.6083,0.6083,0.5975,0.0,0.0,0.0,0.0,0.0,0.0,0.0,0.6636,0.6693,0.0,0.7214,0.7503,0.7896,0.8479,0.8479,0.8642,0.894,0.894,0.894,0.8947,0.9089,1.003,1.1224,1.0009,1.1232,1.3564,1.2551,1.3723,1.5978,1.6588,1.7668,1.8722,0.6366,0.635,0.6339,0.6377,0.6382,0.6382,0.6382,0.6415,0.6437,0.6437,0.6404,0.6355,0.6279,0.6121,0.5986,0.0,0.5833,0.5773,0.0,0.5735,0.5735,0.5735,0.5735,0.5735,0.5735,0.5735,0.5752,0.5784,0.0,0.0,0.0,0.5415,0.535,0.5455,0.5213,0.5158,0.5195,0.5202,0.5147,0.4958,0.5023,0.4851,0.4749,0.4749,0.4769,0.4794,0.4794,0.481,0.4834,0.4834,0.4834,0.4834,0.4834,0.4834,0.4834,0.4834,0.4834,0.4834,0.4834,0.4834,0.4834,0.4834,0.4834,0.4834,0.4834,0.4935,0.514,0.5436,0.5737,0.6042,0.6042,0.6242,0.6399,0.6285,0.6333,0.6301,0.6062,0.6165,0.6208,0.6045,0.6062,0.6116,0.6203,0.61,0.0,0.0,0.0,0.0,0.0,0.0,0.0,0.0,0.7341,0.0,0.77,0.7798,0.8092,0.8486,0.8587,0.8743,0.894,0.9042,0.9083,0.9209,1.0263,1.0996,1.152,1.2183,1.2892,1.3803,1.4499,1.5401,1.6451,1.7667,1.8415,1.8963,0.6437,0.6475,0.6491,0.6442,0.6437,0.6437,0.6437,0.6437,0.6437,0.6437,0.6437,0.6393,0.6279,0.6089,0.0,0.5909,0.5801,0.5735,0.5735,0.5735,0.5735,0.5735,0.5735,0.5735,0.5735,0.5735,0.0,0.5735,0.5735,0.5768,0.5839,0.5705,0.5763,0.5738,0.5636,0.558,0.5585,0.5596,0.5443,0.525,0.5313,0.524,0.4935,0.4935,0.4935,0.4834,0.4834,0.4834,0.4834,0.4834,0.4834,0.4834,0.4834,0.4834,0.4834,0.4834,0.4834,0.4834,0.4935,0.4935,0.4935,0.5035,0.5135,0.5135,0.5135,0.5336,0.5541,0.5737,0.5937,0.6142,0.6142,0.6237,0.6415,0.6344,0.6388,0.6372,0.6181,0.6257,0.6274,0.6105,0.6127,0.6187,0.6263,0.6198,0.625,0.0,0.0,0.0,0.0,0.0,0.7348,0.7541,0.7637,0.7828,0.8038,0.8038,0.8221,0.8567,0.8723,0.8872,0.9022,0.9673,0.9971,1.0038,1.1579,1.2525,1.3011,1.3461,1.4262,1.5245,1.5924,1.6519,1.719,1.8435,1.8939,1.9072,0.6448,0.654,0.6584,0.0,0.6437,0.6437,0.6437,0.6437,0.6437,0.6437,0.6437,0.6393,0.629,0.617,0.6051,0.5926,0.0,0.0,0.5735,0.5735,0.5735,0.5735,0.5735,0.5735,0.5735,0.5735,0.5735,0.5735,0.5741,0.5746,0.5763,0.5877,0.5931,0.5947,0.5984,0.5981,0.5889,0.5693,0.5636,0.5636,0.5636,0.5436,0.524,0.524,0.5035,0.4834,0.4834,0.4834,0.4834,0.4834,0.4834,0.4834,0.4834,0.4834,0.4834,0.4834,0.4834,0.4935,0.514,0.524,0.524,0.5536,0.5636,0.5636,0.5636,0.5837,0.6042,0.6042,0.6237,0.6437,0.6437,0.6437,0.6437,0.6437,0.6437,0.6399,0.6285,0.6361,0.6344,0.6127,0.6198,0.6274,0.6279,0.6279,0.6468,0.0,0.0,0.0,0.0,0.0,0.7354,0.7645,0.7645,0.778,0.8065,0.8079,0.8303,0.873,0.8879,0.9022,0.9264,1.0529,1.1191,1.1347,1.2929,1.4179,1.5246,1.4291,1.5332,1.7409,1.6808,1.7268,1.836,1.8855,1.906,1.9072,0.0,0.0,0.6584,0.6458,0.6437,0.6437,0.6437,0.6437,0.6437,0.6437,0.6437,0.6426,0.6399,0.6295,0.6176,0.6051,0.5855,0.5735,0.5735,0.5735,0.5735,0.5735,0.5735,0.5735,0.5735,0.5735,0.5735,0.5735,0.5822,0.5909,0.6007,0.6127,0.623,0.6312,0.6273,0.6294,0.6299,0.6226,0.6137,0.5942,0.5942,0.5737,0.5536,0.5536,0.5436,0.5436,0.5436,0.5436,0.5436,0.5436,0.5436,0.5436,0.5436,0.5436,0.5336,0.5135,0.514,0.514,0.5436,0.5536,0.5536,0.5536,0.5636,0.5636,0.5842,0.5942,0.6042,0.6237,0.6337,0.6437,0.6437,0.6437,0.6437,0.6437,0.6437,0.6399,0.6285,0.629,0.629,0.623,0.6252,0.6301,0.6388,0.6597,0.6657,0.0,0.0,0.7362,0.7272,0.7746,0.8113,0.8113,0.8113,0.8201,0.8377,0.8492,0.8662,0.8886,0.9028,0.9123,0.927,1.0771,1.1378,1.1544,1.3966,1.5247,1.5612,1.6256,1.7009,1.7515,1.7469,1.7851,1.8336,1.8662,1.8903,1.9072,0.6551,0.6535,0.6513,0.6448,0.6437,0.6437,0.6437,0.6437,0.6437,0.6437,0.6437,0.6437,0.6437,0.6333,0.6241,0.6176,0.5947,0.579,0.5735,0.5735,0.5735,0.5735,0.5784,0.5812,0.5812,0.5812,0.5812,0.5812,0.5931,0.6024,0.6089,0.6208,0.6301,0.6361,0.6415,0.6437,0.6437,0.6437,0.6337,0.6137,0.6137,0.6037,0.5737,0.5737,0.5737,0.5636,0.5636,0.5636,0.5636,0.5636,0.5636,0.5636,0.5636,0.5636,0.5636,0.5541,0.5441,0.5441,0.5737,0.5737,0.5837,0.5937,0.5937,0.6037,0.6137,0.6137,0.6237,0.6337,0.6437,0.6437,0.6437,0.6437,0.6437,0.6437,0.6393,0.6339,0.6279,0.6268,0.6268,0.6268,0.6312,0.6372,0.6531,0.6742,0.6913,0.7143,0.734,0.0,0.7707,0.7965,0.8167,0.8167,0.8296,0.8438,0.8587,0.8737,0.9106,0.9809,0.9448,0.9865,1.0964,1.1927,1.2696,1.3495,1.5515,1.6526,1.6526,1.7244,1.7551,1.7684,1.7962,1.8227,1.8505,1.877,1.8951,1.9072,0.6486,0.6475,0.6458,0.6437,0.6437,0.6431,0.6415,0.6426,0.6437,0.6437,0.6437,0.6437,0.6437,0.6366,0.6306,0.6274,0.6094,0.5926,0.5795,0.5784,0.5784,0.5784,0.5877,0.5931,0.5931,0.5931,0.5931,0.5931,0.6051,0.6116,0.6116,0.6236,0.6295,0.6295,0.6393,0.6437,0.6437,0.6437,0.6437,0.6437,0.6437,0.6237,0.6042,0.6042,0.5937,0.5737,0.5737,0.5737,0.5737,0.5737,0.5737,0.5737,0.5737,0.5737,0.5737,0.6042,0.5937,0.5737,0.6042,0.6042,0.6142,0.6337,0.6437,0.6437,0.6437,0.6437,0.6437,0.6437,0.6437,0.6437,0.6437,0.6437,0.6431,0.6415,0.6333,0.6263,0.6241,0.6257,0.6268,0.6268,0.6366,0.6537,0.6742,0.6842,0.7153,0.7578,0.7563,0.7799,0.8255,0.8187,0.8126,0.8106,0.837,0.8601,0.8777,0.8989,0.9794,1.098,1.0198,1.0964,1.3088,1.3529,1.4437,1.5688,1.7009,1.7479,1.7491,1.7527,1.7672,1.7901,1.8227,1.8493,1.8722,1.8976,1.9072,1.92,0.6725,0.666,0.6556,0.6453,0.6437,0.6404,0.6312,0.6377,0.6437,0.6437,0.6437,0.6437,0.6437,0.6513,0.6486,0.6285,0.6323,0.6263,0.6045,0.6029,0.6029,0.6029,0.6045,0.6056,0.6056,0.6056,0.6056,0.6056,0.6181,0.6241,0.6241,0.6355,0.641,0.641,0.6426,0.6437,0.6437,0.6437,0.6437,0.6437,0.6437,0.6337,0.6337,0.6337,0.6337,0.6237,0.6237,0.6237,0.6237,0.6237,0.6237,0.6237,0.6237,0.6237,0.6237,0.6337,0.6337,0.6237,0.6337,0.6337,0.6337,0.6437,0.6437,0.6437,0.6437,0.6437,0.6437,0.6437,0.6437,0.6437,0.6437,0.6437,0.6404,0.6312,0.6279,0.623,0.6127,0.6203,0.6268,0.6268,0.6569,0.6742,0.6842,0.7247,0.7591,0.7808,0.8004,0.8221,0.8269,0.8486,0.8547,0.8418,0.8581,0.8804,0.9083,0.9972,1.0731,1.1282,1.2082,1.2754,1.3422,1.4693,1.5419,1.5688,1.7009,1.7479,1.7503,1.772,1.7841,1.7925,1.8432,1.865,1.8722,1.8976,1.9328,1.9571,0.6584,0.6497,0.641,0.6431,0.6295,0.6225,0.6339,0.635,0.6344,0.6344,0.6399,0.6415,0.635,0.6453,0.6475,0.6366,0.6404,0.6388,0.6285,0.6154,0.6083,0.6083,0.6149,0.6187,0.6187,0.6241,0.6246,0.6187,0.6301,0.6361,0.6361,0.6415,0.6437,0.6437,0.6437,0.6437,0.6437,0.6437,0.6437,0.6437,0.6437,0.6437,0.6437,0.6437,0.6437,0.6437,0.6437,0.6437,0.6437,0.6437,0.6437,0.6437,0.6437,0.6437,0.6437,0.6437,0.6437,0.6437,0.6437,0.6437,0.6437,0.6437,0.6437,0.6437,0.6437,0.6437,0.6437,0.6437,0.6437,0.6437,0.6437,0.6437,0.6399,0.6285,0.6268,0.6225,0.6105,0.6192,0.6268,0.6268,0.6569,0.6871,0.7143,0.7554,0.7916,0.8163,0.8384,0.8418,0.8506,0.8635,0.875,0.8838,0.9567,1.01,1.0424,1.1498,1.2447,1.3442,1.3317,1.3943,1.5456,1.5579,1.5924,1.6644,1.7244,1.7479,1.7491,1.7612,1.7841,1.8131,1.8372,1.8775,1.9157,1.9279,1.9584,1.9839,0.6491,0.6404,0.6344,0.6458,0.6285,0.6192,0.6404,0.6388,0.635,0.635,0.6426,0.6437,0.6323,0.641,0.6469,0.6437,0.6464,0.6469,0.6437,0.6268,0.6165,0.6165,0.6257,0.6306,0.6306,0.6393,0.6393,0.6306,0.6393,0.6437,0.6437,0.6437,0.6437,0.6437,0.6437,0.6437,0.6437,0.6437,0.6437,0.6437,0.6437,0.6437,0.6437,0.6437,0.6437,0.6437,0.6437,0.6437,0.6437,0.6437,0.6437,0.6437,0.6437,0.6437,0.6437,0.6437,0.6437,0.6437,0.6437,0.6437,0.6437,0.6437,0.6437,0.6437,0.6437,0.6437,0.6437,0.6437,0.6437,0.6437,0.6437,0.6437,0.6399,0.6285,0.6268,0.6236,0.6143,0.6208,0.6377,0.6404,0.6714,0.7131,0.7539,0.7878,0.8163,0.8526,0.8533,0.8601,0.8757,0.8798,0.9058,0.9703,1.0697,1.1388,1.1946,1.3021,1.4198,1.53,1.4539,1.5246,1.7189,1.6434,1.6526,1.7479,1.7596,1.7608,1.7491,1.7669,1.8093,1.8422,1.8606,1.9037,1.9711,1.9711,1.9966,2.0234,0.673,0.6676,0.6594,0.6605,0.6589,0.654,0.6448,0.6524,0.6594,0.6594,0.66,0.6556,0.6437,0.6535,0.6562,0.6448,0.654,0.6556,0.6442,0.642,0.641,0.641,0.642,0.6426,0.6426,0.6431,0.6431,0.6426,0.6431,0.6437,0.6437,0.6437,0.6437,0.6437,0.6437,0.6437,0.6437,0.6437,0.6437,0.6437,0.6437,0.6437,0.6437,0.6437,0.6437,0.6437,0.6437,0.6437,0.6437,0.6437,0.6437,0.6437,0.6437,0.6437,0.6437,0.6437,0.6437,0.6437,0.6437,0.6437,0.6437,0.6437,0.6437,0.6437,0.6437,0.6437,0.6437,0.6437,0.6437,0.6437,0.6437,0.6437,0.6399,0.6285,0.6268,0.0,0.6257,0.6263,0.641,0.6714,0.7143,0.7533,0.7853,0.8176,0.8526,0.8682,0.8696,0.8757,0.8913,0.9049,0.9824,1.131,1.1273,1.1966,1.3227,1.4292,1.5095,1.5548,1.6379,1.7098,1.7455,1.7349,1.7361,1.7479,1.7843,1.7843,1.762,1.8339,1.8746,1.8803,1.9436,1.9852,2.0106,2.0106,2.0234,2.0602,0.6556,0.6698,0.6763,0.6638,0.6638,0.6654,0.6665,0.6573,0.6507,0.6507,0.6507,0.6464,0.6344,0.6437,0.6486,0.6442,0.648,0.6486,0.6437,0.6437,0.6437,0.6437,0.6437,0.6437,0.6437,0.6437,0.6437,0.6437,0.6437,0.6437,0.6437,0.6437,0.6437,0.6437,0.6437,0.6437,0.6437,0.6437,0.6437,0.6437,0.6437,0.6437,0.6437,0.6437,0.6437,0.6437,0.6437,0.6437,0.6437,0.6437,0.6437,0.6437,0.6437,0.6437,0.6437,0.6437,0.6437,0.6437,0.6437,0.6437,0.6437,0.6437,0.6437,0.6437,0.6437,0.6437,0.6437,0.6437,0.6437,0.6437,0.6437,0.6437,0.6399,0.6285,0.0,0.635,0.6279,0.6597,0.681,0.6957,0.7492,0.7916,0.8111,0.8488,0.8689,0.8838,0.8852,0.9244,1.0181,1.1232,1.249,1.38,1.3976,1.4162,1.4724,1.5937,1.6576,1.6762,1.7149,1.7382,1.7479,1.7726,1.7843,1.7843,1.8077,1.8194,1.8089,1.8601,1.9,1.9157,1.9572,1.9978,2.0361,2.0361,2.0602,2.0856,0.6486,0.6671,0.6779,0.6643,0.6638,0.6676,0.6736,0.6632,0.654,0.6497,0.6529,0.6491,0.6339,0.6388,0.6437,0.6437,0.6437,0.6437,0.6437,0.6437,0.6437,0.6437,0.6437,0.6437,0.6437,0.6437,0.6437,0.6437,0.6437,0.6437,0.6437,0.6437,0.6437,0.6437,0.6437,0.6437,0.6437,0.6437,0.6437,0.6437,0.6437,0.6437,0.6437,0.6437,0.6437,0.6437,0.6437,0.6437,0.6437,0.6437,0.6437,0.6437,0.6437,0.6437,0.6437,0.6437,0.6437,0.6437,0.6437,0.6437,0.6437,0.6437,0.6437,0.6437,0.6437,0.6464,0.648,0.6442,0.6497,0.654,0.6502,0.6524,0.6513,0.6399,0.6475,0.6513,0.6597,0.6862,0.72,0.7407,0.7836,0.8282,0.838,0.8649,0.8825,0.8933,0.9314,1.0204,1.1785,1.3192,1.4422,1.5322,1.5965,1.6172,1.6172,1.7009,1.7479,1.7479,1.7479,1.7608,1.7608,1.7855,1.8089,1.8194,1.8428,1.8532,1.844,1.8957,1.9253,1.9524,1.9807,2.0341,2.0729,2.0729,2.0856,2.1109,0.6594,0.6622,0.6622,0.6622,0.6622,0.6622,0.6622,0.6725,0.6757,0.6632,0.6725,0.6709,0.6464,0.6437,0.6437,0.6437,0.6437,0.6437,0.6437,0.6437,0.6437,0.6437,0.6437,0.6437,0.6437,0.6437,0.6437,0.6437,0.6437,0.6437,0.6437,0.6437,0.6437,0.6437,0.6437,0.6437,0.6437,0.6437,0.6437,0.6437,0.6437,0.6437,0.6437,0.6437,0.6437,0.6437,0.6437,0.6437,0.6437,0.6437,0.6437,0.6437,0.6437,0.6437,0.6437,0.6437,0.6437,0.6437,0.6437,0.6437,0.6437,0.6437,0.6437,0.6437,0.6437,0.6529,0.6584,0.6464,0.6632,0.6763,0.6643,0.6719,0.6763,0.6638,0.6725,0.6868,0.7061,0.7142,0.7434,0.8065,0.8194,0.8393,0.871,0.8852,0.894,0.894,1.0301,1.1785,1.3315,1.4624,1.5438,1.5569,1.6879,1.7479,1.7479,1.7479,1.7479,1.7479,1.7479,1.7726,1.7972,1.7972,1.8194,1.8415,1.8765,1.8765,1.844,1.9443,1.9734,1.9916,2.0438,2.0855,2.1109,2.1109,2.1109,2.1109,0.6486,0.6562,0.6622,0.6622,0.6692,0.6747,0.6747,0.6703,0.666,0.6622,0.6578,0.6518,0.6442,0.6437,0.6437,0.6437,0.6437,0.6437,0.6437,0.6437,0.6437,0.6437,0.6437,0.6437,0.6437,0.6437,0.6437,0.6437,0.6437,0.6437,0.6437,0.6437,0.6437,0.6437,0.6437,0.6437,0.6437,0.6437,0.6437,0.6437,0.6437,0.6437,0.6437,0.6437,0.6437,0.6437,0.6437,0.6437,0.6437,0.6437,0.6437,0.6437,0.6437,0.6437,0.6437,0.6437,0.6437,0.6437,0.6437,0.6437,0.6437,0.6437,0.6437,0.6458,0.6545,0.6594,0.6632,0.6681,0.6752,0.679,0.6752,0.6779,0.679,0.6752,0.6879,0.7416,0.8307,0.885,0.958,1.0534,1.1022,1.0925,1.0163,1.0866,1.1,1.0241,1.2413,1.4086,1.4719,1.6076,1.6915,1.6879,1.7244,1.7608,1.7843,1.7843,1.7843,1.7843,1.8077,1.8181,1.8311,1.8532,1.8648,1.8765,1.9127,1.9243,1.9166,1.9774,2.004,2.0159,2.0788,2.1029,2.1109,2.1109,2.1109,2.1109,0.6437,0.6497,0.6545,0.6545,0.6605,0.666,0.666,0.6638,0.66,0.6551,0.6524,0.6491,0.6442,0.6437,0.6437,0.6437,0.6437,0.6437,0.6437,0.6437,0.6437,0.6437,0.6437,0.6437,0.6437,0.6437,0.6437,0.6437,0.6437,0.6437,0.6437,0.6437,0.6437,0.6437,0.6437,0.6437,0.6437,0.6437,0.6437,0.6437,0.6437,0.6437,0.6437,0.6437,0.6437,0.6437,0.6437,0.6437,0.6437,0.6437,0.6437,0.6437,0.6437,0.6437,0.6437,0.6437,0.6437,0.6437,0.6437,0.6437,0.6448,0.6497,0.6507,0.6529,0.66,0.6692,0.6774,0.6796,0.6877,0.7034,0.7517,0.7648,0.788,0.8355,0.8707,0.9147,1.0031,1.0502,1.1156,1.1907,1.2224,1.2091,1.1437,1.2046,1.2606,1.2543,1.4148,1.5451,1.6158,1.7032,1.7608,1.7726,1.7726,1.7843,1.8194,1.8311,1.8311,1.8194,1.8311,1.8415,1.8648,1.8765,1.8997,1.9127,1.9359,1.9439,1.9559,1.992,2.0201,2.0441,2.0802,2.1002,2.1109,2.1109,2.1109,2.1109,0.6437,0.6437,0.6437,0.6437,0.6437,0.6437,0.6437,0.6529,0.6567,0.6464,0.654,0.6562,0.6464,0.6442,0.6437,0.6437,0.6437,0.6437,0.6437,0.6437,0.6437,0.6437,0.6437,0.6437,0.6437,0.6437,0.6437,0.6437,0.6437,0.6437,0.6437,0.6437,0.6437,0.6437,0.6437,0.6437,0.6437,0.6437,0.6437,0.6437,0.6437,0.6437,0.6437,0.6437,0.6437,0.6437,0.6437,0.6437,0.6437,0.6437,0.6437,0.6437,0.6437,0.6437,0.6437,0.6437,0.6437,0.6537,0.6548,0.6653,0.6782,0.6913,0.6953,0.6958,0.6855,0.7034,0.7277,0.7169,0.7328,0.7778,0.8737,0.9254,0.9843,1.0766,1.1307,1.1684,1.194,1.2079,1.2309,1.2635,1.2753,1.2663,1.2663,1.2846,1.3708,1.5286,1.5434,1.602,1.7467,1.7479,1.7726,1.7972,1.7972,1.8194,1.8415,1.8765,1.8765,1.8415,1.8544,1.8648,1.8997,1.8997,1.9127,1.9372,1.9372,1.9519,1.976,1.9813,2.016,2.0641,2.0695,2.0869,2.1109,2.1109,2.1235,2.1235,0.6437,0.6437,0.6437,0.6437,0.6437,0.6437,0.6437,0.6458,0.6502,0.6567,0.6518,0.6502,0.6573,0.6491,0.6437,0.6437,0.6437,0.6437,0.6437,0.6437,0.6437,0.6437,0.6437,0.6437,0.6437,0.6437,0.6437,0.6437,0.6437,0.6437,0.6437,0.6437,0.6437,0.6437,0.6437,0.6437,0.6437,0.6437,0.6437,0.6437,0.6437,0.6437,0.6437,0.6437,0.6437,0.6437,0.6437,0.6437,0.6437,0.6437,0.6437,0.6437,0.6437,0.6437,0.6437,0.6437,0.703,0.7746,0.7958,0.8599,0.9244,0.9419,0.9556,0.9436,0.8488,0.9069,0.9785,0.9884,0.9851,1.0108,1.0506,1.0639,1.0866,1.125,1.1611,1.2172,1.3204,1.3578,1.4051,1.5018,1.5298,1.5096,1.4219,1.442,1.5128,1.6598,1.6736,1.697,1.7467,1.7726,1.7972,1.7972,1.8194,1.8415,1.8765,1.8881,1.8881,1.8765,1.901,1.9243,1.9243,1.9243,1.9359,1.9372,1.9372,1.9399,1.9492,1.9947,2.0214,2.0374,2.0842,2.1056,2.1109,2.1109,2.1727,2.2716,0.6437,0.6437,0.6437,0.6437,0.6437,0.6453,0.6513,0.6475,0.6502,0.6681,0.66,0.6545,0.6611,0.6562,0.6502,0.6442,0.6437,0.6464,0.6518,0.6469,0.6464,0.6518,0.6469,0.6437,0.6437,0.6437,0.6437,0.6437,0.6437,0.6437,0.6437,0.6437,0.6437,0.6437,0.6437,0.6437,0.6437,0.6437,0.6437,0.6437,0.6437,0.6437,0.6437,0.6437,0.6437,0.6437,0.6437,0.6437,0.6437,0.6437,0.6736,0.7129,0.7129,0.7528,0.7925,0.7925,0.8322,0.8847,0.9112,0.9564,1.0035,1.0305,1.0869,1.1043,0.9869,1.0146,1.0666,1.0866,1.0891,1.1109,1.1982,1.2299,1.2625,1.3275,1.38,1.4168,1.4696,1.5127,1.5568,1.6091,1.632,1.6303,1.5862,1.5875,1.6413,1.7261,1.7274,1.7334,1.7479,1.7843,1.8089,1.8194,1.8532,1.8765,1.9127,1.9127,1.9127,1.9127,1.9359,1.9372,1.9372,1.9372,1.9372,1.9372,1.9372,1.9452,1.9586,1.976,1.9987,2.0267,2.0575,2.0775,2.1047,2.1797,2.2827,2.407,0.6437,0.6437,0.6437,0.6437,0.6437,0.6469,0.6573,0.6518,0.6545,0.6774,0.6714,0.6649,0.6649,0.6632,0.6567,0.6448,0.6475,0.6524,0.6584,0.6732,0.6827,0.6788,0.6911,0.6954,0.6637,0.6637,0.6537,0.6437,0.6437,0.6437,0.6437,0.6437,0.6437,0.6437,0.6437,0.6437,0.6437,0.6437,0.6437,0.6437,0.6437,0.6437,0.6437,0.6637,0.6637,0.6731,0.683,0.693,0.693,0.693,0.7528,0.8322,0.8322,0.8931,0.9657,0.9657,0.9871,1.0037,1.0323,1.0467,1.0758,1.1106,1.1949,1.2394,1.1558,1.1368,1.1472,1.1764,1.1809,1.2293,1.3573,1.3919,1.4483,1.5503,1.6114,1.6272,1.6054,1.6416,1.661,1.638,1.6598,1.6875,1.7129,1.7165,1.7249,1.7467,1.7479,1.7479,1.7596,1.7843,1.8194,1.8532,1.8765,1.9127,1.9372,1.9372,1.9372,1.9372,1.9372,1.9372,1.9372,1.9372,1.9372,1.9372,1.9372,1.9506,1.9706,1.9753,2.0074,2.0523,2.0739,2.1052,2.1561,2.3207,2.4317,2.5056,0.6437,0.6437,0.6437,0.6437,0.6437,0.6442,0.6458,0.654,0.6643,0.6785,0.679,0.6779,0.6779,0.6681,0.6567,0.6448,0.6632,0.6671,0.6475,0.7558,0.82,0.7865,0.8858,0.8959,0.7826,0.7826,0.7329,0.6437,0.6437,0.6437,0.6437,0.6437,0.6437,0.6437,0.6437,0.6437,0.6437,0.6437,0.6437,0.6437,0.6437,0.6437,0.6537,0.7428,0.7826,0.7925,0.8817,0.9213,0.9213,0.9213,0.9312,0.941,0.941,0.9614,0.9936,0.9936,1.0755,1.1653,1.1868,1.2565,1.3362,1.3944,1.4116,1.4385,1.4702,1.4548,1.4406,1.4429,1.4823,1.5266,1.5516,1.5765,1.6139,1.6474,1.6622,1.6634,1.6598,1.6658,1.6682,1.6646,1.6875,1.7141,1.7406,1.743,1.7443,1.7479,1.7479,1.7608,1.7972,1.8194,1.8532,1.8881,1.9127,1.9359,1.9372,1.9372,1.9372,1.9372,1.9372,1.9372,1.9372,1.9372,1.9372,1.9372,1.9372,1.9386,1.9555,2.0798,2.1408,2.1539,2.3141,2.3867,2.4081,2.5902,2.5912,2.5178,0.6437,0.6437,0.6437,0.6437,0.6437,0.6458,0.6529,0.6584,0.6687,0.6877,0.6904,0.6877,0.6812,0.6632,0.6497,0.6442,0.7036,0.7496,0.7446,0.8498,0.9112,0.906,0.9538,0.949,0.8916,0.8322,0.7726,0.7329,0.6731,0.6437,0.6437,0.6437,0.6437,0.6437,0.703,0.7329,0.7329,0.7925,0.8216,0.8216,0.8216,0.8216,0.8223,0.8718,0.8916,0.8916,0.941,0.9608,0.9608,0.9608,1.0002,1.0485,1.0485,1.1015,1.1783,1.1883,1.2446,1.309,1.3435,1.393,1.4406,1.4759,1.4815,1.499,1.558,1.5742,1.5701,1.5707,1.5858,1.6098,1.6315,1.6398,1.6582,1.6694,1.6827,1.6863,1.6718,1.6948,1.7141,1.7141,1.7237,1.7358,1.7479,1.7479,1.7479,1.7479,1.7726,1.7843,1.7972,1.8428,1.8765,1.8881,1.9243,1.9372,1.9372,1.9372,1.9372,1.9372,1.9372,1.9372,1.9372,1.9372,1.9822,2.0385,1.9707,2.0155,2.1417,2.1435,2.1725,2.2475,2.3724,2.4827,2.5923,2.6712,2.7142,2.7263]},{"header":{"parameterUnit":"m.s-1","parameterCategory":1,"la1":30.6,"la2":28.766,"lo1":-90.7593,"lo2":-88.6598,"dy":0.0162,"dx":0.0183,"nx":116,"ny":114,"refTime":"2024-02-22T06:00:00:Z","depth":0,"parameterNumber":3,"parameterNumberName":"V-component_of_WINDS"},"data":[0.0,0.0,0.0,0.0,0.0,0.0,0.0,0.0,0.0,0.0,0.0,0.0,0.0,0.0,0.0,0.0,0.0,0.0,0.0,0.0,0.0,0.0,0.0,0.0,0.0,0.0,0.0,0.0,0.0,0.0,0.0,0.0,0.0,0.0,0.0,0.0,0.0,0.0,0.0,0.0,0.0,0.0,0.0,0.0,0.0,0.0,0.0,0.0,0.0,0.0,0.0,0.0,0.0,0.0,0.0,0.0,0.0,0.0,0.0,0.0,0.0,0.0,0.0,0.0,0.0,0.0,0.0,0.0,0.0,0.0,0.0,0.0,0.0,0.0,0.0,0.0,0.0,0.0,0.0,0.0,0.0,0.0,0.0,0.0,0.0,0.0,0.0,0.0,0.0,0.0,0.0,0.0,0.0,0.0,0.0,0.0,0.0,0.0,0.0,0.0,0.0,0.0,0.0,0.0,0.0,0.0,0.0,0.0,0.0,0.0,0.0,0.0,0.0,0.0,0.0,0.0,0.0,0.0,0.0,0.0,0.0,0.0,0.0,0.0,0.0,0.0,0.0,0.0,0.0,0.0,0.0,0.0,0.0,0.0,0.0,0.0,0.0,0.0,0.0,0.0,0.0,0.0,0.0,0.0,0.0,0.0,0.0,0.0,0.0,0.0,0.0,0.0,0.0,0.0,0.0,0.0,0.0,0.0,0.0,0.0,0.0,0.0,0.0,0.0,0.0,0.0,0.0,0.0,0.0,0.0,0.0,0.0,0.0,0.0,0.0,0.0,0.0,0.0,0.0,0.0,0.0,0.0,0.0,0.0,0.0,0.0,0.0,0.0,0.0,0.0,0.0,0.0,0.0,0.0,0.0,0.0,0.0,0.0,0.0,0.0,0.0,0.0,0.0,0.0,0.0,0.0,0.0,0.0,0.0,0.0,0.0,0.0,0.0,0.0,0.0,0.0,0.0,0.0,0.0,0.0,0.0,0.0,0.0,0.0,0.0,0.0,0.0,0.0,0.0,0.0,0.0,0.0,0.0,0.0,0.0,0.0,0.0,0.0,0.0,0.0,0.0,0.0,0.0,0.0,0.0,0.0,0.0,0.0,0.0,0.0,0.0,0.0,0.0,0.0,0.0,0.0,0.0,0.0,0.0,0.0,0.0,0.0,0.0,0.0,0.0,0.0,0.0,0.0,0.0,0.0,0.0,0.0,0.0,0.0,0.0,0.0,0.0,0.0,0.0,0.0,0.0,0.0,0.0,0.0,0.0,0.0,0.0,0.0,0.0,0.0,0.0,0.0,0.0,0.0,0.0,0.0,0.0,0.0,0.0,0.0,0.0,0.0,0.0,0.0,0.0,0.0,0.0,0.0,0.0,0.0,0.0,0.0,0.0,0.0,0.0,0.0,0.0,0.0,0.0,0.0,0.0,0.0,0.0,0.0,0.0,0.0,0.0,0.0,0.0,0.0,0.0,0.0,0.0,0.0,0.0,0.0,0.0,0.0,0.0,0.0,0.0,0.0,0.0,0.0,0.0,0.0,0.0,0.0,0.0,0.0,0.0,0.0,0.0,0.0,0.0,0.0,0.0,0.0,0.0,0.0,0.0,0.0,0.0,0.0,0.0,0.0,0.0,0.0,0.0,0.0,0.0,0.0,0.0,0.0,0.0,0.0,0.0,0.0,0.0,0.0,0.0,0.0,0.0,0.0,0.0,0.0,0.0,0.0,0.0,0.0,0.0,0.0,0.0,0.0,0.0,0.0,0.0,0.0,0.0,0.0,0.0,0.0,0.0,0.0,0.0,0.0,0.0,0.0,0.0,0.0,0.0,0.0,0.0,0.0,0.0,0.0,0.0,0.0,0.0,0.0,0.0,0.0,0.0,0.0,0.0,0.0,0.0,0.0,0.0,0.0,0.0,0.0,0.0,0.0,0.0,0.0,0.0,0.0,0.0,0.0,0.0,0.0,0.0,0.0,0.0,0.0,0.0,0.0,0.0,0.0,0.0,0.0,0.0,0.0,0.0,0.0,0.0,0.0,0.0,0.0,0.0,0.0,0.0,0.0,0.0,0.0,0.0,0.0,0.0,0.0,0.0,0.0,0.0,0.0,0.0,0.0,0.0,0.0,0.0,0.0,0.0,0.0,0.0,0.0,0.0,0.0,0.0,0.0,0.0,0.0,0.0,0.0,0.0,0.0,0.0,0.0,0.0,0.0,0.0,0.0,0.0,0.0,0.0,0.0,0.0,0.0,0.0,0.0,0.0,0.0,0.0,0.0,0.0,0.0,0.0,0.0,0.0,0.0,0.0,0.0,0.0,0.0,0.0,0.0,0.0,0.0,0.0,0.0,0.0,0.0,0.0,0.0,0.0,0.0,0.0,0.0,0.0,0.0,0.0,0.0,0.0,0.0,0.0,0.0,0.0,0.0,0.0,0.0,0.0,0.0,0.0,0.0,0.0,0.0,0.0,0.0,0.0,0.0,0.0,0.0,0.0,0.0,0.0,0.0,0.0,0.0,0.0,0.0,0.0,0.0,0.0,0.0,0.0,0.0,0.0,0.0,0.0,0.0,0.0,0.0,0.0,0.0,0.0,0.0,0.0,0.0,0.0,0.0,0.0,0.0,0.0,0.0,0.0,0.0,0.0,0.0,0.0,0.0,0.0,0.0,0.0,0.0,0.0,0.0,0.0,0.0,0.0,0.0,0.0,0.0,0.0,0.0,0.0,0.0,0.0,0.0,0.0,0.0,0.0,0.0,0.0,0.0,0.0,0.0,0.0,0.0,0.0,0.0,0.0,0.0,0.0,0.0,0.0,0.0,0.0,0.0,0.0,0.0,0.0,0.0,0.0,0.0,0.0,0.0,0.0,0.0,0.0,0.0,0.0,0.0,0.0,0.0,0.0,0.0,0.0,0.0,0.0,0.0,0.0,0.0,0.0,0.0,0.0,0.0,0.0,0.0,0.0,0.0,0.0,0.0,0.0,0.0,0.0,0.0,0.0,0.0,0.0,0.0,0.0,0.0,0.0,0.0,0.0,0.0,0.0,0.0,0.0,0.0,0.0,0.0,0.0,0.0,0.0,0.0,0.0,0.0,0.0,0.0,0.0,0.0,0.0,0.0,0.0,0.0,0.0,0.0,0.0,0.0,0.0,0.0,0.0,0.0,0.0,0.0,0.0,0.0,0.0,0.0,0.0,0.0,0.0,0.0,0.0,0.0,0.0,0.0,0.0,0.0,0.0,0.0,0.0,0.0,0.0,0.0,0.0,0.0,0.0,0.0,0.0,0.0,0.0,0.0,0.0,0.0,0.0,0.0,0.0,0.0,0.0,0.0,0.0,0.0,0.0,0.0,0.0,0.0,0.0,0.0,0.0,0.0,0.0,0.0,0.0,0.0,0.0,0.0,0.0,0.0,0.0,0.0,0.0,0.0,0.0,0.0,0.0,0.0,0.0,0.0,0.0,0.0,0.0,0.0,0.0,0.0,0.0,0.0,0.0,0.0,0.0,0.0,0.0,0.0,0.0,0.0,0.0,0.0,0.0,0.0,0.0,0.0,0.0,0.0,0.0,0.0,0.0,0.0,0.0,0.0,0.0,0.0,0.0,0.0,0.0,0.0,0.0,0.0,0.0,0.0,0.0,0.0,0.0,0.0,0.0,0.0,0.0,0.0,0.0,0.0,0.0,0.0,0.0,0.0,0.0,0.0,0.0,0.0,0.0,0.0,0.0,0.0,0.0,0.0,0.0,0.0,0.0,0.0,0.0,0.0,0.0,0.0,0.0,0.0,0.0,0.0,0.0,0.0,0.0,0.0,0.0,0.0,0.0,0.0,0.0,0.0,0.0,0.0,0.0,0.0,0.0,0.0,0.0,0.0,0.0,0.0,0.0,0.0,0.0,0.0,0.0,0.0,0.0,0.0,0.0,0.0,0.0,0.0,0.0,0.0,0.0,0.0,0.0,0.0,0.0,0.0,0.0,0.0,0.0,0.0,0.0,0.0,0.0,0.0,0.0,0.0,0.0,0.0,0.0,0.0,0.0,0.0,0.0,0.0,0.0,0.0,0.0,0.0,0.0,0.0,0.0,0.0,0.0,0.0,0.0,0.0,0.0,0.0,0.0,0.0,0.0,0.0,0.0,0.0,0.0,0.0,0.0,0.0,0.0,0.0,0.0,0.0,0.0,0.0,0.0,0.0,0.0,0.0,0.0,0.0,0.0,0.0,0.0,0.0,0.0,0.0,0.0,0.0,0.0,0.0,0.0,0.0,0.0,0.0,0.0,0.0,0.0,0.0,0.0,0.0,0.0,0.0,0.0,0.0,0.0,0.0,0.0,0.0,0.0,0.0,0.0,0.0,0.0,0.0,0.0,0.0,0.0,0.0,0.0,0.0,0.0,0.0,0.0,0.0,0.0,0.0,0.0,0.0,0.0,0.0,0.0,0.0,0.0,0.0,0.0,0.0,0.0,0.0,0.0,0.0,0.0,0.0,0.0,0.0,0.0,0.0,0.0,0.0,0.0,0.0,0.0,0.0,0.0,0.0,0.0,0.0,0.0,0.0,0.0,0.0,0.0,0.0,0.0,0.0,0.0,0.0,0.0,0.0,0.0,0.0,0.0,0.0,0.0,0.0,0.0,0.0,0.0,0.0,0.0,0.0,0.0,0.0,0.0,0.0,0.0,0.0,0.0,0.0,0.0,0.0,0.0,0.0,0.0,0.0,0.0,0.0,0.0,0.0,0.0,0.0,0.0,0.0,0.0,0.0,0.0,0.0,0.0,0.0,0.0,0.0,0.0,0.0,0.0,0.0,0.0,0.0,0.0,0.0,0.0,0.0,0.0,0.0,0.0,0.0,0.0,0.0,0.0,0.0,0.0,0.0,0.0,0.0,0.0,0.0,0.0,0.0,0.0,0.0,0.0,0.0,0.0,0.0,0.0,0.0,0.0,0.0,0.0,0.0,0.0,0.0,0.0,0.0,0.0,0.0,0.0,0.0,0.0,0.0,0.0,0.0,0.0,0.0,0.0,0.0,0.0,0.0,0.0,0.0,0.0,0.0,0.0,0.0,0.0,0.0,0.0,0.0,0.0,0.0,0.0,0.0,0.0,0.0,0.0,0.0,0.0,0.0,0.0,0.0,0.0,0.0,0.0,0.0,0.0,0.0,0.0,0.0,0.0,0.0,0.0,0.0,0.0,0.0,0.0,0.0,0.0,0.0,0.0,0.0,0.0,0.0,0.0,0.0,0.0,0.0,0.0,0.0,0.0,0.0,0.0,0.0,0.0,0.0,0.0,0.0,0.0,0.0,0.0,0.0,0.0,0.0,0.0,0.0,0.0,0.0,0.0,0.0,0.0,0.0,0.0,0.0,0.0,0.0,0.0,0.0,0.0,0.0,0.0,0.0,0.0,0.0,0.0,0.0,0.0,0.0,0.0,0.0,0.0,0.0,0.0,0.0,0.0,0.0,0.0,0.0,0.0,0.0,0.0,0.0,0.0,0.0,0.0,0.0,0.0,0.0,0.0,0.0,0.0,0.0,0.0,0.0,0.0,0.0,0.0,0.0,0.0,0.0,0.0,0.0,0.0,0.0,0.0,0.0,0.0,0.0,0.0,0.0,0.0,0.0,0.0,0.0,0.0,0.0,0.0,0.0,0.0,0.0,0.0,0.0,0.0,0.0,0.0,0.0,0.0,0.0,0.0,0.0,0.0,0.0,0.0,0.0,0.0,0.0,0.0,0.0,0.0,0.0,0.0,0.0,0.0,0.0,0.0,0.0,0.0,0.0,0.0,0.0,0.0,0.0,0.0,0.0,0.0,0.0,0.0,0.0,0.0,0.0,0.0,0.0,0.0,0.0,0.0,0.0,0.0,0.0,0.0,0.0,0.0,0.0,0.0,0.0,0.0,0.0,0.0,0.0,0.0,0.0,0.0,0.0,0.0,0.0,0.0,0.0,0.0,0.0,0.0,0.0,0.0,0.0,0.0,0.0,0.0,0.0,0.0,0.0,0.0,0.0,0.0,0.0,0.0,0.0,0.0,0.0,0.0,0.0,0.0,0.0,0.0,0.0,0.0,0.0,0.0,0.0,0.0,0.0,0.0,0.0,0.0,0.0,0.0,0.0,0.0,0.0,-1.5176,0.0,0.0,0.0,0.0,0.0,0.0,0.0,0.0,0.0,0.0,0.0,0.0,0.0,0.0,0.0,0.0,0.0,0.0,0.0,0.0,0.0,0.0,0.0,0.0,0.0,0.0,0.0,-1.6947,-1.6803,-1.6989,-1.6539,-1.6238,-1.6151,-1.5254,-1.4652,-1.4429,-1.3939,-1.3674,-1.3674,-1.385,-1.4427,-1.5377,-1.4667,-1.3792,-1.2704,0.0,0.0,0.0,0.0,0.0,0.0,0.0,0.0,0.0,0.0,0.0,0.0,0.0,0.0,0.0,0.0,0.0,0.0,0.0,0.0,0.0,0.0,0.0,0.0,0.0,0.0,0.0,0.0,0.0,0.0,0.0,0.0,0.0,0.0,0.0,0.0,0.0,0.0,0.0,0.0,0.0,0.0,0.0,0.0,0.0,0.0,0.0,0.0,0.0,0.0,0.0,0.0,0.0,0.0,0.0,0.0,0.0,0.0,0.0,0.0,0.0,0.0,0.0,0.0,0.0,0.0,0.0,0.0,0.0,0.0,0.0,-1.5924,0.0,0.0,0.0,0.0,0.0,0.0,0.0,0.0,0.0,0.0,0.0,0.0,0.0,0.0,0.0,0.0,0.0,0.0,0.0,0.0,0.0,0.0,0.0,0.0,-1.681,-1.733,-1.6896,-1.6664,-1.6762,-1.6472,-1.6237,-1.6178,-1.5018,-1.434,-1.4255,-1.3424,-1.3059,-1.3147,-1.4439,-1.5477,-1.6186,-1.5941,-1.5018,0.0,0.0,0.0,0.0,0.0,0.0,0.0,0.0,0.0,0.0,0.0,0.0,0.0,0.0,0.0,0.0,0.0,0.0,0.0,0.0,0.0,0.0,0.0,0.0,0.0,0.0,0.0,0.0,0.0,0.0,0.0,0.0,0.0,0.0,0.0,0.0,0.0,0.0,0.0,0.0,0.0,0.0,0.0,0.0,0.0,0.0,0.0,0.0,0.0,0.0,0.0,0.0,0.0,0.0,0.0,0.0,0.0,0.0,0.0,0.0,0.0,0.0,0.0,0.0,0.0,-1.7522,-1.7588,-1.7224,-1.7754,-1.8173,-1.8504,-1.7578,-1.7038,-1.6786,-1.6466,0.0,0.0,0.0,0.0,0.0,0.0,0.0,0.0,0.0,0.0,0.0,0.0,0.0,0.0,0.0,0.0,0.0,0.0,0.0,0.0,0.0,-1.7798,-1.746,-1.7544,-1.6812,-1.6254,-1.5958,-1.6022,-1.5721,-1.5051,-1.4517,-1.4052,-1.3625,-1.3474,-1.3697,-1.4193,-1.6536,-1.7581,-1.7314,-1.8223,0.0,0.0,0.0,0.0,0.0,0.0,0.0,0.0,0.0,0.0,0.0,0.0,0.0,0.0,0.0,0.0,0.0,0.0,0.0,0.0,0.0,0.0,0.0,0.0,0.0,0.0,0.0,0.0,0.0,0.0,0.0,0.0,0.0,0.0,0.0,0.0,0.0,0.0,0.0,0.0,0.0,0.0,0.0,0.0,0.0,0.0,-1.4774,-1.5413,0.0,0.0,0.0,0.0,0.0,0.0,0.0,0.0,0.0,0.0,0.0,0.0,0.0,-1.7603,-1.8762,-1.862,-1.8827,-1.9252,-1.9561,-1.9806,-2.008,-2.0483,-2.074,-2.0762,-2.0167,0.0,-1.8159,-1.8396,0.0,0.0,0.0,0.0,0.0,0.0,0.0,0.0,0.0,0.0,0.0,0.0,0.0,0.0,0.0,0.0,0.0,0.0,0.0,0.0,0.0,-1.8165,-1.8197,-1.8308,-1.887,-1.8576,-1.714,-1.7963,-1.7765,-1.6009,-1.5068,-1.4489,-1.4292,-1.3768,-1.4397,-1.6162,-1.7606,-1.8971,-2.0243,0.0,0.0,0.0,0.0,0.0,0.0,0.0,0.0,0.0,0.0,0.0,0.0,0.0,0.0,0.0,0.0,0.0,0.0,0.0,0.0,0.0,0.0,0.0,0.0,0.0,0.0,0.0,0.0,0.0,0.0,0.0,0.0,0.0,0.0,0.0,0.0,0.0,0.0,0.0,0.0,0.0,0.0,0.0,0.0,0.0,0.0,-1.4608,-1.5317,-1.5918,-1.5568,-1.5273,0.0,0.0,0.0,0.0,0.0,0.0,0.0,0.0,0.0,-1.8824,-1.8554,-1.9165,-2.0643,-2.0628,-2.0866,-2.1431,-2.1759,-2.1735,-2.1388,-2.1858,-2.1901,-2.1601,-2.1283,-2.0633,-1.9736,-1.9126,-1.8702,-1.8407,0.0,0.0,0.0,0.0,-1.8395,-1.8953,0.0,0.0,0.0,0.0,0.0,0.0,0.0,0.0,0.0,0.0,0.0,0.0,-1.8532,-1.9234,-1.9596,-1.939,-2.0793,-2.063,-1.815,-1.8881,-1.8521,-1.6461,-1.5142,-1.4538,-1.4689,-1.4447,-1.5396,-1.7664,-1.8862,-2.0527,0.0,0.0,0.0,0.0,0.0,0.0,0.0,0.0,0.0,0.0,0.0,0.0,0.0,0.0,0.0,0.0,0.0,0.0,0.0,0.0,0.0,0.0,0.0,0.0,0.0,0.0,0.0,0.0,0.0,0.0,0.0,0.0,0.0,0.0,0.0,0.0,0.0,0.0,0.0,0.0,0.0,0.0,0.0,0.0,0.0,0.0,0.0,-1.5238,-1.5944,-1.6519,-1.6507,-1.6533,0.0,0.0,0.0,0.0,0.0,0.0,-1.9889,-1.9535,-1.9733,-2.0682,-2.0636,-2.1343,-2.2934,-2.278,-2.301,-2.3628,-2.3952,-2.355,-2.2507,-2.3015,-2.276,-2.1934,-2.1879,-2.1625,-2.1138,-2.0006,-1.9448,-1.9194,-1.9079,-1.9171,-1.9333,-1.8963,-1.9367,-2.0018,0.0,0.0,0.0,0.0,0.0,0.0,0.0,0.0,0.0,0.0,0.0,-2.0075,-1.9933,-2.1761,-2.2332,-2.0761,-2.1496,-2.0886,-1.8093,-1.7048,-1.6117,-1.5223,-1.3977,-1.3569,-1.4123,-1.5633,-1.6982,-1.8044,0.0,0.0,0.0,0.0,0.0,0.0,0.0,0.0,0.0,0.0,0.0,0.0,0.0,0.0,0.0,0.0,0.0,0.0,0.0,0.0,0.0,0.0,0.0,0.0,0.0,0.0,0.0,0.0,0.0,0.0,0.0,0.0,0.0,0.0,0.0,0.0,0.0,0.0,0.0,0.0,0.0,0.0,0.0,0.0,0.0,0.0,0.0,0.0,0.0,0.0,0.0,-1.7094,-1.8218,0.0,0.0,0.0,0.0,-1.8872,-1.9891,-2.1067,-2.2163,-2.1826,-2.2643,-2.4853,-2.4553,-2.4904,-2.6073,-2.5543,-2.5448,-2.5946,-2.5709,-2.4971,-2.3928,-2.4304,-2.3634,-2.2159,-2.2197,-2.2173,-2.2101,-2.1488,-2.0842,-2.0194,-2.1134,-2.1205,-2.0805,-2.0781,-2.0985,-2.1224,0.0,0.0,0.0,0.0,0.0,0.0,0.0,0.0,-1.7394,-1.7927,-1.8718,-1.9804,-2.1316,-2.3042,-2.4012,-2.3851,-2.5012,-2.4148,-2.0415,-1.9741,-1.8583,-1.6479,-1.5148,-1.4777,-1.5543,-1.7222,-1.8993,-2.0884,0.0,0.0,0.0,0.0,0.0,0.0,0.0,0.0,0.0,0.0,0.0,0.0,0.0,0.0,0.0,0.0,0.0,0.0,0.0,0.0,0.0,0.0,0.0,0.0,0.0,0.0,0.0,0.0,0.0,0.0,0.0,0.0,0.0,0.0,0.0,0.0,0.0,0.0,0.0,0.0,0.0,0.0,0.0,0.0,0.0,0.0,0.0,0.0,0.0,0.0,0.0,-1.8525,-1.9368,0.0,-1.9993,-2.0784,-2.1366,-2.1425,-2.2538,-2.3546,-2.4341,-2.4239,-2.4722,-2.5887,-2.5788,-2.6142,-2.7068,-2.688,-2.6892,-2.7183,-2.7117,-2.6683,-2.5946,-2.5658,-2.4908,-2.3762,-2.3698,-2.3311,-2.2702,-2.2871,-2.2351,-2.1547,-2.1906,-2.2145,-2.2241,-2.1844,-2.2224,-2.2837,0.0,0.0,0.0,0.0,0.0,0.0,0.0,0.0,-1.7651,-1.8244,-1.9369,-2.0901,-2.2993,-2.5514,-2.6956,-2.6725,-2.7638,-2.6283,-2.1924,-2.0793,-1.9226,-1.687,-1.6235,-1.6308,-1.7156,-1.9065,-2.0927,0.0,0.0,0.0,0.0,0.0,0.0,0.0,0.0,0.0,0.0,0.0,0.0,0.0,0.0,0.0,-1.3107,0.0,0.0,0.0,0.0,0.0,0.0,0.0,0.0,0.0,0.0,0.0,0.0,0.0,0.0,0.0,0.0,0.0,0.0,0.0,0.0,0.0,0.0,0.0,0.0,0.0,0.0,0.0,0.0,0.0,0.0,0.0,0.0,0.0,0.0,0.0,-1.9066,-1.9886,-2.1037,-2.184,-2.195,-2.2723,-2.342,-2.3739,-2.4647,-2.5448,-2.6035,-2.6337,-2.6711,-2.7237,-2.73,-2.7642,-2.8174,-2.8174,-2.8233,-2.8345,-2.8559,-2.8158,-2.7297,-2.6907,-2.6012,-2.4847,-2.4653,-2.4261,-2.3836,-2.4008,-2.3748,-2.3286,-2.3031,-2.3183,-2.3448,-2.3369,-2.3658,-2.4023,0.0,0.0,0.0,0.0,0.0,0.0,0.0,-1.8127,-1.8733,-1.9343,-2.1533,-2.3528,-2.4988,-2.9141,-3.1038,-2.913,-2.8887,-2.695,-2.2404,-1.972,-1.767,-1.6192,-1.7121,-1.7988,-1.8777,0.0,0.0,0.0,0.0,0.0,0.0,0.0,0.0,0.0,0.0,0.0,0.0,0.0,0.0,0.0,0.0,0.0,-1.5589,0.0,0.0,0.0,0.0,0.0,0.0,0.0,0.0,0.0,0.0,0.0,0.0,0.0,0.0,0.0,0.0,0.0,0.0,0.0,0.0,0.0,0.0,0.0,0.0,0.0,0.0,0.0,0.0,0.0,0.0,0.0,0.0,0.0,-1.8602,-2.01,-2.1225,-2.1229,-2.3366,-2.4603,-2.3901,-2.5007,-2.5733,-2.5641,-2.6115,-2.664,-2.729,-2.8072,-2.8729,-2.9228,-2.9429,-2.9496,-2.9496,-2.9496,-2.9496,-2.9523,-3.012,-2.9565,-2.7974,-2.7921,-2.7026,-2.5472,-2.4872,-2.4936,-2.5345,-2.4786,-2.4939,-2.5544,-2.4803,-2.4554,-2.4623,-2.5234,-2.5234,-2.4853,0.0,0.0,0.0,0.0,0.0,0.0,0.0,-1.8699,-1.9002,-1.9747,-2.1839,-2.4499,-2.7706,-3.0274,-3.1315,-3.0352,-2.911,-2.6622,-2.2385,-1.9954,-1.813,-1.6961,-1.8284,0.0,-2.065,0.0,0.0,0.0,0.0,0.0,0.0,0.0,0.0,0.0,0.0,0.0,0.0,0.0,0.0,0.0,0.0,0.0,-1.623,0.0,0.0,0.0,0.0,0.0,0.0,0.0,0.0,0.0,0.0,0.0,0.0,0.0,0.0,0.0,0.0,0.0,0.0,0.0,0.0,0.0,0.0,0.0,0.0,0.0,0.0,0.0,0.0,0.0,0.0,0.0,0.0,-2.063,-2.061,-2.1772,-2.3122,-2.4392,-2.5585,-2.6207,-2.5959,-2.6695,-2.7317,-2.7687,-2.8282,-2.8876,-2.9497,-2.9754,-2.9916,-3.0079,-3.0147,-3.0147,-3.0147,-3.0147,-3.0147,-3.0147,-3.0337,-3.016,-2.9673,-2.8783,-2.7931,-2.7157,-2.6544,-2.6168,-2.5935,-2.5895,-2.5984,-2.612,-2.5526,-2.5387,-2.5595,-2.6257,-2.6712,-2.6987,0.0,0.0,0.0,0.0,0.0,0.0,0.0,-1.9031,-1.9344,-2.0424,-2.2883,-2.5732,-2.8863,-3.0701,-3.1469,-3.0872,-2.8351,-2.5422,-2.2132,-1.9828,-1.8624,0.0,0.0,0.0,0.0,0.0,0.0,0.0,0.0,0.0,0.0,0.0,0.0,0.0,0.0,0.0,0.0,0.0,0.0,0.0,0.0,0.0,-2.0018,-1.9262,-1.8782,-1.8476,-1.8191,-1.7966,-1.7669,-1.7032,0.0,0.0,0.0,0.0,0.0,0.0,0.0,0.0,0.0,0.0,0.0,0.0,0.0,0.0,0.0,0.0,0.0,0.0,0.0,0.0,0.0,0.0,0.0,0.0,-2.1322,-2.3092,-2.3607,-2.4503,-2.5398,-2.6185,-2.7271,-2.7841,-2.7596,-2.8112,-2.8709,-2.9306,-2.9686,-3.0038,-3.0391,-3.0635,-3.0771,-3.0771,-3.0771,-3.0771,-3.0771,-3.0771,-3.0663,-3.0418,-3.0663,-3.0635,-3.0391,-2.9414,-2.8888,-2.8702,-2.7851,-2.752,-2.7611,-2.7207,-2.7271,0.0,0.0,0.0,0.0,0.0,-2.7851,-2.8388,0.0,0.0,0.0,0.0,0.0,0.0,0.0,-1.9209,-1.9746,-2.1205,-2.4028,-2.6682,-2.8798,-3.0433,-3.1142,-3.0524,-2.6933,-2.3862,-2.1827,0.0,0.0,0.0,0.0,0.0,0.0,0.0,0.0,0.0,0.0,0.0,0.0,0.0,0.0,0.0,0.0,0.0,0.0,0.0,0.0,0.0,0.0,0.0,-2.5012,-2.3243,-2.2899,-2.3119,-2.1208,-2.022,-1.9737,-1.8877,0.0,0.0,0.0,0.0,0.0,0.0,0.0,0.0,0.0,0.0,0.0,0.0,0.0,0.0,0.0,0.0,0.0,0.0,0.0,0.0,0.0,0.0,0.0,0.0,-2.3238,-2.5816,-2.722,-2.7865,-2.7931,-2.7189,-2.8573,-2.9333,-2.8736,-2.9224,-2.9849,-3.0473,-3.05,-3.0527,-3.0608,0.0,0.0,0.0,0.0,-3.1395,-3.1395,-3.1395,-3.1124,-3.0677,-3.1194,-3.1194,-3.0719,-3.0092,-3.0019,-3.0228,-2.9138,-2.9086,-2.975,-2.8736,-2.8736,-2.9215,-2.7656,-2.7111,-2.7311,-2.8038,-2.8712,-2.9192,0.0,0.0,0.0,0.0,0.0,0.0,0.0,-1.9494,-1.9974,-2.1739,-2.3437,-2.5366,-2.7658,-2.8623,-2.899,-2.8634,-2.5834,-2.3397,0.0,0.0,0.0,0.0,0.0,0.0,0.0,0.0,0.0,0.0,0.0,0.0,0.0,0.0,0.0,0.0,0.0,0.0,0.0,0.0,0.0,0.0,0.0,0.0,-2.5728,-2.5547,-2.5306,-2.5081,-2.4616,-2.4628,-2.4654,-2.2644,-2.1642,-2.0887,-1.939,0.0,0.0,0.0,0.0,0.0,0.0,0.0,0.0,0.0,0.0,0.0,0.0,0.0,0.0,0.0,0.0,0.0,0.0,0.0,0.0,-2.3652,-2.5838,-2.8135,-3.0746,-3.1333,-3.0887,-2.9154,-2.9713,-2.9984,-2.936,-2.9876,-3.0473,-3.107,-3.1124,-3.1341,-3.1802,-3.1938,-3.2019,-3.2019,-3.2019,-3.2019,-3.2019,-3.2019,-3.2082,-3.2301,0.0,0.0,-3.2695,-3.2081,-3.187,-3.1909,-3.1226,-3.0946,-3.1078,-3.0616,-3.0682,-3.0862,-2.8964,-2.8556,-2.9093,-2.9282,-2.9747,-3.0297,0.0,0.0,0.0,0.0,0.0,0.0,0.0,-1.975,-2.0113,-2.133,-2.2827,-2.4248,-2.5585,-2.5941,-2.5985,-2.5725,-2.3441,0.0,0.0,0.0,0.0,0.0,0.0,0.0,0.0,0.0,0.0,0.0,0.0,0.0,0.0,0.0,0.0,0.0,0.0,0.0,0.0,0.0,0.0,0.0,0.0,0.0,-2.8886,-2.8733,-2.8543,-2.8345,-2.7363,-2.7058,-2.6754,-2.501,-2.3876,-2.3017,-2.2049,-2.0368,-1.8552,0.0,0.0,0.0,0.0,0.0,0.0,0.0,0.0,0.0,0.0,0.0,0.0,0.0,0.0,-1.9666,-1.9301,0.0,-2.4363,-2.5766,-2.8239,-3.0454,-3.184,-3.2961,-3.3054,-3.1439,-3.1366,-3.1376,-3.1377,-3.1388,-3.1626,-3.2234,-3.2262,-3.24,-3.2704,-3.2731,-3.2731,-3.2731,-3.2731,-3.2731,-3.2731,-3.2731,-3.2707,-3.2542,-3.2542,-3.2681,-3.2861,-3.2241,-3.2196,-3.2613,-3.2056,-3.1838,-3.1968,-3.1838,-3.1838,-3.1911,-3.0906,-3.0743,-3.1025,-3.1025,-3.1075,-3.1061,0.0,0.0,0.0,0.0,0.0,0.0,0.0,-1.9969,-2.0168,-2.0838,-2.2083,-2.3066,-2.3509,-2.3365,-2.3042,-2.2599,0.0,0.0,0.0,0.0,0.0,0.0,0.0,0.0,0.0,0.0,0.0,0.0,0.0,0.0,0.0,0.0,0.0,0.0,0.0,0.0,0.0,0.0,0.0,0.0,0.0,0.0,-3.1909,-3.1424,-3.1253,-3.1042,-2.9252,-2.8058,-2.7162,-2.5968,-2.4829,-2.396,-2.396,-2.2522,-2.0576,-1.932,-1.8099,0.0,0.0,0.0,0.0,0.0,0.0,0.0,0.0,0.0,-1.8142,-1.8588,-2.0242,-2.1657,-2.1686,-2.4429,-2.6996,-2.8055,-3.0499,-3.2467,-3.3006,-3.3835,-3.4188,-3.3546,-3.3129,-3.2929,-3.3149,-3.2929,-3.2873,-3.3311,-3.3269,-3.3269,-3.3269,-3.3269,-3.3269,-3.3269,-3.3269,-3.3269,-3.3269,-3.3269,-3.3086,-3.2676,-3.2676,-3.2744,-3.2783,-3.2302,-3.2464,-3.3121,-3.27,-3.2601,-3.289,-3.289,-3.289,-3.289,-3.289,-3.2954,-3.2925,-3.2664,-3.2256,-3.1791,0.0,0.0,0.0,0.0,0.0,0.0,0.0,0.0,-2.0325,-2.0977,-2.1153,-2.1428,-2.2131,-2.1826,-2.111,-2.0018,0.0,0.0,0.0,0.0,0.0,0.0,0.0,0.0,0.0,0.0,0.0,0.0,0.0,0.0,0.0,0.0,0.0,0.0,0.0,0.0,0.0,0.0,0.0,0.0,0.0,0.0,-3.2182,-3.2101,-3.1748,-3.1042,-2.9252,-2.7515,-2.5914,-2.472,-2.3879,-2.3283,-2.3283,-2.2766,-2.1762,-2.008,0.0,-1.7394,-1.5692,-1.5394,-1.5652,-1.5792,-1.6191,-1.7043,0.0,0.0,-2.0768,-2.2047,-2.4107,-2.549,-2.504,-2.742,-3.0046,-3.1897,-3.2583,-3.3839,-3.6554,-3.4662,-3.3541,-3.4961,-3.4753,-3.4193,-3.3273,-3.3542,-3.3711,-3.3339,-3.3269,-3.3269,-3.3269,-3.3269,-3.3269,-3.3269,-3.3269,-3.3269,-3.3269,-3.3269,-3.3451,-3.3671,-3.3671,-3.3808,-3.4148,-3.409,-3.409,-3.4245,-3.4158,-3.4129,-3.4196,-3.4196,-3.4196,-3.4196,-3.4397,-3.4493,-3.4347,-3.3206,-3.2737,-3.2679,0.0,0.0,0.0,0.0,0.0,0.0,0.0,0.0,0.0,-2.038,-2.0325,-2.0351,-2.0537,-2.0116,-1.9591,0.0,0.0,0.0,0.0,0.0,0.0,0.0,0.0,0.0,0.0,0.0,0.0,0.0,0.0,0.0,0.0,0.0,0.0,0.0,0.0,0.0,0.0,0.0,0.0,0.0,0.0,0.0,-3.2707,-3.1994,-3.1021,-2.9975,-2.8201,-2.6402,0.0,0.0,-2.2658,-2.22,-2.2576,-2.1817,-2.0568,-1.9483,-1.8316,0.0,-1.6747,-1.6453,0.0,0.0,-1.837,-1.8969,-2.0691,-2.1773,-2.262,-2.3322,-2.4993,-2.6287,-2.6069,-2.9021,-3.1813,0.0,-3.4384,-3.5591,-3.5622,-3.4867,-3.3973,-3.3066,-3.3525,-3.3935,-3.403,-3.3958,-3.4179,-3.4817,-3.478,-3.478,-3.478,-3.4543,-3.4438,-3.4438,-3.4099,-3.3922,-3.3922,-3.3922,-3.3991,-3.4128,-3.4128,-3.4264,-3.4399,-3.4399,-3.4399,-3.4399,-3.4496,-3.4563,-3.4563,-3.4668,-3.4668,-3.4668,-3.4802,-3.4831,-3.4743,-3.4215,-3.3774,-3.3515,0.0,0.0,0.0,0.0,0.0,0.0,0.0,0.0,0.0,0.0,-1.9866,-1.9713,-1.9435,-1.9117,0.0,0.0,0.0,0.0,0.0,0.0,0.0,0.0,0.0,0.0,0.0,0.0,0.0,0.0,0.0,0.0,0.0,0.0,0.0,0.0,0.0,0.0,0.0,0.0,0.0,0.0,0.0,0.0,-3.2528,-3.1209,-2.9577,-2.774,-2.6464,-2.4723,0.0,0.0,-2.0921,-2.0541,-2.1138,-2.046,-1.932,-1.8738,-1.7596,-1.6674,-1.7253,0.0,0.0,-1.9614,-2.0229,-2.0822,-2.2424,-2.3392,-2.4096,-2.4761,-2.5747,-2.6653,-2.718,-2.9837,-3.223,-3.3006,-3.51,-3.6121,-3.4794,-3.4383,-3.3435,-3.1191,-3.1476,-3.2237,-3.3263,-3.3648,-3.4212,-3.5305,-3.5548,-3.57,-3.5913,-3.5593,-3.5519,-3.5699,-3.52,-3.4952,-3.5127,-3.502,-3.4864,-3.469,-3.469,-3.4574,-3.4496,-3.4534,-3.4534,-3.4534,-3.4698,-3.4765,-3.4765,-3.4868,-3.4935,-3.4935,-3.4935,-3.5001,-3.5001,-3.5067,-3.4771,-3.4357,0.0,0.0,0.0,0.0,0.0,0.0,0.0,0.0,0.0,0.0,0.0,0.0,0.0,0.0,0.0,0.0,0.0,0.0,0.0,0.0,0.0,0.0,0.0,0.0,0.0,0.0,0.0,0.0,0.0,0.0,0.0,0.0,0.0,0.0,0.0,0.0,0.0,0.0,0.0,0.0,0.0,0.0,-3.1224,-2.9865,-2.717,-2.4035,-2.4035,0.0,0.0,0.0,-1.8521,-1.8099,-1.8738,-1.8874,0.0,-1.8113,-1.6746,0.0,0.0,0.0,-1.8215,-1.973,-2.1017,-2.2439,-2.4355,-2.4791,-2.5267,-2.6929,-2.7019,-2.7329,-2.9162,-2.9817,-3.0975,-3.3833,-3.432,-3.4604,-3.5268,-3.3056,-3.1065,-3.0306,-2.9042,-2.879,0.0,-3.2351,-3.3679,-3.391,-3.4546,-3.5214,-3.5882,-3.5913,-3.6246,-3.6914,-3.6387,-3.6348,-3.7099,-3.6541,-3.5938,-3.5328,-3.5328,-3.5146,-3.4698,-3.4802,-3.4868,-3.4868,-3.4868,-3.4868,-3.4868,-3.4935,-3.4935,-3.4935,-3.5067,-3.5228,-3.5228,-3.5424,-3.5359,-3.5198,0.0,0.0,0.0,0.0,0.0,0.0,0.0,0.0,0.0,0.0,0.0,0.0,0.0,0.0,0.0,0.0,0.0,0.0,0.0,0.0,0.0,0.0,0.0,0.0,0.0,0.0,0.0,0.0,0.0,0.0,0.0,0.0,0.0,0.0,0.0,0.0,0.0,0.0,0.0,0.0,0.0,0.0,-2.9717,-2.6981,-2.4773,-2.2907,0.0,0.0,0.0,0.0,0.0,0.0,-1.7421,0.0,0.0,-1.6443,-1.6704,-1.7192,-1.7998,0.0,-1.9943,-2.2477,-2.3509,-2.4393,-2.6179,-2.633,-2.6229,-2.6633,-2.6475,-2.6525,-2.7381,-2.8575,-2.989,-3.1331,-3.3087,-3.3909,-3.2771,-3.3403,-3.2708,-2.92,-2.9611,0.0,0.0,0.0,0.0,-3.4098,-3.5252,-3.6032,-3.6191,-3.6786,-3.7184,-3.743,-3.7405,-3.7328,-3.7314,-3.7086,-3.6819,-3.6313,-3.5924,-3.5442,-3.4802,-3.4868,-3.4935,-3.4935,-3.5001,-3.5067,-3.5067,-3.5228,-3.5294,-3.5294,-3.5359,-3.5424,-3.5424,-3.5489,-3.5424,-3.5424,0.0,0.0,0.0,0.0,0.0,0.0,0.0,0.0,0.0,0.0,0.0,0.0,0.0,0.0,0.0,0.0,0.0,0.0,0.0,0.0,0.0,0.0,0.0,0.0,0.0,0.0,0.0,0.0,0.0,0.0,0.0,0.0,0.0,0.0,0.0,0.0,0.0,0.0,0.0,0.0,0.0,0.0,-2.756,-2.4946,-2.3122,0.0,0.0,0.0,0.0,0.0,0.0,0.0,0.0,-1.6198,-1.5658,-1.645,-1.7233,-1.8215,-1.9962,-2.1068,-2.2346,-2.4938,-2.5538,-2.5835,-2.7069,-2.6798,-2.6138,-2.558,-2.5168,-2.5042,-2.571,-2.6342,-2.7488,-2.9832,-3.1444,-3.238,-3.2133,-3.3108,-3.2887,-3.0069,-3.0608,-3.078,0.0,0.0,0.0,-3.3689,-3.5244,-3.6476,-3.7042,-3.7919,-3.8432,-3.8653,-3.8869,-3.88,-3.8558,-3.8366,-3.7994,-3.7561,-3.6971,-3.6501,-3.6054,-3.5876,-3.5657,-3.5429,-3.5559,-3.5524,-3.5294,-3.5424,-3.5519,-3.5519,-3.5519,-3.5519,-3.5519,-3.5519,-3.5519,-3.5519,0.0,0.0,0.0,0.0,0.0,0.0,0.0,0.0,0.0,0.0,0.0,0.0,0.0,0.0,0.0,0.0,0.0,0.0,0.0,0.0,0.0,0.0,0.0,0.0,0.0,0.0,0.0,0.0,0.0,0.0,0.0,0.0,0.0,0.0,0.0,0.0,0.0,0.0,0.0,0.0,0.0,0.0,-2.4995,-2.3579,0.0,0.0,0.0,0.0,0.0,0.0,0.0,0.0,0.0,0.0,-1.6218,-1.8056,-1.8396,-1.8906,-2.2373,-2.4031,-2.5196,-2.7121,-2.7091,-2.6713,-2.7297,-2.6347,-2.512,-2.4195,-2.3345,-2.3122,0.0,0.0,-2.4106,-2.9232,-2.958,-3.0291,-3.3233,-3.2406,-3.1879,0.0,0.0,0.0,0.0,0.0,0.0,-3.2962,0.0,-3.658,-3.8311,-3.912,-3.9833,-4.0513,-4.0732,-4.0801,-4.0801,-4.0163,-3.9529,-3.8904,-3.8465,-3.818,-3.8119,-3.7638,-3.7087,-3.6415,-3.6415,-3.61,-3.5554,-3.5489,-3.5519,-3.5519,-3.5519,-3.5519,-3.5519,-3.5519,-3.5519,-3.5519,0.0,0.0,0.0,0.0,0.0,0.0,0.0,0.0,0.0,0.0,0.0,0.0,0.0,0.0,0.0,0.0,0.0,0.0,0.0,0.0,0.0,0.0,0.0,0.0,0.0,0.0,0.0,0.0,0.0,0.0,0.0,0.0,0.0,0.0,0.0,0.0,0.0,0.0,0.0,0.0,0.0,0.0,-2.2809,0.0,0.0,0.0,0.0,0.0,0.0,0.0,0.0,0.0,0.0,0.0,-1.8391,-2.0533,-2.1447,-2.2284,-2.4719,-2.5895,-2.7005,-2.9285,-2.8686,-2.7788,-2.8767,-2.6896,-2.4851,-2.4388,-2.2893,-2.2176,0.0,0.0,0.0,-2.7562,-2.9881,0.0,-3.2289,-3.4788,0.0,0.0,0.0,-3.4659,-3.3788,-3.4355,0.0,0.0,-3.5934,-3.6767,-3.8334,-3.9541,-4.0577,-4.129,-4.1814,-4.1973,-4.1699,-4.0684,-3.9949,-3.9253,-3.8605,-3.8019,-3.7607,-3.7449,-3.7294,-3.7147,-3.66,-3.6321,-3.6133,-3.5683,-3.5519,-3.5519,-3.5519,-3.5519,-3.5519,-3.5519,-3.5519,-3.5519,0.0,0.0,0.0,0.0,0.0,0.0,0.0,0.0,0.0,0.0,0.0,0.0,0.0,0.0,0.0,0.0,0.0,0.0,0.0,0.0,0.0,0.0,0.0,0.0,0.0,0.0,0.0,0.0,0.0,0.0,0.0,0.0,0.0,0.0,0.0,0.0,0.0,0.0,0.0,0.0,0.0,0.0,0.0,0.0,0.0,0.0,0.0,0.0,0.0,0.0,0.0,-1.9337,-1.9948,-2.0177,-2.0679,-2.2955,0.0,-2.4928,-2.7271,-2.8477,-2.9539,-3.1114,-2.9867,-2.8209,-2.8199,-2.5905,-2.3386,-2.2053,-2.1175,0.0,0.0,0.0,0.0,0.0,0.0,0.0,-3.2867,-3.563,-3.7189,0.0,-3.6799,0.0,-3.6129,-3.6495,-3.7175,0.0,-3.7665,-3.8068,-3.9617,-4.0762,-4.1547,-4.1972,-4.2659,-4.2589,-4.1749,-4.113,-4.0479,-3.9813,-3.9444,-3.9023,-3.8739,-3.8739,-3.8373,-3.7796,0.0,-3.7869,-3.7312,-3.7247,-3.709,-3.6781,-3.6527,-3.6334,-3.6334,-3.6398,-3.658,-3.6854,0.0,0.0,0.0,0.0,0.0,0.0,0.0,0.0,0.0,0.0,0.0,0.0,0.0,0.0,0.0,0.0,0.0,0.0,0.0,0.0,0.0,0.0,0.0,0.0,0.0,0.0,0.0,0.0,0.0,0.0,0.0,0.0,0.0,0.0,0.0,0.0,0.0,0.0,0.0,0.0,0.0,0.0,0.0,0.0,0.0,0.0,0.0,0.0,0.0,0.0,-2.0953,-2.1909,-2.2208,-2.2478,-2.3055,-2.5373,-2.6267,-2.7072,-2.9721,-3.1149,-3.1924,-3.2431,-3.0596,-2.8264,-2.6838,-2.4358,-2.1667,-1.9217,0.0,-2.0004,-2.0628,0.0,-2.2758,-2.684,0.0,-3.0435,-3.4021,-3.5771,-3.722,-3.8712,-3.8721,-3.8674,-3.865,-3.8841,-3.9335,-4.0156,-3.9719,-4.0028,-4.1508,-4.217,-4.2568,-4.2667,-4.3197,-4.2866,-4.1574,-4.1375,-4.1011,-4.0514,-4.0415,-4.0382,-4.0382,-4.0481,-3.9742,-3.8488,-3.9891,-3.979,-3.8642,-3.9247,-3.9122,-3.8555,-3.7966,-3.7745,-3.7681,-3.7714,-3.8116,-3.8707,0.0,0.0,0.0,0.0,0.0,0.0,0.0,0.0,0.0,0.0,0.0,0.0,0.0,0.0,0.0,0.0,0.0,0.0,0.0,0.0,0.0,0.0,0.0,0.0,0.0,0.0,0.0,0.0,0.0,0.0,0.0,0.0,0.0,0.0,0.0,0.0,0.0,0.0,0.0,0.0,0.0,0.0,0.0,0.0,0.0,0.0,0.0,0.0,0.0,0.0,-2.1895,-2.2842,-2.4084,-2.4878,-2.5759,-2.7879,-2.8526,-2.9061,-3.1318,-3.2076,-3.2246,-3.2341,-3.0651,-2.8667,-2.7268,-2.4414,0.0,0.0,0.0,-2.0226,-2.1628,-2.2535,0.0,-2.7434,0.0,0.0,0.0,0.0,-3.8884,0.0,0.0,0.0,0.0,0.0,0.0,0.0,0.0,-4.2014,-4.2303,-4.2435,-4.28,-4.3429,-4.2965,-4.2601,-4.2336,-4.1143,-4.0779,-4.121,-4.0647,-4.0382,-4.0415,-4.0978,-4.0459,-3.916,-4.0066,0.0,-3.9237,-3.9431,-3.9469,-3.9312,-3.9156,-3.9156,-3.9125,-3.9156,-3.9251,-3.9345,0.0,0.0,0.0,0.0,0.0,0.0,0.0,0.0,0.0,0.0,-2.2235,0.0,0.0,0.0,0.0,0.0,0.0,0.0,0.0,0.0,0.0,0.0,0.0,0.0,0.0,0.0,0.0,0.0,0.0,0.0,0.0,0.0,0.0,0.0,0.0,0.0,0.0,0.0,0.0,0.0,0.0,0.0,0.0,0.0,0.0,0.0,0.0,0.0,0.0,0.0,-2.1004,-2.2613,-2.4839,-2.5724,-2.6419,-2.846,-2.9596,-3.0528,-3.1887,-3.2823,-3.3151,-3.2507,-3.0401,-2.8031,-2.5914,0.0,0.0,0.0,0.0,-2.0958,-2.2465,-2.3511,0.0,0.0,0.0,0.0,0.0,0.0,0.0,0.0,0.0,0.0,0.0,0.0,0.0,0.0,0.0,-4.27,-4.3065,-4.3098,-4.3098,-4.3065,-4.27,-4.2336,-4.1939,-4.1276,-4.0713,-4.0315,-4.0348,-4.0382,-4.0382,-4.0713,-4.068,-4.0448,-4.1222,-4.1369,-4.1016,-4.1439,-4.1443,-4.1026,-4.0723,-4.0539,-4.0539,-4.0601,-4.0825,-4.1146,0.0,0.0,0.0,0.0,0.0,0.0,0.0,0.0,-2.2851,-2.3043,-2.3667,-2.3514,-2.1966,-2.0936,0.0,0.0,0.0,0.0,0.0,0.0,0.0,0.0,0.0,0.0,0.0,0.0,0.0,0.0,0.0,0.0,0.0,0.0,0.0,0.0,0.0,0.0,0.0,0.0,0.0,0.0,0.0,0.0,0.0,0.0,0.0,0.0,0.0,0.0,0.0,0.0,-1.9718,-2.1635,-2.4106,-2.5313,-2.6167,-2.8126,-2.9769,-3.1191,-3.2045,-3.3151,-3.3719,-3.2203,-3.0054,-2.7525,-2.4586,-2.2532,0.0,0.0,0.0,-2.1921,-2.3114,0.0,0.0,0.0,0.0,0.0,0.0,0.0,0.0,0.0,0.0,0.0,0.0,0.0,0.0,0.0,0.0,0.0,-4.3131,-4.3297,-4.3131,-4.2535,-4.2535,-4.2237,-4.164,-4.1342,-4.0779,-3.9984,-4.0382,-4.068,-4.0845,-4.1011,-4.121,-4.1475,-4.2369,-4.2667,-4.2568,-4.333,-4.3297,-4.2708,-4.2201,-4.1987,-4.1927,-4.1987,-4.2346,-4.2896,0.0,0.0,0.0,0.0,0.0,0.0,0.0,0.0,-2.3081,-2.3898,-2.4052,-2.3744,-2.2774,-2.188,0.0,0.0,0.0,0.0,0.0,0.0,0.0,0.0,0.0,0.0,0.0,0.0,0.0,0.0,0.0,0.0,0.0,0.0,0.0,0.0,0.0,0.0,0.0,0.0,0.0,0.0,0.0,0.0,0.0,0.0,0.0,0.0,0.0,0.0,0.0,0.0,0.0,-1.9874,-2.0917,-2.3006,-2.5385,-2.6862,0.0,0.0,-3.1937,-3.2803,-3.2898,-3.0875,-2.9706,-2.8081,-2.4713,0.0,0.0,0.0,-2.1983,-2.3146,-2.3618,0.0,0.0,0.0,0.0,0.0,0.0,0.0,0.0,0.0,0.0,0.0,0.0,0.0,0.0,0.0,0.0,0.0,-4.1607,-4.227,-4.2601,-4.2535,-4.2535,-4.2502,-4.2435,-4.111,-4.1077,-4.2204,-4.1607,-4.1674,-4.2336,-4.3032,-4.2634,-4.1508,-4.2899,-4.3131,0.0,-4.333,-4.3595,-4.3529,-4.3469,-4.341,-4.341,-4.341,-4.3443,-4.3509,0.0,0.0,0.0,0.0,0.0,0.0,0.0,-2.2624,-2.3129,-2.3975,-2.4505,-2.4312,-2.2966,-2.2504,0.0,0.0,0.0,0.0,0.0,0.0,0.0,0.0,0.0,0.0,0.0,0.0,0.0,0.0,0.0,0.0,0.0,0.0,0.0,0.0,0.0,0.0,0.0,0.0,0.0,0.0,0.0,0.0,0.0,0.0,0.0,0.0,0.0,0.0,0.0,0.0,0.0,0.0,-1.8427,-1.9959,0.0,0.0,-2.7304,-2.9327,-3.116,-3.274,-3.3309,-3.0812,-2.9327,-2.7715,-2.4618,0.0,0.0,-2.2463,-2.3208,-2.4223,-2.4931,0.0,0.0,0.0,0.0,0.0,0.0,0.0,0.0,0.0,0.0,0.0,0.0,0.0,0.0,0.0,0.0,0.0,-4.0117,-4.164,-4.2137,-4.1243,-4.2502,-4.2767,-4.1872,-4.174,-4.174,-4.1839,-4.1541,-4.1806,-4.2502,-4.2369,-4.2469,-4.2767,-4.2899,-4.3032,0.0,-4.3495,-4.3628,-4.3628,-4.3628,-4.3628,-4.3628,-4.378,-4.4045,-4.4471,0.0,0.0,0.0,0.0,0.0,0.0,-2.2322,-2.2699,-2.3039,-2.3629,-2.4428,-2.4389,-2.2966,-2.2581,-2.1902,-2.0641,0.0,0.0,0.0,0.0,0.0,0.0,0.0,0.0,0.0,0.0,0.0,0.0,0.0,0.0,0.0,0.0,0.0,0.0,0.0,0.0,0.0,0.0,0.0,0.0,0.0,0.0,0.0,0.0,0.0,0.0,0.0,0.0,0.0,0.0,0.0,0.0,0.0,0.0,0.0,0.0,-2.5424,-2.7817,-2.9531,-3.1674,-3.2812,-3.0354,-2.9106,-2.7721,0.0,0.0,0.0,-2.3872,-2.4463,-2.519,-2.5928,-2.6203,-2.631,0.0,0.0,-2.6916,0.0,0.0,0.0,0.0,0.0,0.0,0.0,0.0,0.0,0.0,0.0,0.0,-3.9288,-4.0945,-4.1409,-4.0415,-4.227,-4.28,-4.174,-4.227,-4.2369,-4.2071,-4.1839,-4.2137,-4.2833,-4.2303,-4.2634,-4.3595,-4.3065,-4.3131,0.0,-4.3628,-4.3628,-4.3628,-4.3628,-4.3628,-4.3628,-4.3839,-4.4364,-4.5023,0.0,0.0,0.0,0.0,0.0,0.0,0.0,-2.2391,-2.2863,-2.2829,-2.359,-2.3783,-2.2889,-2.2043,-2.1504,-2.1504,0.0,0.0,0.0,0.0,0.0,0.0,0.0,0.0,0.0,0.0,0.0,-2.0499,-1.9497,0.0,0.0,0.0,0.0,0.0,0.0,0.0,0.0,0.0,0.0,0.0,0.0,0.0,0.0,0.0,0.0,0.0,0.0,0.0,0.0,0.0,0.0,0.0,0.0,0.0,0.0,0.0,-2.2899,-2.6101,-2.6904,-2.9265,-3.1024,-2.9189,-2.8976,-2.8549,0.0,0.0,0.0,-2.5447,-2.5746,-2.6175,-2.6349,-2.6521,-2.6589,-2.6589,-2.6825,0.0,-2.8645,0.0,0.0,0.0,0.0,0.0,0.0,0.0,0.0,0.0,0.0,0.0,-3.9288,-3.9984,-4.0415,-4.0382,-4.1773,-4.2535,-4.2502,-4.2535,-4.2866,-4.3595,-4.2866,-4.2899,-4.3628,-4.3595,-4.3628,-4.3628,-4.3628,-4.3628,0.0,-4.3628,-4.3628,-4.3628,-4.3628,-4.3628,-4.3628,-4.3839,-4.4364,-4.5023,0.0,0.0,0.0,0.0,0.0,0.0,0.0,0.0,-2.1319,-2.182,-2.2158,-2.2427,-2.2774,-2.2004,-2.1504,-2.1504,0.0,0.0,0.0,0.0,0.0,0.0,0.0,0.0,0.0,0.0,0.0,-1.969,-1.9206,-1.8948,-1.8788,0.0,0.0,0.0,0.0,0.0,0.0,0.0,0.0,0.0,0.0,0.0,0.0,0.0,0.0,0.0,0.0,0.0,0.0,0.0,0.0,0.0,0.0,0.0,0.0,-1.8401,0.0,0.0,-2.5041,-2.7277,-2.8714,-2.7153,-2.7662,-2.7916,-2.5539,0.0,0.0,0.0,0.0,-2.6383,-2.6624,-2.6691,-2.6758,-2.6859,-2.6923,-2.7265,0.0,0.0,0.0,0.0,0.0,0.0,0.0,0.0,0.0,0.0,0.0,0.0,-4.002,-4.0257,-4.0135,-3.9674,-4.1844,-4.2724,-4.2244,-4.2244,-4.2825,-4.4064,-4.2451,-4.2435,-4.3628,-4.3628,-4.3628,-4.3628,-4.3628,-4.3628,-4.3628,-4.3628,-4.3628,-4.3628,-4.3747,-4.3839,-4.3805,-4.4097,-4.4984,-4.5992,0.0,0.0,0.0,0.0,0.0,0.0,0.0,0.0,-2.0514,-2.0981,-2.1059,-2.1389,-2.2235,-2.1543,-2.1158,-2.1466,0.0,0.0,0.0,0.0,0.0,0.0,0.0,0.0,0.0,0.0,-1.9541,-1.9398,-1.9193,-1.9014,-1.8861,-1.8714,-1.8603,0.0,0.0,0.0,0.0,0.0,0.0,0.0,0.0,0.0,-1.7927,0.0,0.0,0.0,0.0,0.0,0.0,0.0,0.0,0.0,0.0,0.0,0.0,0.0,-1.9909,-2.1444,0.0,-2.4978,-2.6614,-2.5577,-2.6582,0.0,0.0,0.0,0.0,0.0,0.0,0.0,-2.6891,-2.6989,-2.7053,-2.7152,-2.7213,-2.7353,-2.7538,0.0,0.0,0.0,0.0,0.0,0.0,0.0,0.0,0.0,0.0,0.0,-4.0417,-4.0417,-4.017,-3.9747,-4.1572,-4.232,-4.1899,-4.217,-4.2807,-4.3855,-4.2802,-4.2835,-4.3864,-4.4006,-4.4088,-4.4088,-4.4088,-4.4088,0.0,-4.4088,-4.4088,-4.4121,-4.4155,-4.4155,-4.4155,-4.427,-4.5235,-4.6413,0.0,0.0,0.0,0.0,0.0,0.0,0.0,0.0,0.0,0.0,0.0,-2.0581,-2.135,-2.0735,0.0,0.0,0.0,0.0,0.0,0.0,0.0,0.0,0.0,0.0,0.0,-1.9713,-1.9675,-1.9615,-1.9398,-1.9193,-1.9014,-1.8861,-1.8751,-1.8641,-1.8622,0.0,0.0,0.0,0.0,0.0,-1.8487,-1.8368,0.0,0.0,0.0,0.0,0.0,0.0,0.0,0.0,0.0,0.0,0.0,0.0,0.0,0.0,0.0,0.0,0.0,-2.2564,-2.4643,-2.412,-2.5593,-2.6937,0.0,0.0,0.0,0.0,0.0,0.0,0.0,-2.731,-2.7404,-2.7434,-2.7652,-2.7682,0.0,0.0,0.0,0.0,0.0,0.0,0.0,0.0,0.0,0.0,0.0,0.0,-4.0514,-4.0514,-4.0514,-4.0514,-4.115,-4.1526,-4.1544,-4.2262,-4.2804,-4.3204,-4.3518,-4.3926,-4.4282,-4.4729,-4.4858,0.0,-4.4892,-4.4892,-4.4892,-4.4892,-4.4892,-4.4892,-4.4652,-4.4541,-4.4575,-4.4497,-4.5409,-4.649,0.0,0.0,0.0,0.0,0.0,0.0,0.0,0.0,0.0,0.0,0.0,-2.0389,-2.0581,-2.0427,0.0,0.0,0.0,0.0,0.0,0.0,0.0,0.0,0.0,0.0,0.0,-1.9797,-1.9688,-1.9688,-1.9405,-1.9292,-1.9209,-1.8913,-1.8789,-1.8807,-1.877,0.0,0.0,0.0,0.0,0.0,-1.8581,-1.8448,0.0,0.0,0.0,0.0,-1.7861,-1.8166,0.0,0.0,0.0,0.0,0.0,0.0,0.0,0.0,-2.0394,-2.0302,-1.9747,0.0,-2.222,-2.1499,-2.344,-2.535,0.0,0.0,0.0,0.0,0.0,0.0,0.0,0.0,-2.7587,-2.7612,-2.8198,-2.8522,-2.8204,0.0,0.0,0.0,0.0,0.0,0.0,0.0,0.0,0.0,0.0,-4.1024,-4.13,-4.13,-4.13,-4.13,-4.1475,-4.1719,-4.2037,-4.2196,-4.2906,-4.4113,-4.3323,-4.3303,-4.3946,-4.4599,-4.4585,-4.4107,-4.4653,-4.4892,-4.4892,-4.4892,-4.4892,-4.4892,-4.5161,-4.5267,-4.5389,-4.6257,-4.6813,-4.7055,0.0,0.0,0.0,0.0,0.0,0.0,0.0,0.0,0.0,0.0,0.0,0.0,0.0,0.0,0.0,0.0,0.0,0.0,0.0,0.0,0.0,0.0,0.0,0.0,0.0,-1.9979,-1.9821,-1.9701,-1.9559,-1.9419,-1.9308,-1.9117,-1.8983,-1.8877,-1.8861,-1.8949,-1.9087,-1.8984,-1.8932,-1.8932,-1.8824,0.0,0.0,0.0,0.0,0.0,-1.8121,-1.8244,0.0,-2.0426,-2.0729,-2.066,0.0,0.0,0.0,0.0,-2.1285,-2.1357,-2.0131,-2.0911,-2.1936,-2.1118,-2.3005,-2.4902,0.0,0.0,0.0,0.0,0.0,0.0,0.0,0.0,0.0,-2.7701,-2.8368,0.0,0.0,0.0,0.0,0.0,0.0,0.0,0.0,0.0,0.0,0.0,0.0,-4.1346,-4.1604,-4.1604,-4.1604,-4.1604,-4.1604,-4.169,-4.1928,-4.1928,-4.238,-4.3331,-4.295,-4.3232,-4.4096,-4.4716,-4.4958,-4.4923,-4.5338,-4.5511,-4.5511,-4.5511,-4.5563,-4.5683,-4.5784,-4.5885,-4.602,-4.654,-4.7187,-4.7662,0.0,0.0,0.0,0.0,0.0,0.0,0.0,0.0,0.0,0.0,0.0,0.0,0.0,0.0,0.0,0.0,0.0,0.0,0.0,0.0,0.0,0.0,0.0,0.0,-2.0116,-2.0098,-2.0,-1.9726,-1.9976,-1.987,-1.9537,-1.9617,-1.9417,-1.8966,-1.8948,-1.9,-1.9104,-1.9104,-1.9087,-1.9087,-1.9087,0.0,0.0,0.0,0.0,0.0,0.0,0.0,0.0,-1.9866,-2.0615,-2.1022,-2.221,0.0,0.0,0.0,0.0,0.0,-2.1138,-2.1819,-2.2764,-2.1873,-2.317,-2.4695,0.0,0.0,0.0,0.0,0.0,0.0,0.0,0.0,0.0,0.0,0.0,0.0,0.0,0.0,0.0,0.0,0.0,0.0,0.0,0.0,0.0,0.0,0.0,-4.1604,-4.1604,-4.1604,-4.1604,-4.1604,-4.1604,-4.1604,-4.1604,-4.1604,-4.1775,-4.2181,-4.2579,-4.3348,-4.4331,-4.4865,-4.5466,-4.6063,0.0,0.0,-4.6189,-4.6189,-4.6301,-4.6542,-4.6398,-4.6411,-4.6566,-4.653,-4.7364,-4.8317,0.0,0.0,0.0,0.0,0.0,0.0,0.0,0.0,0.0,0.0,0.0,0.0,0.0,0.0,0.0,0.0,0.0,0.0,0.0,0.0,0.0,0.0,0.0,-2.0304,-2.0288,-2.0173,-2.003,-1.9866,-2.1166,-2.1405,-2.0574,-2.1078,-2.0543,-1.9134,-1.9104,-1.912,-1.9186,-1.912,-1.9087,-1.9087,-1.9087,0.0,0.0,0.0,0.0,0.0,0.0,0.0,0.0,-1.9482,-2.0587,-2.1869,-2.199,0.0,0.0,0.0,0.0,0.0,-2.2207,-2.314,-2.3921,-2.2365,-2.2519,-2.3292,0.0,0.0,0.0,0.0,0.0,0.0,0.0,0.0,0.0,0.0,0.0,0.0,0.0,0.0,0.0,0.0,0.0,0.0,0.0,0.0,0.0,0.0,0.0,-4.1604,-4.1604,-4.1604,-4.1604,-4.1604,-4.1604,-4.1604,-4.1604,-4.1604,-4.1946,-4.2706,-4.2752,-4.3208,-4.4003,-4.4751,-4.515,-4.5291,0.0,-4.6189,-4.6189,-4.6189,-4.6239,-4.6301,-4.6684,-4.6906,-4.7069,-4.8075,-4.864,-4.882,0.0,0.0,0.0,0.0,0.0,0.0,0.0,0.0,0.0,0.0,0.0,0.0,0.0,0.0,0.0,0.0,0.0,0.0,0.0,0.0,0.0,0.0,-2.0312,-2.0312,-2.0312,-2.1116,-2.1474,-2.1374,-2.2893,-2.3187,-2.2233,-2.1417,-2.0441,-1.9338,-1.9186,-1.9153,-1.9251,-1.9137,-1.9087,-1.9087,0.0,0.0,0.0,0.0,0.0,0.0,0.0,0.0,0.0,0.0,-2.054,-2.1739,-2.1859,0.0,0.0,0.0,0.0,0.0,-2.2525,-2.3199,-2.4199,-2.4239,-2.4324,0.0,0.0,0.0,0.0,0.0,0.0,0.0,0.0,0.0,0.0,0.0,0.0,0.0,0.0,0.0,0.0,0.0,0.0,0.0,0.0,0.0,0.0,0.0,0.0,-4.1604,-4.1604,-4.1604,-4.1604,-4.1604,-4.1604,-4.1604,-4.1604,-4.1604,-4.178,-4.2166,-4.2166,-4.2552,-4.3325,-4.3711,-4.4308,-4.5115,0.0,-4.5852,-4.6189,-4.6189,-4.6385,-4.6673,-4.6906,-4.7178,-4.7507,-4.8518,-4.8641,-4.8315,0.0,0.0,0.0,0.0,0.0,0.0,0.0,0.0,0.0,0.0,0.0,0.0,0.0,0.0,0.0,0.0,0.0,0.0,0.0,0.0,-2.0312,-2.0312,-2.0312,-2.0389,-2.0581,-2.2043,-2.2815,-2.2908,-2.4473,-2.4647,-2.3474,-2.168,-2.0388,-1.9499,-1.9314,-1.9251,-1.9344,-1.9235,-1.917,-1.9137,0.0,0.0,0.0,0.0,0.0,0.0,0.0,0.0,0.0,0.0,0.0,0.0,0.0,0.0,0.0,-2.2968,-2.3262,-2.3629,-2.2932,-2.3304,-2.4169,0.0,0.0,0.0,0.0,0.0,0.0,0.0,0.0,0.0,0.0,0.0,0.0,0.0,0.0,0.0,0.0,0.0,0.0,0.0,0.0,0.0,0.0,0.0,0.0,0.0,-4.1604,-4.1604,-4.1604,-4.1604,-4.1604,-4.1604,-4.1604,-4.1604,-4.1604,-4.1648,-4.1648,-4.1604,-4.1604,-4.2026,-4.2798,-4.2798,-4.3641,-4.5115,-4.5115,-4.5536,-4.6189,-4.6189,-4.6447,-4.687,-4.6998,-4.7312,-4.7808,-4.8605,-4.8387,-4.7844,0.0,0.0,0.0,0.0,0.0,0.0,0.0,0.0,0.0,0.0,0.0,0.0,0.0,0.0,0.0,0.0,0.0,0.0,0.0,0.0,-2.0312,-2.0312,-2.0312,-2.0658,-2.1389,-2.2312,-2.3122,-2.3798,-2.5397,-2.5259,-2.3483,-2.239,-2.1071,-1.9602,-1.9522,-1.9471,-1.9471,-1.9413,-1.9338,-1.9282,-1.9282,0.0,0.0,0.0,0.0,0.0,0.0,0.0,0.0,0.0,0.0,0.0,0.0,0.0,-2.3837,-2.4019,-2.3959,-2.3837,-2.4039,-2.4134,-2.4207,0.0,0.0,0.0,0.0,0.0,0.0,0.0,0.0,0.0,0.0,0.0,0.0,0.0,0.0,0.0,0.0,0.0,0.0,0.0,0.0,0.0,0.0,0.0,0.0,-4.1604,-4.1604,-4.1604,-4.1604,-4.1604,-4.1604,-4.1604,-4.1604,-4.1604,-4.1604,-4.1823,-4.1788,-4.1604,-4.1604,-4.2026,-4.2798,-4.2798,-4.3641,-4.5115,-4.5115,-4.5536,-4.6189,-4.6189,-4.635,-4.6637,-4.687,-4.7312,-4.7808,-4.8605,-4.8387,-4.7844,0.0,0.0,0.0,0.0,0.0,0.0,0.0,0.0,0.0,0.0,0.0,0.0,0.0,0.0,0.0,0.0,0.0,0.0,0.0,0.0,-2.0312,-2.0312,-2.0312,-2.0696,-2.1466,-2.3389,-2.4755,-2.557,-2.5461,-2.475,-2.3468,-2.1958,-2.0656,-1.9606,-1.9513,-1.9536,-1.955,-1.9456,-1.9398,-1.939,-1.9811,-2.0147,0.0,0.0,0.0,0.0,0.0,0.0,0.0,0.0,-2.1352,-2.2502,0.0,-2.3082,-2.4056,-2.417,-2.4132,-2.4056,-2.417,-2.4557,-2.509,0.0,0.0,0.0,0.0,0.0,0.0,0.0,0.0,0.0,0.0,0.0,0.0,0.0,0.0,0.0,0.0,0.0,0.0,0.0,0.0,0.0,0.0,0.0,-4.1604,-4.1604,-4.1736,-4.1788,-4.1788,-4.1952,-4.2037,-4.2037,-4.2037,-4.2037,-4.2037,-4.2121,-4.2121,-4.2037,-4.2037,-4.2179,-4.2498,-4.2326,-4.3129,-4.4565,-4.4425,-4.508,-4.6189,-4.6189,-4.6482,-4.6906,-4.7312,-4.7529,-4.7735,-4.8061,-4.7989,-4.7735,0.0,0.0,0.0,0.0,0.0,0.0,0.0,0.0,0.0,0.0,0.0,0.0,0.0,0.0,0.0,0.0,0.0,0.0,0.0,0.0,-2.0312,-2.0312,-2.0312,-2.0812,-2.1889,-2.362,-2.4928,-2.5813,-2.4953,-2.3941,-2.2749,-2.1428,-2.0507,-1.9978,-1.9964,-1.9964,-2.0015,-2.0224,-2.0107,-1.993,-2.0652,-2.1033,0.0,0.0,0.0,0.0,0.0,0.0,0.0,0.0,-2.2099,0.0,0.0,0.0,0.0,-2.419,-2.419,-2.419,-2.4209,-2.4816,-2.5571,0.0,0.0,0.0,0.0,0.0,0.0,0.0,0.0,0.0,0.0,0.0,0.0,0.0,0.0,0.0,0.0,0.0,0.0,0.0,0.0,0.0,0.0,-4.1273,-4.1195,-4.1569,-4.1653,-4.1843,-4.218,-4.2374,-4.2414,-4.2414,-4.2414,-4.2414,-4.2414,-4.2573,-4.2613,-4.2534,-4.2573,-4.2494,-4.2287,-4.2002,-4.266,-4.4024,-4.392,-4.4706,-4.5985,-4.6133,-4.653,-4.7043,-4.7529,-4.7699,-4.7699,-4.7699,-4.7699,-4.7699,0.0,0.0,0.0,0.0,0.0,0.0,0.0,0.0,0.0,0.0,0.0,0.0,0.0,0.0,0.0,0.0,0.0,0.0,0.0,-2.0312,-2.0312,-2.0312,-2.0312,-2.1081,-2.2735,-2.2774,-2.3206,-2.4091,-2.3835,-2.2842,-2.1199,-2.0947,-2.079,-2.079,-2.0877,-2.0919,-2.0956,-2.1901,-2.1723,-2.0877,-2.1772,-2.2432,-2.2887,0.0,0.0,0.0,0.0,0.0,0.0,0.0,-2.2228,0.0,0.0,0.0,0.0,-2.419,-2.419,-2.4209,-2.421,-2.4855,0.0,0.0,0.0,0.0,0.0,0.0,0.0,0.0,0.0,0.0,0.0,0.0,0.0,0.0,0.0,0.0,0.0,0.0,0.0,0.0,0.0,0.0,-4.1578,-4.052,-4.03,-4.1505,-4.1353,-4.1715,-4.285,-4.2772,-4.2693,-4.2693,-4.2693,-4.2693,-4.2693,-4.3141,-4.3248,-4.3032,-4.3213,-4.2921,-4.2287,-4.2002,-4.247,-4.3422,-4.38,-4.4483,-4.5481,-4.602,-4.6495,-4.7043,-4.7529,-4.7699,-4.7699,-4.7699,-4.7699,-4.7699,0.0,0.0,0.0,0.0,0.0,0.0,0.0,0.0,0.0,0.0,0.0,0.0,0.0,0.0,0.0,0.0,0.0,0.0,0.0,-2.0312,-2.0312,-2.0312,-2.0312,-2.0542,-2.1043,-2.1043,-2.2043,-2.4091,-2.3311,-2.2315,-2.1199,-2.1003,-2.0891,-2.0827,0.0,-2.1726,-2.1778,-2.2149,-2.214,-2.191,-2.2644,-2.2984,-2.305,0.0,0.0,0.0,0.0,0.0,0.0,0.0,0.0,0.0,0.0,0.0,0.0,-2.419,-2.4593,-2.5054,-2.5112,0.0,0.0,0.0,0.0,0.0,0.0,0.0,0.0,0.0,0.0,0.0,0.0,0.0,0.0,0.0,0.0,0.0,0.0,0.0,0.0,0.0,0.0,-4.0782,-4.0782,-4.0456,-4.0384,-4.0817,-4.1397,-4.1939,-4.237,-4.3025,-4.3389,-4.3389,-4.3389,-4.3389,-4.3389,-4.3526,-4.356,-4.3493,-4.3526,-4.3355,-4.3032,-4.277,-4.357,-4.5033,-4.4605,-4.538,-4.706,-4.7398,-4.7632,-4.7793,-4.7915,-4.8151,-4.8306,-4.8035,-4.7955,-4.8065,0.0,0.0,0.0,0.0,0.0,0.0,0.0,0.0,0.0,0.0,-2.0281,-2.0319,0.0,0.0,0.0,0.0,0.0,0.0,0.0,0.0,-2.0312,-2.0312,-2.0312,-2.0312,-2.0312,-2.0619,-2.1389,-2.2581,-2.2269,-2.1623,-2.0706,0.0,-2.1396,-2.1309,0.0,-2.2637,-2.2637,-2.3049,-2.3055,-2.283,-2.3565,-2.3768,-2.3634,0.0,0.0,0.0,0.0,0.0,0.0,0.0,0.0,0.0,0.0,0.0,0.0,-2.4209,-2.4779,-2.5461,-2.552,0.0,0.0,0.0,0.0,0.0,0.0,0.0,0.0,0.0,0.0,0.0,0.0,0.0,0.0,0.0,0.0,0.0,0.0,0.0,0.0,0.0,0.0,-4.0427,-4.0492,-4.0068,-3.9962,-4.0487,-4.0997,-4.1646,-4.2569,-4.3119,-4.3526,-4.3823,-4.3892,-4.3892,-4.3892,-4.3986,-4.3986,-4.3892,-4.3892,-4.3758,-4.3594,-4.332,-4.3832,-4.4963,-4.4992,-4.5848,-4.7243,-4.7849,-4.8114,-4.8114,-4.8269,-4.8421,-4.8605,-4.8383,-4.8307,-4.8418,0.0,0.0,-2.0418,-2.0398,0.0,0.0,0.0,0.0,0.0,0.0,-2.0304,-2.0296,0.0,0.0,0.0,0.0,0.0,0.0,0.0,0.0,-2.0312,-2.0312,-2.0312,-2.0312,-2.0312,-2.1004,-2.1043,-2.0312,-2.1119,-2.1013,0.0,0.0,-2.2248,-2.2179,0.0,-2.3497,-2.3571,-2.4361,-2.4294,-2.3671,-2.4407,-2.4629,-2.4513,-2.4375,0.0,0.0,0.0,0.0,0.0,0.0,0.0,0.0,0.0,0.0,-2.4209,-2.421,-2.4818,-2.5537,0.0,0.0,0.0,0.0,0.0,0.0,0.0,0.0,0.0,0.0,0.0,0.0,0.0,0.0,0.0,0.0,0.0,0.0,0.0,0.0,0.0,0.0,-4.0756,-4.0337,-4.0493,-3.9426,-3.9221,-4.0419,-4.0328,-4.1035,-4.2885,-4.2855,-4.3208,-4.399,-4.4028,-4.4065,-4.414,-4.4383,-4.4383,-4.414,-4.414,-4.414,-4.414,-4.3693,-4.3597,-4.3882,-4.5222,-4.6061,-4.6549,-4.7709,-4.8192,-4.8231,-4.8495,-4.8678,-4.8678,-4.8678,-4.8642,-4.8753,0.0,0.0,-2.0404,-2.0418,0.0,0.0,0.0,0.0,0.0,0.0,0.0,0.0,0.0,0.0,0.0,0.0,0.0,0.0,0.0,0.0,-2.0312,-2.0312,-2.0312,-2.0312,-2.0312,-2.0465,-2.0465,-2.0312,-2.1795,0.0,0.0,0.0,0.0,-2.3061,0.0,-2.4372,-2.4441,-2.4601,-2.4595,-2.4445,-2.4632,-2.4629,-2.4513,-2.4479,-2.4393,0.0,0.0,0.0,0.0,0.0,0.0,0.0,-2.419,-2.419,-2.4209,-2.421,-2.4818,-2.5667,0.0,0.0,0.0,0.0,0.0,0.0,0.0,0.0,0.0,0.0,0.0,0.0,0.0,0.0,0.0,0.0,0.0,0.0,0.0,0.0,0.0,-3.9751,-3.9069,-3.8898,-3.9597,-3.8798,-3.8648,-3.9675,-4.0285,-4.0798,-4.1278,-4.189,-4.2575,-4.3437,-4.3465,-4.3774,-4.4411,-4.4468,-4.4468,-4.4411,-4.4411,-4.4411,-4.4411,-4.4109,-4.4188,-4.4757,-4.6661,-4.7307,-4.7058,-4.8414,-4.8959,-4.8959,-4.8925,-4.9061,-4.9262,-4.9027,-4.8887,-4.9111,0.0,0.0,0.0,0.0,0.0,0.0,0.0,0.0,0.0,0.0,0.0,0.0,0.0,0.0,0.0,0.0,0.0,0.0,-2.0304,-2.0304,-2.0296,-2.0289,-2.0289,-2.0281,-2.0312,-2.0312,-2.0288,-2.0208,0.0,0.0,0.0,0.0,0.0,-2.3337,0.0,-2.4666,-2.4682,-2.4692,-2.4707,-2.4707,-2.4707,-2.466,-2.4596,-2.451,-2.453,-2.451,-2.4459,0.0,0.0,0.0,0.0,0.0,0.0,0.0,-2.4321,-2.4266,-2.4894,-2.5801,0.0,0.0,0.0,0.0,0.0,0.0,0.0,0.0,0.0,0.0,0.0,0.0,0.0,0.0,0.0,0.0,0.0,0.0,0.0,0.0,0.0,-3.8152,-3.7829,-3.7929,-3.8802,-3.8465,-3.8577,-3.9489,-3.9939,-4.0378,-4.0778,-4.1191,-4.183,-4.2656,-4.3069,-4.3294,-4.3294,-4.412,-4.4308,-4.3933,-4.4346,-4.4496,-4.4496,-4.4354,-4.4393,-4.4724,-4.6557,-4.7136,-4.694,-4.8543,-4.9197,-4.9197,-4.923,-4.9327,-4.9459,-4.9295,-4.9193,-4.9384,0.0,0.0,0.0,0.0,0.0,0.0,0.0,0.0,0.0,0.0,0.0,0.0,0.0,0.0,0.0,0.0,0.0,0.0,-2.0294,-2.0294,-2.0287,-2.0311,-2.0311,-2.0289,-2.0257,-2.0257,-2.0208,0.0,0.0,0.0,0.0,0.0,0.0,-2.3577,0.0,-2.4698,-2.4698,-2.4692,-2.4707,-2.4707,-2.4707,-2.4707,-2.4707,-2.4575,-2.4579,-2.4624,-2.4601,-2.4595,-2.4572,-2.45,0.0,0.0,0.0,0.0,-2.453,-2.4428,-2.4978,-2.5806,0.0,0.0,0.0,0.0,0.0,0.0,0.0,0.0,0.0,0.0,0.0,0.0,0.0,0.0,0.0,0.0,0.0,0.0,0.0,0.0,-3.6932,-3.698,-3.6892,-3.7141,-3.8,-3.7962,-3.83,-3.9276,-3.9352,-3.9727,-4.0553,-4.0591,-4.0966,-4.1792,-4.2506,-4.2607,-4.207,-4.3369,-4.3847,-4.3375,-4.4148,-4.4496,-4.4496,-4.4496,-4.4411,-4.4437,-4.5835,-4.6414,-4.6466,-4.8087,-4.8861,-4.9006,-4.9202,-4.9377,-4.949,-4.949,-4.9427,-4.9551,0.0,0.0,0.0,0.0,0.0,0.0,0.0,0.0,0.0,0.0,-2.0334,-2.0328,0.0,0.0,-2.0301,-2.0283,-2.0308,-2.0294,-2.0294,0.0,0.0,-2.0294,-2.0294,-2.025,-2.0152,-2.0143,-2.005,0.0,0.0,0.0,0.0,0.0,0.0,-2.4516,0.0,0.0,-2.4692,-2.4707,-2.4707,-2.4707,-2.4707,-2.4738,-2.4798,-2.4783,-2.4374,-2.3966,-2.4739,-2.4458,-2.3795,-2.4568,-2.476,0.0,0.0,0.0,-2.4692,-2.4716,-2.4836,0.0,0.0,0.0,0.0,0.0,0.0,0.0,0.0,0.0,0.0,0.0,0.0,0.0,0.0,0.0,0.0,0.0,0.0,0.0,0.0,0.0,-3.698,-3.7004,-3.6452,-3.6385,-3.7174,-3.661,-3.6836,-3.8375,-3.8488,-3.8863,-3.969,-3.9789,-4.014,-4.0929,-4.1079,-4.1481,-4.2229,-4.2309,-4.2761,-4.3591,-4.4191,-4.4496,-4.4496,-4.4496,-4.4468,-4.4515,-4.5298,-4.5649,-4.5693,-4.6657,-4.7479,-4.8183,-4.8302,-4.8852,-4.949,-4.949,-4.9427,-4.9551,0.0,0.0,0.0,0.0,0.0,0.0,0.0,0.0,0.0,0.0,0.0,-2.0373,0.0,0.0,-2.0366,-2.0373,-2.0366,-2.0308,-2.0265,-2.0689,-2.0743,-2.0216,-2.0178,-2.0143,-2.0041,-2.0031,0.0,0.0,0.0,0.0,0.0,-2.3941,-2.4714,0.0,0.0,0.0,0.0,0.0,-2.4707,-2.467,-2.4249,-2.4369,-2.4737,-2.4327,-2.432,-2.4537,-2.4956,-2.4803,-2.4512,-2.4801,-2.4861,-2.479,-2.4716,0.0,0.0,0.0,-2.4864,0.0,0.0,0.0,0.0,0.0,0.0,0.0,0.0,0.0,0.0,0.0,0.0,0.0,0.0,0.0,0.0,0.0,0.0,0.0,0.0,0.0,-3.5781,-3.5687,-3.5526,-3.576,-3.647,-3.6637,-3.723,-3.8567,-3.8991,-3.9339,-3.9777,-3.9851,-4.0063,-4.0283,-4.0814,-4.1136,-4.1127,-4.1911,-4.2754,-4.3601,-4.3857,-4.4221,-4.4636,-4.4551,-4.4468,-4.4477,-4.5215,-4.5791,-4.6147,-4.6576,-4.751,-4.8632,-4.8302,-4.8739,-4.949,-4.9427,-4.9358,-4.9476,0.0,0.0,0.0,0.0,0.0,0.0,0.0,0.0,0.0,0.0,0.0,0.0,0.0,0.0,0.0,0.0,-2.0978,-2.0935,-2.0809,-2.1423,-2.1473,-2.0756,-2.0747,-2.0623,-2.0335,-2.0365,0.0,0.0,0.0,0.0,-2.2304,-2.3971,-2.4791,0.0,-2.4723,0.0,0.0,0.0,0.0,0.0,-2.4148,-2.4327,-2.4809,-2.4282,-2.436,-2.4841,-2.5031,-2.503,-2.4862,-2.4956,-2.4968,-2.4955,-2.4874,-2.4942,0.0,0.0,0.0,0.0,0.0,0.0,0.0,0.0,0.0,0.0,0.0,0.0,0.0,0.0,0.0,0.0,0.0,0.0,0.0,0.0,0.0,0.0,0.0,-3.4812,-3.4889,-3.4733,-3.4943,-3.5314,-3.5818,-3.6596,-3.7509,-3.8478,-3.9241,-3.9751,-3.9979,-4.012,-4.0139,-3.9979,-4.0692,-4.0826,-4.0286,-4.1896,-4.2924,-4.3392,-4.3809,-4.4303,-4.4896,-4.4777,-4.4595,-4.4524,-4.5077,-4.5679,-4.6302,-4.6233,-4.713,-4.852,-4.7815,-4.8213,-4.9152,-4.9059,-4.9139,-4.9402,0.0,0.0,0.0,0.0,0.0,0.0,0.0,0.0,0.0,0.0,0.0,0.0,0.0,-2.285,-2.2843,-2.2791,-2.267,-2.2566,-2.2484,-2.2511,-2.2511,-2.2462,-2.2537,0.0,0.0,0.0,0.0,0.0,0.0,0.0,-2.2439,-2.4117,-2.4968,-2.508,-2.4804,-2.4738,-2.4813,0.0,0.0,0.0,-2.4864,-2.4942,-2.507,-2.5032,-2.4586,-2.406,-2.4912,-2.4683,-2.411,-2.4912,-2.5203,-2.5176,-2.5176,-2.5198,-2.5192,0.0,0.0,0.0,0.0,0.0,0.0,0.0,0.0,0.0,0.0,0.0,0.0,0.0,0.0,0.0,0.0,0.0,0.0,0.0,0.0,0.0,0.0,-3.5016,-3.5098,-3.5081,-3.5098,-3.5098,-3.5174,-3.5954,-3.6795,-3.7597,-3.8476,-3.9317,-4.0157,-4.0196,-4.0196,-4.0196,-4.0234,-4.0325,-4.0469,-4.2129,-4.2887,-4.2774,-4.434,-4.5142,-4.518,-4.518,-4.5011,-4.4751,-4.4551,-4.4878,-4.5499,-4.4803,-4.5439,-4.6732,-4.609,-4.6824,-4.8251,-4.8197,-4.8652,-4.9407,0.0,0.0,0.0,0.0,0.0,0.0,0.0,0.0,0.0,0.0,0.0,0.0,0.0,-2.2985,-2.2985,-2.2979,-2.3311,-2.3312,-2.2747,-2.3084,-2.3068,-2.2498,-2.2462,0.0,0.0,0.0,0.0,0.0,0.0,-2.3156,-2.3194,-2.4289,-2.4874,-2.4981,-2.4818,-2.4842,-2.4915,-2.4874,0.0,0.0,-2.4385,-2.4563,-2.5044,0.0,0.0,0.0,0.0,0.0,0.0,-2.6588,-2.6512,-2.6036,-2.6085,-2.5713,-2.5262,-2.5283,0.0,0.0,0.0,0.0,0.0,0.0,0.0,0.0,0.0,0.0,0.0,0.0,0.0,0.0,0.0,0.0,0.0,0.0,0.0,0.0,0.0,-3.5162,-3.5239,-3.5114,-3.5336,-3.5418,-3.5321,-3.6535,-3.754,-3.7949,-3.9169,-4.0044,-4.0389,-4.0523,-4.0539,-4.0389,-4.0523,-4.0882,-4.1479,-4.2044,-4.2803,-4.3673,-4.4249,-4.4863,-4.54,-4.5263,-4.5243,-4.5245,-4.4988,-4.5231,-4.5688,-4.4806,-4.5472,-4.6957,-4.6636,-4.7237,-4.8251,-4.8721,-4.9064,-4.9295,0.0,0.0,0.0,0.0,0.0,-2.3322,0.0,0.0,0.0,0.0,0.0,0.0,0.0,0.0,-2.3744,-2.3713,-2.41,-2.4111,-2.3554,-2.3876,-2.384,-2.3247,-2.3246,0.0,0.0,0.0,0.0,0.0,0.0,0.0,0.0,0.0,-2.4955,-2.5031,-2.4953,-2.4953,0.0,0.0,0.0,-2.4943,0.0,-2.4636,-2.5132,0.0,0.0,0.0,0.0,0.0,0.0,0.0,0.0,0.0,0.0,0.0,0.0,0.0,0.0,0.0,0.0,0.0,0.0,0.0,0.0,0.0,0.0,0.0,0.0,0.0,0.0,0.0,0.0,0.0,0.0,0.0,0.0,0.0,0.0,-3.5378,-3.5432,-3.5321,-3.5521,-3.5747,-3.5894,-3.7192,-3.8196,-3.8593,-3.9882,0.0,-4.0598,-4.0733,-4.0733,-4.0598,-4.1003,-4.1467,-4.197,-4.2589,-4.3347,-4.4322,-4.4592,-4.5032,-4.5594,-4.5473,-4.5455,-4.5509,-4.5381,-4.5573,-4.5911,-4.5066,-4.5466,-4.6684,-4.6403,-4.6882,-4.7875,-4.8278,-4.8808,-4.9257,0.0,-2.0612,-2.0845,-2.1655,-2.2505,-2.3397,0.0,0.0,0.0,0.0,0.0,0.0,0.0,0.0,0.0,-2.5126,-2.5115,-2.5056,-2.4929,-2.4915,-2.4902,-2.4915,-2.5043,0.0,0.0,0.0,0.0,0.0,0.0,0.0,0.0,0.0,-2.5171,0.0,-2.5168,-2.5082,-2.5082,0.0,-2.5132,-2.5191,0.0,-2.5252,-2.5317,0.0,0.0,0.0,-2.752,-2.7838,0.0,-2.7877,0.0,0.0,0.0,0.0,0.0,0.0,0.0,0.0,0.0,0.0,0.0,0.0,0.0,0.0,0.0,0.0,0.0,0.0,0.0,0.0,0.0,0.0,0.0,0.0,0.0,0.0,0.0,-3.5596,-3.5704,-3.5704,-3.5704,-3.6052,-3.6826,-3.7715,-3.8605,-3.9429,-4.0307,-4.081,-4.081,-4.081,-4.081,-4.081,-4.1583,-4.2009,-4.2048,-4.375,-4.4601,-4.4639,-4.5413,-4.58,-4.58,-4.58,-4.5688,-4.5526,-4.5526,-4.5764,-4.613,-4.5398,-4.5428,-4.5806,-4.5129,-4.5741,-4.7012,-4.6831,-4.7878,-4.9257,-2.0612,-2.0612,-2.0886,-2.1702,-2.255,-2.3391,0.0,0.0,0.0,0.0,0.0,0.0,0.0,0.0,0.0,-2.5332,-2.5241,-2.516,-2.5175,-2.4993,-2.4955,-2.5056,-2.4994,0.0,0.0,0.0,0.0,0.0,0.0,0.0,0.0,0.0,0.0,0.0,-2.5198,-2.5187,-2.5176,-2.5164,0.0,0.0,-2.5872,-2.614,0.0,0.0,0.0,0.0,0.0,-2.8729,-2.8829,0.0,-2.8725,-2.7334,0.0,0.0,0.0,0.0,0.0,0.0,-2.5378,0.0,0.0,0.0,0.0,0.0,-2.6867,-2.7263,-2.7774,0.0,0.0,0.0,0.0,0.0,0.0,0.0,0.0,0.0,0.0,-3.5643,-3.5704,-3.5704,-3.6207,-3.6671,-3.6864,-3.8257,-3.9224,0.0,-4.0307,-4.081,-4.081,-4.081,-4.081,-4.081,-4.1583,-4.2318,-4.2937,-4.4059,-4.491,-4.5452,-4.5684,-4.58,-4.58,-4.58,-4.5786,-4.5703,-4.5703,-4.5742,-4.5781,-4.5339,-4.5333,-4.5617,-4.6328,-4.6883,-4.7305,-4.8258,-4.8851,-4.923,-2.0612,-2.0612,-2.0964,-2.2174,-2.3054,-2.4004,0.0,0.0,0.0,0.0,0.0,0.0,0.0,0.0,0.0,-2.64,-2.5992,-2.5894,-2.6341,-2.5509,-2.522,-2.5646,-2.5271,0.0,0.0,0.0,0.0,0.0,0.0,0.0,0.0,0.0,0.0,0.0,0.0,0.0,0.0,0.0,0.0,0.0,-2.5943,0.0,0.0,-2.7489,-2.7857,0.0,0.0,0.0,-2.9781,-3.0271,-2.955,0.0,0.0,0.0,0.0,0.0,0.0,0.0,0.0,0.0,0.0,0.0,0.0,0.0,-2.618,-2.645,-2.7069,0.0,0.0,0.0,0.0,0.0,0.0,0.0,0.0,0.0,0.0,0.0,-3.5704,-3.5704,-3.6091,-3.6671,-3.7367,-3.8373,-3.9262,-3.9997,-4.05,-4.081,-4.081,-4.081,-4.0965,-4.1274,-4.2125,-4.2976,-4.3827,-4.4678,-4.5336,-4.58,-4.58,-4.58,-4.58,-4.58,-4.58,-4.58,-4.58,-4.5771,-4.5735,-4.5547,-4.5649,-4.5994,-4.674,-4.7424,-4.8074,-4.8749,-4.9145,-4.9352,0.0,-2.0884,-2.1388,-2.2949,-2.3894,0.0,0.0,0.0,0.0,0.0,0.0,0.0,0.0,0.0,0.0,0.0,-2.7071,-2.6968,-2.7762,-2.6343,0.0,0.0,0.0,0.0,0.0,0.0,0.0,0.0,0.0,0.0,0.0,0.0,0.0,0.0,-2.5203,-2.5262,0.0,0.0,0.0,-2.6606,-2.5887,-2.6079,0.0,0.0,-2.817,-2.8373,-2.9897,-3.0458,-3.049,-3.0413,-2.9911,0.0,0.0,0.0,0.0,0.0,-2.6301,0.0,0.0,0.0,0.0,0.0,-2.6837,0.0,-2.5956,-2.6257,-2.6953,-2.7813,0.0,0.0,0.0,0.0,0.0,0.0,0.0,0.0,0.0,0.0,-3.5704,-3.5704,-3.5858,-3.6555,-3.8063,-3.8373,-3.9146,-4.0694,-4.081,-4.081,-4.081,-4.0887,-4.1274,-4.197,-4.2937,-4.3827,-4.4601,-4.5413,-4.58,-4.58,-4.58,-4.58,-4.58,-4.58,-4.58,-4.58,-4.58,-4.5786,-4.5819,-4.5896,-4.6249,-4.6762,-4.68,-4.7737,-4.9006,-4.8719,-4.9032,-4.9558,-2.2614,-2.2589,-2.2859,-2.3902,0.0,0.0,0.0,0.0,0.0,0.0,0.0,0.0,0.0,0.0,0.0,0.0,0.0,-2.7608,-2.78,0.0,0.0,0.0,0.0,0.0,0.0,0.0,0.0,0.0,0.0,0.0,0.0,0.0,0.0,0.0,0.0,0.0,0.0,0.0,0.0,-2.7595,-2.747,0.0,-2.8758,-2.9648,-3.0006,-3.0045,-3.0353,-3.0479,-3.0413,-2.9728,-2.9854,-3.0047,0.0,0.0,0.0,-2.8577,0.0,0.0,0.0,0.0,0.0,0.0,-2.7735,0.0,-2.7542,-2.7078,-2.6953,0.0,0.0,0.0,0.0,0.0,0.0,0.0,0.0,0.0,0.0,0.0,-3.5704,-3.5704,-3.6903,-3.7831,-3.8179,-3.9456,-4.0423,-4.0771,-4.081,-4.081,-4.081,-4.139,-4.1854,-4.2009,-4.3518,-4.4446,-4.4601,-4.5413,-4.58,-4.58,-4.58,-4.58,-4.58,-4.58,-4.58,-4.58,-4.58,-4.5786,-4.5858,-4.6522,-4.6877,-4.7069,-4.7549,-4.8356,-4.9238,-4.9416,-4.9523,-4.9634,-2.3671,-2.372,-2.4117,-2.5356,0.0,0.0,0.0,0.0,0.0,0.0,0.0,0.0,0.0,0.0,0.0,0.0,0.0,0.0,0.0,0.0,0.0,0.0,0.0,0.0,0.0,0.0,0.0,0.0,0.0,0.0,0.0,0.0,0.0,0.0,0.0,0.0,0.0,0.0,-2.6776,-2.7856,-2.746,0.0,-2.9301,-3.0171,-3.0258,-3.0008,-3.0858,-3.1128,-3.11,-3.0685,-3.0811,0.0,-3.0211,-2.9631,-2.9282,0.0,-2.8973,-2.8664,0.0,0.0,0.0,-2.8758,-2.8642,0.0,0.0,-2.7721,-2.7636,-2.8504,0.0,0.0,0.0,0.0,0.0,0.0,0.0,0.0,0.0,0.0,0.0,-3.5707,-3.682,-3.7777,-3.8152,-3.9391,-4.0307,-4.0771,-4.081,-4.081,-4.081,-4.1545,-4.2202,-4.2628,-4.3904,-4.4794,-4.5181,-4.5606,-4.58,-4.58,-4.58,-4.58,-4.58,-4.58,-4.58,-4.58,-4.58,-4.58,-4.5849,-4.6692,-4.731,-4.7789,-4.8467,-4.9276,-5.0103,-5.0007,-5.0149,-5.0402,-2.4752,-2.4992,-2.5585,-2.711,0.0,0.0,0.0,0.0,0.0,0.0,0.0,0.0,0.0,0.0,0.0,0.0,0.0,0.0,0.0,0.0,0.0,0.0,0.0,-2.8412,0.0,0.0,0.0,0.0,0.0,0.0,0.0,0.0,0.0,0.0,0.0,0.0,0.0,0.0,0.0,-2.8608,0.0,-2.8377,-2.9564,-3.0423,-3.0356,-2.9999,-3.1496,-3.2048,-3.2068,-3.2068,-3.2145,-3.2145,-3.1333,-3.0607,0.0,0.0,0.0,0.0,0.0,0.0,0.0,0.0,0.0,-2.9347,0.0,0.0,0.0,0.0,0.0,0.0,0.0,0.0,0.0,0.0,0.0,0.0,0.0,0.0,0.0,-3.5437,-3.6231,-3.714,-3.8109,-3.9131,-4.0048,-4.0732,-4.081,-4.0848,-4.1003,-4.1816,-4.2667,-4.3518,-4.4369,-4.5142,-4.58,-4.58,-4.58,-4.58,-4.58,-4.58,-4.58,-4.58,-4.58,-4.58,-4.58,-4.5877,-4.6109,-4.6955,-4.7844,-4.8616,-4.9264,-5.0069,-5.0841,-5.0363,-5.0607,-5.1152,-2.6605,-2.7188,-2.7962,-2.8868,0.0,0.0,0.0,0.0,0.0,0.0,0.0,0.0,0.0,0.0,0.0,0.0,0.0,0.0,-3.1515,0.0,0.0,0.0,0.0,0.0,-3.0209,0.0,0.0,0.0,0.0,0.0,0.0,0.0,0.0,0.0,-2.7884,0.0,0.0,0.0,-2.9931,0.0,-3.1246,-3.0878,0.0,-3.1313,-3.1594,-3.1632,-3.2599,-3.2947,-3.2947,0.0,-3.346,-3.3935,0.0,-3.2755,-3.2532,-3.1823,0.0,0.0,0.0,0.0,0.0,0.0,-3.0466,-3.0233,-2.9427,0.0,-2.9078,-2.8388,0.0,0.0,0.0,0.0,0.0,0.0,0.0,0.0,-3.1072,0.0,0.0,-3.4545,-3.535,-3.6474,-3.8141,-3.9708,-4.0692,-4.0784,-4.081,-4.1119,-4.1816,-4.2667,-4.3556,-4.4407,-4.522,-4.5722,-4.58,-4.58,-4.58,-4.58,-4.58,-4.58,-4.58,-4.58,-4.58,-4.58,-4.58,-4.6225,-4.7038,-4.7844,-4.8709,-4.9537,-4.9583,-5.0146,-5.0846,-5.0363,-5.0631,-5.1319,-2.775,-2.8293,-2.9109,-2.9892,0.0,0.0,0.0,0.0,0.0,0.0,0.0,0.0,0.0,0.0,0.0,0.0,0.0,-3.21,0.0,0.0,0.0,0.0,0.0,0.0,0.0,0.0,0.0,0.0,-2.9574,0.0,0.0,0.0,0.0,0.0,-2.9496,0.0,-3.0095,0.0,-3.0907,0.0,0.0,0.0,0.0,-3.2803,-3.3305,-3.3344,-3.3713,-3.3829,-3.3916,0.0,-3.4555,0.0,0.0,0.0,0.0,-3.2607,0.0,0.0,0.0,0.0,0.0,0.0,0.0,0.0,-3.1864,-3.1631,-3.1507,-3.1173,0.0,0.0,0.0,0.0,0.0,0.0,-3.1623,0.0,0.0,0.0,-3.2858,0.0,0.0,0.0,-3.8789,-3.9193,-3.9491,-4.001,-4.05,-4.0965,-4.1274,-4.3053,-4.4214,-4.4601,-4.5374,-4.58,-4.58,-4.58,-4.58,-4.58,-4.58,-4.58,-4.58,-4.58,-4.58,-4.5838,-4.6341,-4.6767,-4.7192,-4.857,-4.9328,-4.9676,-5.0178,-5.0565,-5.0841,-5.0547,-5.1117,-5.1992,-2.8611,0.0,0.0,0.0,0.0,0.0,0.0,0.0,0.0,0.0,0.0,0.0,-3.4013,-3.3859,0.0,0.0,-3.3782,-3.3473,0.0,0.0,-3.2431,0.0,0.0,0.0,0.0,0.0,0.0,0.0,0.0,0.0,0.0,0.0,0.0,0.0,0.0,-3.0887,-3.1352,0.0,0.0,-3.2058,-3.2687,-3.2928,-3.3045,-3.4032,-3.4574,-3.4768,-3.4749,-3.4749,-3.4836,-3.5505,-3.5321,0.0,-3.5524,-3.4477,-3.3081,0.0,0.0,0.0,-3.3563,0.0,0.0,0.0,0.0,0.0,-3.3713,-3.3596,-3.351,-3.3332,-3.3487,0.0,0.0,0.0,0.0,0.0,0.0,-3.2283,0.0,0.0,0.0,0.0,0.0,0.0,0.0,-3.8584,-3.8562,-3.9429,-3.9843,-4.0384,-4.1081,-4.2899,-4.4214,-4.491,-4.549,-4.58,-4.58,-4.58,-4.58,-4.58,-4.58,-4.58,-4.58,-4.58,-4.5916,-4.6187,-4.6844,-4.7386,-4.7927,-4.9165,-4.9807,-5.0008,-5.0658,-5.0906,-5.0874,-5.0663,-5.148,-5.259,-2.9291,-2.994,0.0,0.0,0.0,0.0,0.0,0.0,0.0,0.0,0.0,0.0,0.0,0.0,0.0,0.0,0.0,-3.4687,-3.5465,0.0,-3.3063,0.0,0.0,-3.3024,0.0,0.0,0.0,0.0,0.0,0.0,0.0,0.0,0.0,0.0,0.0,-3.1551,-3.3102,-3.314,-3.4071,-3.5553,-3.5592,-3.5592,-3.5514,0.0,-3.4972,-3.567,-3.567,0.0,0.0,-3.5708,-3.567,0.0,0.0,0.0,0.0,0.0,0.0,0.0,0.0,0.0,0.0,-3.5546,0.0,-3.3526,-3.4303,-3.4459,-3.4225,-3.3448,-3.3915,-3.4225,-3.3448,0.0,0.0,0.0,0.0,0.0,0.0,0.0,0.0,0.0,0.0,0.0,0.0,-3.8306,-3.8634,-3.9429,-3.8721,-3.9379,-4.1816,-4.2048,-4.3208,-4.5684,-4.58,-4.58,-4.58,-4.58,-4.58,-4.58,-4.58,-4.58,-4.58,-4.58,-4.6264,-4.7076,-4.7076,-4.8043,-4.9629,-4.9668,-5.0171,-5.0851,-5.0906,-5.0906,-5.0874,-5.0663,-5.1624,-5.2893,-3.0172,0.0,0.0,0.0,0.0,0.0,0.0,-3.2803,0.0,0.0,0.0,0.0,0.0,-3.751,-3.7549,0.0,0.0,-3.6787,-3.6466,-3.5422,0.0,0.0,0.0,-3.3383,0.0,0.0,0.0,0.0,0.0,0.0,0.0,0.0,0.0,0.0,0.0,-3.2645,0.0,0.0,0.0,0.0,0.0,-3.5241,-3.5715,0.0,-3.5476,-3.5708,-3.5766,-3.5766,0.0,-3.6414,-3.6608,-3.6725,-3.7325,-3.713,-3.6664,-3.6673,-3.6246,-3.6051,0.0,0.0,-3.7294,-3.8149,-3.7528,-3.6751,-3.7023,-3.6634,-3.6129,-3.5857,-3.6012,-3.5974,-3.5119,0.0,0.0,0.0,0.0,0.0,0.0,0.0,0.0,0.0,0.0,0.0,0.0,0.0,-3.6908,-3.7715,-3.8025,-3.9069,-4.1081,-4.2241,-4.375,-4.5722,-4.58,-4.58,-4.58,-4.58,-4.58,-4.58,-4.58,-4.58,-4.58,-4.638,-4.6806,-4.7154,-4.8314,-4.9165,-4.9745,-5.0287,-5.0674,-5.0906,-5.0906,-5.089,-5.0974,-5.1408,-5.2184,-5.3069,-3.0984,-3.1023,0.0,0.0,0.0,0.0,0.0,0.0,0.0,0.0,-3.7135,0.0,-3.8605,0.0,-3.9108,0.0,-3.8837,-3.8411,-3.787,-3.7058,0.0,-3.6593,-3.524,-3.4698,0.0,0.0,0.0,0.0,0.0,-3.32,0.0,0.0,0.0,0.0,0.0,0.0,-3.3757,0.0,-3.562,0.0,0.0,-3.5771,0.0,0.0,-3.6008,-3.5775,0.0,-3.6259,-3.6423,-3.7256,-3.7566,-3.7722,-3.8576,-3.8499,-3.8071,-3.8382,-3.8033,-3.7877,-3.8965,-3.9082,-3.9082,-3.9897,-3.9276,-3.846,-3.8771,-3.8421,-3.7955,-3.7644,-3.7566,-3.7294,-3.644,0.0,0.0,0.0,0.0,0.0,0.0,-3.4964,0.0,0.0,0.0,0.0,0.0,-3.6221,-3.6046,-3.6826,-3.7174,-3.8334,0.0,-4.1816,-4.344,-4.5722,-4.58,-4.58,-4.58,-4.58,-4.58,-4.58,-4.58,-4.58,-4.5838,-4.6689,-4.727,-4.7657,-4.9088,-4.9861,-5.0171,-5.0712,-5.0906,-5.0906,-5.0906,-5.1067,-5.1382,-5.194,-5.2589,-5.3364,-3.1642,-3.1835,0.0,0.0,-3.141,0.0,0.0,0.0,-3.6013,0.0,-3.845,-3.9507,-3.9584,-4.0346,-4.0848,-4.081,-4.0036,-3.9545,-3.9507,-3.8721,0.0,0.0,-3.7406,-3.698,-3.7019,0.0,0.0,0.0,0.0,0.0,0.0,0.0,0.0,0.0,-3.3371,0.0,-3.4575,-3.543,-3.6323,-3.7178,-3.7178,-3.7178,-3.7217,-3.7178,-3.6634,-3.6051,-3.6867,-3.7178,-3.7294,-3.8149,-3.846,-3.8615,-3.9509,-3.9781,-3.9897,-4.0674,-4.0907,-4.0907,-4.0907,-4.0325,-3.9936,-4.0752,-3.9742,-3.8771,-3.9664,-3.9858,-3.9587,-3.8771,-3.8576,-3.8305,-3.7411,-3.6518,0.0,0.0,0.0,0.0,0.0,0.0,-3.5879,0.0,0.0,0.0,0.0,-3.6211,-3.6007,-3.6787,-3.6129,0.0,0.0,-4.0771,-4.2318,-4.5645,-4.5761,-4.58,-4.58,-4.58,-4.58,-4.58,-4.58,-4.58,-4.5877,-4.6767,-4.7657,-4.8508,-4.9397,-5.021,-5.0906,-5.089,-5.089,-5.089,-5.0929,-5.1476,-5.2215,-5.2266,-5.2909,-5.3812,-3.1642,-3.2328,-3.2676,0.0,-3.3151,-3.3808,0.0,0.0,0.0,0.0,-3.8798,-3.9739,-4.0384,-4.1197,-4.1429,-4.0848,-4.0578,0.0,0.0,0.0,0.0,-3.8218,-3.7986,-3.8179,-3.8798,-3.7135,-3.6566,-3.7207,0.0,0.0,-3.5115,0.0,0.0,0.0,0.0,0.0,-3.4575,-3.543,-3.6673,-3.8071,-3.8071,-3.846,-3.8965,0.0,-3.7916,-3.7761,-3.7994,-3.8071,-3.8188,-3.9082,-3.9353,-3.9509,-4.0325,-4.0597,-4.0635,-4.083,-4.0907,-4.0907,-4.0907,-4.0752,-4.0791,-4.1646,-4.1063,-4.0674,-4.2189,-4.2034,-4.149,-4.1257,-4.1218,-4.0791,-3.9315,-3.8305,0.0,0.0,0.0,0.0,0.0,0.0,0.0,-3.7579,0.0,-3.6531,-3.6095,-3.5841,-3.5792,-3.5974,-3.582,0.0,0.0,0.0,-4.2048,-4.4833,-4.549,-4.58,-4.58,-4.58,-4.58,-4.58,-4.58,-4.6148,-4.6806,-4.7657,-4.8546,-4.9397,-5.0248,-5.0712,-5.089,-5.0913,-5.0897,-5.0974,-5.1541,-5.2512,-5.358,-5.3596,-5.3989,-5.4503,-3.2687,-3.3654,0.0,-3.4234,0.0,0.0,-3.4969,-3.6013,0.0,-3.8605,-4.0152,0.0,-4.1313,-4.2086,-4.2396,-4.1932,-4.1235,0.0,-4.0578,0.0,0.0,-3.9379,-3.934,-3.9379,-3.9507,-3.8152,0.0,-3.7672,0.0,0.0,-3.5784,0.0,0.0,0.0,0.0,-3.508,0.0,-3.6401,-3.7489,-3.8421,-3.881,-3.9276,0.0,-3.9159,-3.9198,-3.947,-3.947,-3.9276,-3.9082,-3.9936,-4.0208,-4.0286,-4.0752,-4.0907,-4.0907,-4.0907,-4.0907,-4.0907,-4.0907,-4.1179,-4.1607,-4.2073,-4.2112,-4.2306,-4.3277,-4.3122,-4.2772,-4.2772,-4.2461,-4.1917,-4.0985,-3.9781,-3.8693,0.0,0.0,0.0,-3.7549,-3.7608,-3.7734,0.0,-3.7799,-3.7323,-3.6848,-3.614,-3.5704,-3.5704,-3.5704,0.0,0.0,0.0,-4.1583,-4.4523,-4.5374,-4.5452,-4.4717,-4.58,-4.5993,-4.5297,-4.6032,-4.6651,-4.7124,-4.8377,-4.9227,-4.9714,-5.0526,-5.0913,-5.0913,-5.0863,-5.0846,-5.0962,-5.2144,-5.3282,-5.4309,-5.4532,-5.4737,-5.4806,-3.4079,0.0,0.0,0.0,0.0,0.0,0.0,-3.7406,0.0,-3.9688,0.0,-4.3015,-4.2241,-4.2937,-4.344,-4.3324,0.0,-4.1235,-4.1932,-4.1235,-4.081,-4.081,-4.0887,-4.0655,-3.9997,-3.9054,-3.8214,0.0,0.0,0.0,0.0,0.0,0.0,0.0,0.0,0.0,0.0,-3.7722,-3.846,-3.8654,-3.9509,-3.9858,-3.9858,-3.9858,-4.0286,-4.0907,-4.0907,-4.0441,-3.9975,-4.0674,-4.0907,-4.0907,-4.0907,-4.0907,-4.0907,-4.0907,-4.0907,-4.0907,-4.1024,-4.1607,-4.2228,-4.2461,-4.3122,-4.3704,-4.3821,-4.3821,-4.3821,-4.3821,-4.3238,-4.2656,-4.2539,-4.1063,-3.9577,0.0,0.0,-3.8336,-3.8452,-3.8549,-3.8595,-3.8573,-3.8523,0.0,-3.8373,-3.6942,-3.6013,-3.6013,-3.6013,0.0,0.0,0.0,-4.1081,-4.4175,-4.5142,-4.4987,-4.3634,-4.58,-4.6264,-4.4949,-4.6419,-4.7163,-4.7326,-4.8941,-4.9714,-4.9798,-5.0571,-5.088,-5.0863,-5.0829,-5.0928,-5.1257,-5.2839,-5.3936,-5.4643,-5.5121,-5.5195,-5.4988,0.0,0.0,0.0,0.0,0.0,-3.7406,-3.9572,-3.8953,-3.903,-4.1274,-4.2589,-4.3247,-4.3092,-4.3866,-4.4098,-4.3363,-4.2357,0.0,0.0,0.0,0.0,-4.081,-4.1429,-4.2048,-4.2628,-4.1132,-4.0266,0.0,0.0,0.0,0.0,0.0,0.0,0.0,0.0,0.0,-3.6945,-3.7955,0.0,-3.9548,-4.0364,-4.0674,-4.0674,-4.0674,-4.0791,-4.0907,-4.0907,-4.0791,-4.0713,-4.0869,-4.0907,-4.0907,-4.0907,-4.0907,-4.0907,-4.0907,-4.0907,-4.1063,-4.1762,-4.2073,-4.2539,-4.3976,-4.4443,-4.4753,-4.5414,-4.5569,-4.5569,-4.5569,-4.5453,-4.5142,-4.4481,-4.2325,-4.0403,-3.952,-3.8802,-3.8549,-3.9275,-3.9951,-4.0355,-4.0355,-4.0331,-4.0048,-3.934,-3.8373,-3.7754,-3.7754,0.0,0.0,0.0,0.0,-4.1158,0.0,-4.3982,-4.4987,0.0,0.0,-4.6225,-4.6651,-4.6955,-4.7457,-4.8183,-4.9125,-4.9958,-5.0687,-5.0769,-5.0829,-5.0829,-5.0738,-5.153,-5.2877,-5.3877,-5.4633,-5.5173,-5.5275,-5.5521,-5.5769,0.0,0.0,0.0,0.0,0.0,0.0,0.0,-4.1081,-4.1274,-4.2512,-4.344,-4.3982,-4.3982,-4.4369,-4.4446,-4.402,-4.2744,-4.2009,-4.2009,-4.1235,-4.081,-4.081,-4.1583,-4.2202,-4.2628,-4.1867,-4.104,-4.0134,0.0,0.0,0.0,0.0,0.0,0.0,0.0,-3.6712,0.0,0.0,0.0,-3.9781,-4.0597,-4.0907,-4.0907,-4.0907,-4.0907,-4.0907,-4.0907,-4.1179,-4.149,-4.1063,-4.0907,-4.0985,-4.1412,-4.1568,-4.1646,-4.2112,-4.2267,-4.2345,-4.2772,-4.3199,-4.3743,-4.4598,-4.5103,-4.553,-4.5919,-4.5997,-4.5997,-4.5997,-4.5997,-4.5725,-4.4888,-4.3712,-4.2604,-4.1701,-4.0854,-4.0405,-4.0831,-4.1195,-4.1415,-4.1415,-4.1441,-4.1274,-4.0848,-4.0036,0.0,0.0,0.0,0.0,0.0,0.0,-4.0887,0.0,0.0,0.0,-4.3827,0.0,-4.6235,-4.5771,-4.7079,-4.8183,-4.8993,-4.9809,-5.0387,-5.0812,-5.0756,-5.0738,-5.0776,-5.1145,-5.2338,-5.3933,-5.4357,-5.4841,-5.5326,-5.5785,-5.5864,-5.5701,0.0,-3.729,0.0,0.0,-3.876,0.0,-4.1932,-4.3015,-4.3634,-4.3827,-4.4446,-4.4871,-4.4871,-4.4871,-4.4794,-4.4601,-4.3169,-4.2202,-4.2009,-4.1235,-4.081,-4.081,-4.1583,-4.2009,-4.2009,-4.2034,-4.1427,0.0,0.0,0.0,0.0,0.0,0.0,0.0,0.0,0.0,0.0,0.0,-3.982,-4.0014,-4.0635,-4.0907,-4.0907,-4.0907,-4.1024,-4.1179,-4.1179,-4.1723,-4.2384,-4.1684,-4.1451,-4.1568,-4.2267,-4.2461,-4.2617,-4.3316,-4.351,-4.3549,-4.3743,-4.4287,-4.4831,-4.5025,-4.553,-4.5997,-4.5997,-4.5997,-4.5997,-4.5997,-4.5997,-4.5792,-4.5099,-4.4816,-4.4405,-4.3528,-4.264,-4.2008,-4.1853,-4.206,-4.2202,-4.2009,-4.2164,-4.2202,-4.2009,0.0,0.0,0.0,0.0,0.0,-4.0965,0.0,0.0,0.0,0.0,-4.3543,-4.2537,0.0,-4.6113,-4.5341,-4.7339,-4.8694,-4.9525,-5.0391,-5.0738,-5.0701,-5.0682,-5.0798,-5.1029,-5.1838,-5.3087,-5.4511,-5.4703,-5.4994,-5.5403,-5.6126,-5.6133,-5.5763,0.0,0.0,0.0,0.0,0.0,0.0,-4.2899,-4.3904,-4.4755,-4.5452,-4.5645,-4.5684,-4.5684,-4.5684,-4.5374,-4.4678,-4.375,-4.286,-4.2048,-4.1235,-4.081,-4.081,-4.1583,-4.2009,-4.2009,-4.2009,-4.1944,0.0,0.0,-3.8916,0.0,0.0,0.0,0.0,0.0,0.0,0.0,-3.9625,-4.013,-4.0791,-4.0869,-4.0907,-4.0907,-4.0907,-4.1374,-4.2073,-4.2073,-4.2656,-4.3355,-4.3277,-4.3277,-4.3277,-4.3355,-4.3394,-4.3394,-4.3471,-4.351,-4.3666,-4.4443,-4.4753,-4.4986,-4.5725,-4.5919,-4.5997,-4.5997,-4.5997,-4.5997,-4.5997,-4.6014,-4.5964,-4.5875,-4.5168,-4.4344,-4.3531,-4.2615,-4.1738,-4.1016,-4.2202,-4.2899,-4.2086,-4.2705,-4.286,-4.2086,-4.1274,0.0,0.0,-4.0539,0.0,0.0,0.0,0.0,-4.2086,-4.2201,-4.2883,-4.4235,-4.4592,-4.5812,-4.7973,-4.8116,-4.8638,-4.9521,-5.0336,-5.0702,-5.0701,-5.0702,-5.1087,-5.1856,-5.2741,-5.3626,-5.4549,-5.528,-5.5493,-5.5339,-5.5835,-5.629,-5.6665,0.0,0.0,0.0,0.0,0.0,0.0,0.0,-4.4794,-4.5452,-4.5761,-4.5374,-4.5258,-4.5761,-4.491,-4.4175,-4.3866,-4.3015,-4.2164,-4.1313,-4.0965,-4.081,-4.081,-4.1119,-4.1506,-4.197,-4.2009,-4.179,0.0,0.0,0.0,0.0,0.0,0.0,0.0,0.0,-3.9043,-3.9781,-4.0752,-4.1374,-4.1723,-4.2267,-4.2461,-4.2461,-4.2461,-4.2694,-4.2966,-4.2966,-4.3549,-4.4287,-4.4287,-4.3938,-4.3588,-4.4132,-4.4287,-4.4365,-4.487,-4.4986,-4.5064,-4.5414,-4.553,-4.5608,-4.5919,-4.5997,-4.5997,-4.5997,-4.5997,-4.5997,-4.5997,-4.6014,-4.5991,-4.5929,-4.5621,-4.5118,-4.4279,-4.3802,-4.3092,-4.1699,-4.3015,-4.3556,-4.2164,-4.2783,-4.3169,-4.2821,-4.1583,0.0,0.0,0.0,0.0,0.0,0.0,0.0,-4.2704,0.0,-4.3265,-4.4423,-4.443,-4.5456,-4.7444,-4.791,-4.8854,-5.022,-5.0529,-5.0721,-5.0741,-5.1202,-5.1895,-5.2741,-5.3626,-5.4472,-5.5259,-5.593,-5.5988,-5.5835,-5.6819,-5.7189,-5.7262,-4.255,0.0,-4.2667,0.0,-4.3672,-4.3904,-4.4523,-4.5297,-4.58,-4.58,-4.5104,-4.4833,-4.5374,-4.4407,-4.3479,-4.2976,-4.2357,-4.1661,-4.0848,-4.081,-4.081,-4.081,-4.081,0.0,-4.1622,-4.1661,-4.1467,-4.1158,-4.0926,0.0,0.0,0.0,0.0,0.0,-3.9636,-4.0199,-4.0548,-4.1956,-4.2578,-4.2656,-4.3238,-4.351,-4.351,-4.351,-4.3666,-4.3899,-4.3899,-4.4443,-4.5142,-4.5142,-4.4753,-4.4326,-4.4948,-4.5142,-4.5258,-4.5841,-4.5997,-4.5997,-4.5997,-4.5997,-4.5997,-4.5997,-4.5997,-4.5997,-4.5997,-4.5997,-4.5997,-4.5986,-4.5991,-4.5956,-4.5905,-4.5867,-4.5595,-4.4755,-4.4601,-4.3982,-4.2241,-4.3518,-4.3943,-4.2202,-4.2783,-4.3285,-4.3285,-4.2009,0.0,0.0,0.0,0.0,0.0,0.0,0.0,0.0,0.0,0.0,-4.3991,-4.4036,-4.5098,-4.7237,-4.7835,-4.9009,-5.0702,-5.0702,-5.0702,-5.0741,-5.1548,-5.2354,-5.3135,-5.4105,-5.4847,-5.5514,-5.6231,-5.6226,-5.6026,-5.7484,-5.7789,-5.7621,-4.4253,-4.3866,-4.3556,-4.4446,-4.4601,-4.4601,-4.4601,-4.5297,-4.58,-4.58,-4.5104,-4.4601,-4.4601,-4.4601,-4.3904,-4.2164,-4.2009,-4.1661,-4.0848,-4.081,-4.081,0.0,0.0,-4.081,-4.081,-4.081,-4.1197,-4.197,0.0,0.0,-4.0742,0.0,-3.8771,-3.9624,-4.0498,-4.1373,-4.2227,-4.3112,-4.3471,-4.351,-4.351,-4.351,-4.351,-4.351,-4.4015,-4.4792,-4.4792,-4.5297,-4.5997,-4.5997,-4.5958,-4.5958,-4.5958,-4.5997,-4.5997,-4.5997,-4.5997,-4.5997,-4.5997,-4.5997,-4.5997,-4.5997,-4.5997,-4.5997,-4.5997,-4.5997,-4.5997,-4.6003,-4.5944,-4.5906,-4.5893,-4.5827,-4.5529,-4.4717,-4.4601,-4.3982,-4.2241,-4.3518,-4.3943,-4.2202,-4.2783,-4.3285,-4.3285,-4.2512,0.0,0.0,0.0,0.0,0.0,0.0,0.0,-4.1899,-4.1099,0.0,-4.3111,-4.3102,-4.4778,-4.8086,-4.8086,-4.9009,-5.0702,-5.0702,-5.0702,-5.0741,-5.1548,-5.2209,-5.2805,-5.4002,-5.4599,-5.4912,-5.6033,-5.608,-5.5723,-5.7377,-5.7789,-5.7621,-4.5297,-4.5181,-4.5104,-4.5374,-4.5413,-4.5413,-4.5413,-4.5645,-4.58,-4.58,-4.5568,-4.522,-4.4678,-4.3556,-4.2589,0.0,-4.1506,-4.1081,0.0,-4.081,-4.081,-4.081,-4.081,-4.081,-4.081,-4.081,-4.0926,-4.1158,0.0,0.0,0.0,-4.1129,-4.1335,-4.2148,-4.2455,-4.2776,-4.3086,-4.3951,-4.4311,-4.4372,-4.4955,-4.5209,-4.5181,-4.5181,-4.5375,-4.5608,-4.5608,-4.5763,-4.5997,-4.5997,-4.5997,-4.5997,-4.5997,-4.5997,-4.5997,-4.5997,-4.5997,-4.5997,-4.5997,-4.5997,-4.5997,-4.5997,-4.5997,-4.5997,-4.5997,-4.5986,-4.6003,-4.5929,-4.5893,-4.5893,-4.5893,-4.5866,-4.5529,-4.4717,-4.5065,-4.4833,-4.3131,-4.3866,-4.4175,-4.3015,-4.3131,-4.3518,-4.4136,-4.3401,0.0,0.0,0.0,0.0,0.0,0.0,0.0,0.0,-4.3288,0.0,-4.4812,-4.4795,-4.5893,-4.8125,-4.8702,-4.9586,-5.0702,-5.1279,-5.151,-5.1567,-5.2801,-5.3451,-5.362,-5.4394,-5.4752,-5.4852,-5.5561,-5.6007,-5.644,-5.734,-5.7965,-5.8364,-4.58,-4.6071,-4.6187,-4.5838,-4.58,-4.58,-4.58,-4.58,-4.58,-4.58,-4.58,-4.549,-4.4678,-4.3324,0.0,-4.2048,-4.1274,-4.081,-4.081,-4.081,-4.081,-4.081,-4.081,-4.081,-4.081,-4.081,0.0,-4.081,-4.081,-4.1042,-4.1545,-4.1918,-4.2344,-4.286,-4.3543,-4.3865,-4.3904,-4.4769,-4.5142,-4.5204,-4.5747,-4.5991,-4.5986,-4.5986,-4.5986,-4.5997,-4.5997,-4.5997,-4.5997,-4.5997,-4.5997,-4.5997,-4.5997,-4.5997,-4.5997,-4.5997,-4.5997,-4.5997,-4.5986,-4.5986,-4.5986,-4.5975,-4.5964,-4.5964,-4.5964,-4.5941,-4.5956,-4.5893,-4.5867,-4.588,-4.588,-4.5827,-4.5645,-4.5142,-4.5452,-4.5336,-4.3982,-4.4523,-4.4639,-4.344,-4.3595,-4.402,-4.4562,-4.4098,-4.3775,0.0,0.0,0.0,0.0,0.0,-4.3327,-4.3888,-4.3871,-4.4393,-4.5586,-4.5586,-4.6624,-4.8586,-4.9471,-5.0317,-5.1164,-5.1561,-5.1902,-5.2248,-5.3328,-5.3715,-5.368,-5.4495,-5.4654,-5.451,-5.5535,-5.6217,-5.6669,-5.759,-5.8289,-5.8698,-4.5877,-4.6535,-4.6844,0.0,-4.58,-4.58,-4.58,-4.58,-4.58,-4.58,-4.58,-4.549,-4.4755,-4.3904,-4.3053,-4.2164,0.0,0.0,-4.081,-4.081,-4.081,-4.081,-4.081,-4.081,-4.081,-4.081,-4.081,-4.081,-4.0848,-4.0887,-4.1003,-4.1816,-4.2202,-4.2318,-4.397,-4.4679,-4.4731,-4.5544,-4.5905,-4.5905,-4.5905,-4.5929,-4.5991,-4.5991,-4.5975,-4.5997,-4.5997,-4.5997,-4.5997,-4.5997,-4.5997,-4.5997,-4.5997,-4.5997,-4.5997,-4.5997,-4.5997,-4.5986,-4.6003,-4.5991,-4.5991,-4.5917,-4.5905,-4.5905,-4.5905,-4.588,-4.5893,-4.5893,-4.5827,-4.58,-4.58,-4.58,-4.58,-4.58,-4.58,-4.5529,-4.4717,-4.5258,-4.5142,-4.3595,-4.4098,-4.4639,-4.4678,-4.4678,-4.4612,0.0,0.0,0.0,0.0,0.0,-4.3365,-4.3355,-4.3355,-4.4124,-4.574,-4.5817,-4.7086,-4.951,-5.0356,-5.1164,-5.1875,-5.1752,-5.2093,-5.2818,-5.3338,-5.3383,-5.317,-5.4283,-5.4364,-5.3981,-5.5846,-5.6482,-5.6506,-5.8029,-5.8661,-5.8698,0.0,0.0,-4.6844,-4.5955,-4.58,-4.58,-4.58,-4.58,-4.58,-4.58,-4.58,-4.5722,-4.5529,-4.4794,-4.3943,-4.3053,-4.1661,-4.081,-4.081,-4.081,-4.081,-4.081,-4.081,-4.081,-4.081,-4.081,-4.081,-4.081,-4.1429,-4.2048,-4.2744,-4.3595,-4.433,-4.491,-4.5349,-4.5504,-4.5543,-4.575,-4.5841,-4.5906,-4.5906,-4.5893,-4.5917,-4.5917,-4.5929,-4.5929,-4.5929,-4.5929,-4.5929,-4.5929,-4.5929,-4.5929,-4.5929,-4.5929,-4.5941,-4.5964,-4.6003,-4.6003,-4.5929,-4.5917,-4.5917,-4.5917,-4.5905,-4.5905,-4.5919,-4.5906,-4.5893,-4.5827,-4.5814,-4.58,-4.58,-4.58,-4.58,-4.58,-4.58,-4.5529,-4.4717,-4.4755,-4.4755,-4.433,-4.4485,-4.4833,-4.5452,-4.5501,-4.5216,0.0,0.0,-4.4592,-4.3458,-4.5081,-4.6009,-4.6009,-4.6009,-4.6509,-4.7509,-4.8163,-4.9125,-5.0394,-5.1202,-5.1741,-5.1913,-5.2939,-5.3531,-5.3735,-5.4004,-5.4063,-5.3999,-5.4013,-5.3944,-5.3905,-5.4987,-5.5767,-5.6432,-5.7435,-5.8178,-5.8698,-4.6612,-4.6496,-4.6341,-4.5877,-4.58,-4.58,-4.58,-4.58,-4.58,-4.58,-4.58,-4.58,-4.58,-4.5065,-4.4407,-4.3943,-4.2318,-4.1197,-4.081,-4.081,-4.081,-4.081,-4.1158,-4.1351,-4.1351,-4.1351,-4.1351,-4.1351,-4.2202,-4.286,-4.3324,-4.4175,-4.4833,-4.5258,-4.5645,-4.58,-4.58,-4.58,-4.5814,-4.5841,-4.5841,-4.5854,-4.5893,-4.5893,-4.5893,-4.5905,-4.5905,-4.5905,-4.5905,-4.5905,-4.5905,-4.5905,-4.5905,-4.5905,-4.5905,-4.5956,-4.5968,-4.5968,-4.5893,-4.5893,-4.588,-4.5867,-4.5867,-4.5854,-4.5841,-4.5841,-4.5827,-4.5814,-4.58,-4.58,-4.58,-4.58,-4.58,-4.58,-4.549,-4.5104,-4.4678,-4.4601,-4.4601,-4.4601,-4.491,-4.5336,-4.5747,-4.5795,-4.5572,-4.5102,-4.507,0.0,-4.485,-4.5757,-4.6317,-4.6317,-4.7048,-4.7855,-4.8702,-4.9548,-5.0355,-5.1058,-5.1603,-5.1962,-5.2141,-5.3251,-5.3916,-5.4124,-5.4108,-5.4054,-5.4054,-5.387,-5.4017,-5.4426,-5.528,-5.6097,-5.6952,-5.7769,-5.8326,-5.8698,-4.6148,-4.6071,-4.5955,-4.58,-4.58,-4.5761,-4.5645,-4.5722,-4.58,-4.58,-4.58,-4.58,-4.58,-4.5297,-4.4871,-4.4639,-4.3363,-4.2164,-4.1235,-4.1158,-4.1158,-4.1158,-4.1816,-4.2202,-4.2202,-4.2202,-4.2202,-4.2202,-4.3053,-4.3518,-4.3518,-4.4369,-4.4794,-4.4794,-4.549,-4.58,-4.58,-4.58,-4.58,-4.58,-4.58,-4.5827,-4.5893,-4.5893,-4.5867,-4.5893,-4.5893,-4.5893,-4.5893,-4.5893,-4.5893,-4.5893,-4.5893,-4.5893,-4.5893,-4.5893,-4.5867,-4.5893,-4.5893,-4.5893,-4.588,-4.5814,-4.58,-4.58,-4.58,-4.58,-4.58,-4.58,-4.58,-4.58,-4.58,-4.58,-4.5761,-4.5645,-4.5065,-4.4562,-4.4407,-4.4523,-4.4601,-4.4601,-4.5297,-4.5786,-4.5795,-4.5781,-4.5812,-4.5902,-4.5192,-4.5389,-4.6817,-4.6432,-4.6086,-4.597,-4.7471,-4.8779,-4.9779,-5.0336,-5.0982,-5.1658,-5.1858,-5.2141,-5.2494,-5.327,-5.388,-5.4262,-5.3944,-5.3794,-5.3831,-5.3943,-5.4388,-5.5094,-5.6097,-5.6915,-5.7621,-5.8401,-5.8698,-5.8656,-4.785,-4.7386,-4.6651,-4.5916,-4.58,-4.5568,-4.491,-4.5374,-4.58,-4.58,-4.58,-4.58,-4.58,-4.6341,-4.6148,-4.4717,-4.4987,-4.4562,-4.3015,-4.2899,-4.2899,-4.2899,-4.3015,-4.3092,-4.3092,-4.3092,-4.3092,-4.3092,-4.3982,-4.4407,-4.4407,-4.522,-4.5606,-4.5606,-4.5722,-4.58,-4.58,-4.58,-4.58,-4.58,-4.58,-4.5814,-4.5814,-4.5814,-4.5814,-4.5827,-4.5827,-4.5827,-4.5827,-4.5827,-4.5827,-4.5827,-4.5827,-4.5827,-4.5827,-4.5814,-4.5814,-4.5827,-4.5814,-4.5814,-4.5814,-4.58,-4.58,-4.58,-4.58,-4.58,-4.58,-4.58,-4.58,-4.58,-4.58,-4.58,-4.5568,-4.491,-4.4678,-4.433,-4.3595,-4.4136,-4.4601,-4.4601,-4.5307,-4.5795,-4.5781,-4.5758,-4.5979,-4.6656,-4.6583,-4.6624,-4.6894,-4.8125,-4.8471,-4.774,-4.8663,-4.9933,-5.151,-5.0708,-5.1032,-5.2513,-5.2334,-5.2617,-5.3337,-5.3892,-5.4217,-5.4262,-5.3944,-5.3794,-5.3868,-5.4537,-5.4909,-5.5169,-5.6729,-5.7398,-5.7621,-5.8401,-5.8614,-5.8492,-4.6844,-4.6225,-4.5606,-4.5761,-4.4794,-4.4291,-4.5104,-4.5181,-4.5142,-4.5142,-4.5529,-4.5645,-4.5181,-4.5916,-4.6071,-4.5297,-4.5568,-4.5452,-4.4717,-4.3788,-4.3285,-4.3285,-4.375,-4.402,-4.402,-4.4407,-4.4446,-4.402,-4.4833,-4.5258,-4.5258,-4.5645,-4.58,-4.58,-4.58,-4.58,-4.58,-4.58,-4.58,-4.58,-4.58,-4.58,-4.58,-4.58,-4.58,-4.58,-4.58,-4.58,-4.58,-4.58,-4.58,-4.58,-4.58,-4.58,-4.58,-4.58,-4.58,-4.58,-4.58,-4.58,-4.58,-4.58,-4.58,-4.58,-4.58,-4.58,-4.58,-4.58,-4.58,-4.58,-4.58,-4.58,-4.5529,-4.4717,-4.4601,-4.4291,-4.344,-4.4059,-4.4601,-4.4601,-4.5307,-4.5974,-4.6407,-4.6381,-4.6677,-4.7507,-4.7548,-4.774,-4.824,-4.8971,-4.9625,-5.0125,-5.0389,-5.136,-5.3008,-5.1866,-5.1847,-5.2929,-5.292,-5.2961,-5.3028,-5.3887,-5.4193,-5.4017,-5.387,-5.3794,-5.3831,-5.4203,-5.4909,-5.58,-5.6543,-5.7357,-5.8095,-5.8466,-5.8529,-5.8443,-4.6187,-4.5568,-4.5142,-4.5955,-4.4717,-4.4059,-4.5568,-4.5452,-4.5181,-4.5181,-4.5722,-4.58,-4.4987,-4.5606,-4.6032,-4.58,-4.5993,-4.6032,-4.58,-4.4601,-4.3866,-4.3866,-4.4523,-4.4871,-4.4871,-4.549,-4.549,-4.4871,-4.549,-4.58,-4.58,-4.58,-4.58,-4.58,-4.58,-4.58,-4.58,-4.58,-4.58,-4.58,-4.58,-4.58,-4.58,-4.58,-4.58,-4.58,-4.58,-4.58,-4.58,-4.58,-4.58,-4.58,-4.58,-4.58,-4.58,-4.58,-4.58,-4.58,-4.58,-4.58,-4.58,-4.58,-4.58,-4.58,-4.58,-4.58,-4.58,-4.58,-4.58,-4.58,-4.58,-4.58,-4.5529,-4.4717,-4.4601,-4.4369,-4.3711,-4.4175,-4.4664,-4.4858,-4.5602,-4.6329,-4.6937,-4.708,-4.7507,-4.8355,-4.8394,-4.8779,-4.9663,-4.9894,-5.0721,-5.2351,-5.1997,-5.245,-5.3887,-5.2712,-5.2529,-5.3357,-5.3327,-5.317,-5.2902,-5.3755,-5.4054,-5.3794,-5.3756,-5.3793,-5.3831,-5.3978,-5.4867,-5.628,-5.6425,-5.7311,-5.8486,-5.8486,-5.84,-5.8349,-4.7889,-4.7502,-4.6922,-4.6999,-4.6883,-4.6535,-4.5877,-4.6419,-4.6922,-4.6922,-4.696,-4.6651,-4.58,-4.6496,-4.6689,-4.5877,-4.6535,-4.6651,-4.5838,-4.5684,-4.5606,-4.5606,-4.5684,-4.5722,-4.5722,-4.5761,-4.5761,-4.5722,-4.5761,-4.58,-4.58,-4.58,-4.58,-4.58,-4.58,-4.58,-4.58,-4.58,-4.58,-4.58,-4.58,-4.58,-4.58,-4.58,-4.58,-4.58,-4.58,-4.58,-4.58,-4.58,-4.58,-4.58,-4.58,-4.58,-4.58,-4.58,-4.58,-4.58,-4.58,-4.58,-4.58,-4.58,-4.58,-4.58,-4.58,-4.58,-4.58,-4.58,-4.58,-4.58,-4.58,-4.58,-4.5529,-4.4717,-4.4601,0.0,-4.4523,-4.4562,-4.4896,-4.5602,-4.6407,-4.6899,-4.6926,-4.7584,-4.8355,-4.924,-4.9317,-4.9663,-5.0548,-5.1318,-5.2368,-5.3785,-5.3034,-5.2882,-5.3547,-5.2422,-5.2644,-5.4221,-5.3159,-5.3014,-5.372,-5.3795,-5.3832,-5.3794,-5.3716,-5.3716,-5.383,-5.4415,-5.5225,-5.6195,-5.6847,-5.7654,-5.8393,-5.8393,-5.8349,-5.8179,-4.6651,-4.7657,-4.8121,-4.7231,-4.7231,-4.7347,-4.7424,-4.6767,-4.6303,-4.6303,-4.6303,-4.5993,-4.5142,-4.58,-4.6148,-4.5838,-4.6109,-4.6148,-4.58,-4.58,-4.58,-4.58,-4.58,-4.58,-4.58,-4.58,-4.58,-4.58,-4.58,-4.58,-4.58,-4.58,-4.58,-4.58,-4.58,-4.58,-4.58,-4.58,-4.58,-4.58,-4.58,-4.58,-4.58,-4.58,-4.58,-4.58,-4.58,-4.58,-4.58,-4.58,-4.58,-4.58,-4.58,-4.58,-4.58,-4.58,-4.58,-4.58,-4.58,-4.58,-4.58,-4.58,-4.58,-4.58,-4.58,-4.58,-4.58,-4.58,-4.58,-4.58,-4.58,-4.58,-4.5529,-4.4717,0.0,-4.5181,-4.4678,-4.5501,-4.6259,-4.6553,-4.7301,-4.7945,-4.8467,-4.8759,-4.9279,-5.0125,-5.0202,-5.0489,-5.1185,-5.2283,-5.3041,-5.3361,-5.3558,-5.3792,-5.4005,-5.3374,-5.3384,-5.3981,-5.3572,-5.3497,-5.3794,-5.3754,-5.3716,-5.3716,-5.3637,-5.3598,-5.3674,-5.4408,-5.518,-5.6034,-5.6842,-5.7611,-5.8305,-5.8305,-5.8179,-5.8088,-4.6148,-4.7463,-4.8237,-4.727,-4.7231,-4.7502,-4.7927,-4.7192,-4.6535,-4.6225,-4.6457,-4.6187,-4.5104,-4.5452,-4.58,-4.58,-4.58,-4.58,-4.58,-4.58,-4.58,-4.58,-4.58,-4.58,-4.58,-4.58,-4.58,-4.58,-4.58,-4.58,-4.58,-4.58,-4.58,-4.58,-4.58,-4.58,-4.58,-4.58,-4.58,-4.58,-4.58,-4.58,-4.58,-4.58,-4.58,-4.58,-4.58,-4.58,-4.58,-4.58,-4.58,-4.58,-4.58,-4.58,-4.58,-4.58,-4.58,-4.58,-4.58,-4.58,-4.58,-4.58,-4.58,-4.58,-4.58,-4.5993,-4.6109,-4.5838,-4.6225,-4.6535,-4.6264,-4.6419,-4.6341,-4.5529,-4.6071,-4.6341,-4.5501,-4.6607,-4.7465,-4.7433,-4.8116,-4.8834,-4.9412,-4.9682,-5.0048,-5.0664,-5.0873,-5.13,-5.2082,-5.2911,-5.3359,-5.3433,-5.3896,-5.4161,-5.4161,-5.3944,-5.3794,-5.3794,-5.3794,-5.3793,-5.3793,-5.3753,-5.3674,-5.3598,-5.3518,-5.344,-5.3555,-5.4285,-5.5133,-5.5908,-5.6719,-5.7442,-5.8133,-5.8133,-5.8088,-5.7997,-4.6922,-4.7115,-4.7115,-4.7115,-4.7115,-4.7115,-4.7115,-4.785,-4.8082,-4.7192,-4.785,-4.7734,-4.5993,-4.58,-4.58,-4.58,-4.58,-4.58,-4.58,-4.58,-4.58,-4.58,-4.58,-4.58,-4.58,-4.58,-4.58,-4.58,-4.58,-4.58,-4.58,-4.58,-4.58,-4.58,-4.58,-4.58,-4.58,-4.58,-4.58,-4.58,-4.58,-4.58,-4.58,-4.58,-4.58,-4.58,-4.58,-4.58,-4.58,-4.58,-4.58,-4.58,-4.58,-4.58,-4.58,-4.58,-4.58,-4.58,-4.58,-4.58,-4.58,-4.58,-4.58,-4.58,-4.58,-4.6457,-4.6844,-4.5993,-4.7192,-4.8121,-4.727,-4.7811,-4.8121,-4.7231,-4.785,-4.8106,-4.7249,-4.7789,-4.8298,-4.8197,-4.8967,-4.9489,-4.9394,-5.0202,-5.0702,-5.0702,-5.1201,-5.2082,-5.3404,-5.3182,-5.3399,-5.4296,-5.3944,-5.3794,-5.3794,-5.3794,-5.3794,-5.3794,-5.3794,-5.3754,-5.3714,-5.3714,-5.3598,-5.3481,-5.3359,-5.3359,-5.3555,-5.4154,-5.4963,-5.5852,-5.6536,-5.7299,-5.7997,-5.7997,-5.7997,-5.7997,-4.6148,-4.6689,-4.7115,-4.7115,-4.7618,-4.8005,-4.8005,-4.7695,-4.7386,-4.7115,-4.6806,-4.638,-4.5838,-4.58,-4.58,-4.58,-4.58,-4.58,-4.58,-4.58,-4.58,-4.58,-4.58,-4.58,-4.58,-4.58,-4.58,-4.58,-4.58,-4.58,-4.58,-4.58,-4.58,-4.58,-4.58,-4.58,-4.58,-4.58,-4.58,-4.58,-4.58,-4.58,-4.58,-4.58,-4.58,-4.58,-4.58,-4.58,-4.58,-4.58,-4.58,-4.58,-4.58,-4.58,-4.58,-4.58,-4.58,-4.58,-4.58,-4.58,-4.58,-4.58,-4.58,-4.5955,-4.6573,-4.6922,-4.7192,-4.754,-4.8043,-4.8314,-4.8043,-4.8237,-4.8314,-4.8043,-4.8183,-4.8183,-4.772,-4.8337,-4.8715,-4.8518,-4.921,-4.9792,-4.9953,-5.0045,-5.0135,-5.0336,-5.1212,-5.2114,-5.3075,-5.3414,-5.3646,-5.3944,-5.387,-5.3793,-5.3716,-5.3716,-5.3716,-5.3716,-5.3637,-5.3561,-5.3558,-5.344,-5.34,-5.3359,-5.3272,-5.323,-5.3382,-5.4699,-5.5434,-5.5765,-5.7116,-5.7776,-5.7997,-5.7997,-5.7997,-5.7997,-4.58,-4.6225,-4.6573,-4.6573,-4.6999,-4.7386,-4.7386,-4.7231,-4.696,-4.6612,-4.6419,-4.6187,-4.5838,-4.58,-4.58,-4.58,-4.58,-4.58,-4.58,-4.58,-4.58,-4.58,-4.58,-4.58,-4.58,-4.58,-4.58,-4.58,-4.58,-4.58,-4.58,-4.58,-4.58,-4.58,-4.58,-4.58,-4.58,-4.58,-4.58,-4.58,-4.58,-4.58,-4.58,-4.58,-4.58,-4.58,-4.58,-4.58,-4.58,-4.58,-4.58,-4.58,-4.58,-4.58,-4.58,-4.58,-4.58,-4.58,-4.58,-4.58,-4.5877,-4.6225,-4.6303,-4.6457,-4.696,-4.7618,-4.8198,-4.8353,-4.8933,-4.9266,-4.8839,-4.8977,-4.9059,-4.8623,-4.876,-4.8759,-4.8226,-4.8884,-4.93,-4.9124,-4.9489,-4.9884,-5.0038,-5.0176,-5.0561,-5.1261,-5.1895,-5.2582,-5.3267,-5.3609,-5.3793,-5.3754,-5.3754,-5.3716,-5.3598,-5.3558,-5.3558,-5.3598,-5.3558,-5.3481,-5.34,-5.3359,-5.3277,-5.3272,-5.3188,-5.3408,-5.3739,-5.473,-5.55,-5.6161,-5.7152,-5.7703,-5.7997,-5.7997,-5.7997,-5.7997,-4.58,-4.58,-4.58,-4.58,-4.58,-4.58,-4.58,-4.6457,-4.6728,-4.5993,-4.6535,-4.6689,-4.5993,-4.5838,-4.58,-4.58,-4.58,-4.58,-4.58,-4.58,-4.58,-4.58,-4.58,-4.58,-4.58,-4.58,-4.58,-4.58,-4.58,-4.58,-4.58,-4.58,-4.58,-4.58,-4.58,-4.58,-4.58,-4.58,-4.58,-4.58,-4.58,-4.58,-4.58,-4.58,-4.58,-4.58,-4.58,-4.58,-4.58,-4.58,-4.58,-4.58,-4.58,-4.58,-4.58,-4.58,-4.58,-4.5786,-4.5863,-4.5887,-4.6066,-4.6955,-4.7225,-4.7264,-4.7279,-4.8516,-4.9428,-4.8694,-4.9776,-5.0538,-4.9548,-4.9931,-5.0057,-4.9067,-4.9466,-4.9619,-4.8795,-4.9364,-4.983,-4.9749,-4.9759,-4.9862,-4.9862,-5.0582,-5.1609,-5.2874,-5.2953,-5.3227,-5.3757,-5.3794,-5.3754,-5.3714,-5.3714,-5.3598,-5.3481,-5.3359,-5.3359,-5.3481,-5.3477,-5.34,-5.3277,-5.3277,-5.3272,-5.3225,-5.3225,-5.3628,-5.4289,-5.4436,-5.539,-5.6712,-5.6859,-5.7336,-5.7997,-5.7997,-5.795,-5.795,-4.58,-4.58,-4.58,-4.58,-4.58,-4.58,-4.58,-4.5955,-4.6264,-4.6728,-4.638,-4.6264,-4.6767,-4.6187,-4.58,-4.58,-4.58,-4.58,-4.58,-4.58,-4.58,-4.58,-4.58,-4.58,-4.58,-4.58,-4.58,-4.58,-4.58,-4.58,-4.58,-4.58,-4.58,-4.58,-4.58,-4.58,-4.58,-4.58,-4.58,-4.58,-4.58,-4.58,-4.58,-4.58,-4.58,-4.58,-4.58,-4.58,-4.58,-4.58,-4.58,-4.58,-4.58,-4.58,-4.58,-4.58,-4.5673,-4.5676,-4.6313,-4.6397,-4.6472,-4.7353,-4.8043,-4.8544,-4.8759,-4.8932,-4.9192,-4.969,-5.0095,-5.0243,-4.9962,-5.0054,-5.0045,-4.9719,-4.9797,-4.9743,-4.9277,-4.9378,-4.9408,-4.9123,-4.965,-5.016,-5.0416,-5.113,-5.1903,-5.2641,-5.2679,-5.3014,-5.3757,-5.3754,-5.3714,-5.3714,-5.3598,-5.3481,-5.3359,-5.3318,-5.3318,-5.3359,-5.3314,-5.323,-5.323,-5.323,-5.3188,-5.3225,-5.3225,-5.3298,-5.3555,-5.4803,-5.5537,-5.5978,-5.7262,-5.785,-5.7997,-5.7997,-5.7726,-5.7302,-4.58,-4.58,-4.58,-4.58,-4.58,-4.5916,-4.6341,-4.6071,-4.6264,-4.754,-4.696,-4.6573,-4.7038,-4.6689,-4.6264,-4.5838,-4.58,-4.5993,-4.638,-4.6032,-4.5993,-4.638,-4.6032,-4.58,-4.58,-4.58,-4.58,-4.58,-4.58,-4.58,-4.58,-4.58,-4.58,-4.58,-4.58,-4.58,-4.58,-4.58,-4.58,-4.58,-4.58,-4.58,-4.58,-4.58,-4.58,-4.58,-4.58,-4.58,-4.58,-4.58,-4.5757,-4.5658,-4.5658,-4.5594,-4.5526,-4.5526,-4.5455,-4.5515,-4.6339,-4.6487,-4.6708,-4.7968,-4.8524,-4.8805,-4.9056,-4.9319,-4.9648,-5.0045,-5.0159,-5.0111,-4.991,-4.9792,-4.9711,-4.9541,-4.9762,-4.9821,-4.922,-4.9865,-5.0138,-4.9522,-5.0228,-5.0931,-5.1479,-5.1924,-5.2453,-5.3125,-5.3162,-5.3348,-5.3794,-5.3716,-5.3674,-5.3598,-5.344,-5.3359,-5.3272,-5.3272,-5.3272,-5.3272,-5.3188,-5.3225,-5.3225,-5.3225,-5.3225,-5.3225,-5.3225,-5.3445,-5.3812,-5.4289,-5.4913,-5.5684,-5.6528,-5.7079,-5.7437,-5.7533,-5.7216,-5.6704,-4.58,-4.58,-4.58,-4.58,-4.58,-4.6032,-4.6767,-4.638,-4.6573,-4.8198,-4.7773,-4.7308,-4.7308,-4.7192,-4.6728,-4.5877,-4.6071,-4.6419,-4.6844,-4.6428,-4.6375,-4.6815,-4.6244,-4.5843,-4.5771,-4.5771,-4.5786,-4.58,-4.58,-4.58,-4.58,-4.58,-4.58,-4.58,-4.58,-4.58,-4.58,-4.58,-4.58,-4.58,-4.58,-4.58,-4.58,-4.5771,-4.5771,-4.5718,-4.5703,-4.5688,-4.5688,-4.5688,-4.5594,-4.5455,-4.5455,-4.5419,-4.543,-4.543,-4.5464,-4.5748,-4.6565,-4.6733,-4.7067,-4.859,-4.8833,-4.8802,-4.9087,-4.9733,-5.019,-4.9962,-5.0152,-5.0236,-4.9784,-4.977,-4.969,-4.9545,-4.9966,-5.0079,-4.941,-5.0525,-5.1119,-5.0413,-5.1082,-5.1936,-5.2717,-5.2828,-5.3088,-5.3757,-5.3794,-5.3794,-5.3756,-5.3716,-5.3598,-5.344,-5.3359,-5.3272,-5.3225,-5.3225,-5.3225,-5.3225,-5.3225,-5.3225,-5.3225,-5.3225,-5.3225,-5.3225,-5.3225,-5.3592,-5.4142,-5.3543,-5.4049,-5.5257,-5.5468,-5.5935,-5.6536,-5.6725,-5.6599,-5.6276,-4.58,-4.58,-4.58,-4.58,-4.58,-4.5838,-4.5955,-4.6535,-4.727,-4.8275,-4.8314,-4.8237,-4.8237,-4.754,-4.6728,-4.5877,-4.7192,-4.7463,-4.6071,-4.7053,-4.7104,-4.5774,-4.611,-4.609,-4.5543,-4.5543,-4.5626,-4.58,-4.58,-4.58,-4.58,-4.58,-4.58,-4.58,-4.58,-4.58,-4.58,-4.58,-4.58,-4.58,-4.58,-4.58,-4.5786,-4.561,-4.5543,-4.5526,-4.5362,-4.5283,-4.5283,-4.5283,-4.5263,-4.5243,-4.5243,-4.5719,-4.6249,-4.6249,-4.6587,-4.7176,-4.8048,-4.8153,-4.8181,-4.9032,-4.9227,-4.9352,-5.0033,-5.0322,-5.0241,-4.9502,-5.0445,-5.1129,-5.0359,-5.0773,-5.1188,-5.1081,-5.1156,-5.1193,-5.1082,-5.1268,-5.1342,-5.1231,-5.1936,-5.2754,-5.3571,-5.3645,-5.3683,-5.3794,-5.3794,-5.3793,-5.3714,-5.3598,-5.344,-5.3318,-5.3272,-5.3188,-5.3225,-5.3225,-5.3225,-5.3225,-5.3225,-5.3225,-5.3225,-5.3225,-5.3225,-5.3225,-5.3225,-5.3261,-5.3366,-5.3481,-5.366,-5.3987,-5.4849,-5.5219,-5.5382,-5.5547,-5.5887,-5.6221,-4.58,-4.58,-4.58,-4.58,-4.58,-4.5955,-4.6457,-4.6844,-4.7579,-4.8933,-4.9126,-4.8933,-4.8469,-4.7192,-4.6225,-4.5838,-4.6383,-4.6667,-4.6359,-4.6416,-4.6339,-4.6071,-4.5854,-4.5625,-4.5342,-4.5455,-4.556,-4.5626,-4.5718,-4.58,-4.58,-4.58,-4.58,-4.58,-4.5673,-4.5626,-4.5626,-4.5526,-4.5435,-4.5435,-4.5435,-4.5435,-4.5473,-4.5381,-4.5342,-4.5342,-4.5243,-4.5201,-4.5201,-4.5201,-4.5115,-4.4966,-4.4966,-4.5442,-4.5975,-4.5949,-4.6447,-4.7203,-4.8039,-4.8183,-4.8247,-4.9038,-4.9225,-4.9417,-5.0176,-5.0698,-5.0956,-5.0586,-5.1071,-5.1446,-5.0968,-5.1228,-5.1416,-5.1379,-5.1788,-5.1899,-5.1454,-5.2159,-5.2754,-5.2754,-5.3051,-5.3423,-5.3794,-5.3794,-5.3794,-5.3794,-5.3754,-5.3716,-5.3714,-5.3518,-5.3359,-5.3318,-5.323,-5.3225,-5.3225,-5.3225,-5.3225,-5.3225,-5.3225,-5.3225,-5.3225,-5.3225,-5.3017,-5.2761,-5.306,-5.285,-5.2351,-5.2723,-5.2773,-5.2628,-5.3917,-5.4794,-5.5278,-5.5379,-5.5343,-5.5284]}]]